<?xml version="1.0" encoding="UTF-8" standalone="no" ?>
<gpx xmlns="http://www.topografix.com/GPX/1/1" xmlns:xsi="http://www.w3.org/2001/XMLSchema-instance" xsi:schemaLocation="http://www.topografix.com/GPX/1/1 http://www.topografix.com/GPX/1/1/gpx.xsd" version="1.1" creator="VisuGPX - https://www.visugpx.com">
  <metadata>
    <name>www.VTT44.com sortie free Orvault </name>
    <desc><![CDATA[Sortie free des membres du forum www.vtt44.com]]></desc>
  </metadata>
  <trk>
    <name><![CDATA[2013-10-27 11:51:49]]></name>
    <trkseg>
      <trkpt lat="47.27026" lon="-1.62401">
        <ele>53.97</ele>
        <time>2013-10-27T07:52:52Z</time>
      </trkpt>
      <trkpt lat="47.27027" lon="-1.62399">
        <ele>55.89</ele>
        <time>2013-10-27T07:53:11Z</time>
      </trkpt>
      <trkpt lat="47.27029" lon="-1.6239">
        <ele>47.24</ele>
        <time>2013-10-27T07:55:31Z</time>
      </trkpt>
      <trkpt lat="47.27029" lon="-1.62376">
        <ele>46.76</ele>
        <time>2013-10-27T07:55:34Z</time>
      </trkpt>
      <trkpt lat="47.27031" lon="-1.62361">
        <ele>45.32</ele>
        <time>2013-10-27T07:55:37Z</time>
      </trkpt>
      <trkpt lat="47.27021" lon="-1.62361">
        <ele>43.4</ele>
        <time>2013-10-27T07:55:41Z</time>
      </trkpt>
      <trkpt lat="47.27009" lon="-1.62368">
        <ele>41.95</ele>
        <time>2013-10-27T07:55:44Z</time>
      </trkpt>
      <trkpt lat="47.27001" lon="-1.62374">
        <ele>41.47</ele>
        <time>2013-10-27T07:55:46Z</time>
      </trkpt>
      <trkpt lat="47.26991" lon="-1.6238">
        <ele>40.99</ele>
        <time>2013-10-27T07:55:48Z</time>
      </trkpt>
      <trkpt lat="47.2698" lon="-1.62386">
        <ele>40.03</ele>
        <time>2013-10-27T07:55:50Z</time>
      </trkpt>
      <trkpt lat="47.2697" lon="-1.62392">
        <ele>39.55</ele>
        <time>2013-10-27T07:55:52Z</time>
      </trkpt>
      <trkpt lat="47.2696" lon="-1.624">
        <ele>39.07</ele>
        <time>2013-10-27T07:55:54Z</time>
      </trkpt>
      <trkpt lat="47.26949" lon="-1.62406">
        <ele>38.11</ele>
        <time>2013-10-27T07:55:56Z</time>
      </trkpt>
      <trkpt lat="47.26939" lon="-1.62415">
        <ele>37.63</ele>
        <time>2013-10-27T07:55:58Z</time>
      </trkpt>
      <trkpt lat="47.26931" lon="-1.62428">
        <ele>36.67</ele>
        <time>2013-10-27T07:56:00Z</time>
      </trkpt>
      <trkpt lat="47.26924" lon="-1.62437">
        <ele>36.19</ele>
        <time>2013-10-27T07:56:02Z</time>
      </trkpt>
      <trkpt lat="47.26915" lon="-1.62437">
        <ele>35.23</ele>
        <time>2013-10-27T07:56:06Z</time>
      </trkpt>
      <trkpt lat="47.26905" lon="-1.62433">
        <ele>33.78</ele>
        <time>2013-10-27T07:56:12Z</time>
      </trkpt>
      <trkpt lat="47.26893" lon="-1.6243">
        <ele>32.34</ele>
        <time>2013-10-27T07:56:16Z</time>
      </trkpt>
      <trkpt lat="47.26881" lon="-1.62428">
        <ele>32.34</ele>
        <time>2013-10-27T07:56:19Z</time>
      </trkpt>
      <trkpt lat="47.26873" lon="-1.62427">
        <ele>31.86</ele>
        <time>2013-10-27T07:56:23Z</time>
      </trkpt>
      <trkpt lat="47.26861" lon="-1.62417">
        <ele>30.9</ele>
        <time>2013-10-27T07:56:26Z</time>
      </trkpt>
      <trkpt lat="47.2685" lon="-1.62409">
        <ele>30.42</ele>
        <time>2013-10-27T07:56:28Z</time>
      </trkpt>
      <trkpt lat="47.26837" lon="-1.62397">
        <ele>29.46</ele>
        <time>2013-10-27T07:56:30Z</time>
      </trkpt>
      <trkpt lat="47.26825" lon="-1.62386">
        <ele>28.98</ele>
        <time>2013-10-27T07:56:32Z</time>
      </trkpt>
      <trkpt lat="47.26813" lon="-1.62376">
        <ele>28.02</ele>
        <time>2013-10-27T07:56:34Z</time>
      </trkpt>
      <trkpt lat="47.26802" lon="-1.62368">
        <ele>27.53</ele>
        <time>2013-10-27T07:56:36Z</time>
      </trkpt>
      <trkpt lat="47.2679" lon="-1.62368">
        <ele>26.09</ele>
        <time>2013-10-27T07:56:38Z</time>
      </trkpt>
      <trkpt lat="47.26782" lon="-1.62358">
        <ele>24.65</ele>
        <time>2013-10-27T07:56:40Z</time>
      </trkpt>
      <trkpt lat="47.26776" lon="-1.62343">
        <ele>24.17</ele>
        <time>2013-10-27T07:56:42Z</time>
      </trkpt>
      <trkpt lat="47.26769" lon="-1.62328">
        <ele>23.69</ele>
        <time>2013-10-27T07:56:44Z</time>
      </trkpt>
      <trkpt lat="47.26762" lon="-1.62318">
        <ele>23.69</ele>
        <time>2013-10-27T07:56:46Z</time>
      </trkpt>
      <trkpt lat="47.26766" lon="-1.62323">
        <ele>19.84</ele>
        <time>2013-10-27T07:57:12Z</time>
      </trkpt>
      <trkpt lat="47.26772" lon="-1.62335">
        <ele>19.84</ele>
        <time>2013-10-27T07:57:18Z</time>
      </trkpt>
      <trkpt lat="47.26777" lon="-1.62348">
        <ele>19.84</ele>
        <time>2013-10-27T07:57:24Z</time>
      </trkpt>
      <trkpt lat="47.26783" lon="-1.6236">
        <ele>20.32</ele>
        <time>2013-10-27T07:57:29Z</time>
      </trkpt>
      <trkpt lat="47.26791" lon="-1.6237">
        <ele>20.81</ele>
        <time>2013-10-27T07:57:33Z</time>
      </trkpt>
      <trkpt lat="47.268" lon="-1.62369">
        <ele>21.29</ele>
        <time>2013-10-27T07:57:36Z</time>
      </trkpt>
      <trkpt lat="47.26809" lon="-1.62373">
        <ele>22.73</ele>
        <time>2013-10-27T07:57:40Z</time>
      </trkpt>
      <trkpt lat="47.26818" lon="-1.62379">
        <ele>24.65</ele>
        <time>2013-10-27T07:57:45Z</time>
      </trkpt>
      <trkpt lat="47.26828" lon="-1.62387">
        <ele>27.53</ele>
        <time>2013-10-27T07:57:51Z</time>
      </trkpt>
      <trkpt lat="47.26837" lon="-1.62394">
        <ele>29.94</ele>
        <time>2013-10-27T07:57:57Z</time>
      </trkpt>
      <trkpt lat="47.26848" lon="-1.62402">
        <ele>32.82</ele>
        <time>2013-10-27T07:58:02Z</time>
      </trkpt>
      <trkpt lat="47.26855" lon="-1.62411">
        <ele>34.26</ele>
        <time>2013-10-27T07:58:06Z</time>
      </trkpt>
      <trkpt lat="47.26863" lon="-1.62418">
        <ele>35.71</ele>
        <time>2013-10-27T07:58:10Z</time>
      </trkpt>
      <trkpt lat="47.26872" lon="-1.62425">
        <ele>37.15</ele>
        <time>2013-10-27T07:58:15Z</time>
      </trkpt>
      <trkpt lat="47.26883" lon="-1.62424">
        <ele>38.11</ele>
        <time>2013-10-27T07:58:20Z</time>
      </trkpt>
      <trkpt lat="47.26893" lon="-1.62425">
        <ele>37.63</ele>
        <time>2013-10-27T07:58:24Z</time>
      </trkpt>
      <trkpt lat="47.26904" lon="-1.62425">
        <ele>39.55</ele>
        <time>2013-10-27T07:58:29Z</time>
      </trkpt>
      <trkpt lat="47.26911" lon="-1.62415">
        <ele>42.44</ele>
        <time>2013-10-27T07:58:33Z</time>
      </trkpt>
      <trkpt lat="47.26919" lon="-1.62404">
        <ele>44.84</ele>
        <time>2013-10-27T07:58:37Z</time>
      </trkpt>
      <trkpt lat="47.2693" lon="-1.624">
        <ele>45.8</ele>
        <time>2013-10-27T07:58:41Z</time>
      </trkpt>
      <trkpt lat="47.2694" lon="-1.62397">
        <ele>46.28</ele>
        <time>2013-10-27T07:58:45Z</time>
      </trkpt>
      <trkpt lat="47.26951" lon="-1.62391">
        <ele>46.28</ele>
        <time>2013-10-27T07:58:50Z</time>
      </trkpt>
      <trkpt lat="47.26962" lon="-1.62385">
        <ele>47.24</ele>
        <time>2013-10-27T07:58:53Z</time>
      </trkpt>
      <trkpt lat="47.26972" lon="-1.62378">
        <ele>47.24</ele>
        <time>2013-10-27T07:58:56Z</time>
      </trkpt>
      <trkpt lat="47.26984" lon="-1.62372">
        <ele>47.72</ele>
        <time>2013-10-27T07:58:59Z</time>
      </trkpt>
      <trkpt lat="47.26996" lon="-1.62365">
        <ele>47.24</ele>
        <time>2013-10-27T07:59:02Z</time>
      </trkpt>
      <trkpt lat="47.27007" lon="-1.62358">
        <ele>47.24</ele>
        <time>2013-10-27T07:59:05Z</time>
      </trkpt>
      <trkpt lat="47.27018" lon="-1.62352">
        <ele>47.24</ele>
        <time>2013-10-27T07:59:08Z</time>
      </trkpt>
      <trkpt lat="47.27028" lon="-1.62346">
        <ele>48.2</ele>
        <time>2013-10-27T07:59:11Z</time>
      </trkpt>
      <trkpt lat="47.27039" lon="-1.62338">
        <ele>48.2</ele>
        <time>2013-10-27T07:59:14Z</time>
      </trkpt>
      <trkpt lat="47.27047" lon="-1.62333">
        <ele>47.72</ele>
        <time>2013-10-27T07:59:18Z</time>
      </trkpt>
      <trkpt lat="47.27057" lon="-1.62333">
        <ele>44.84</ele>
        <time>2013-10-27T07:59:52Z</time>
      </trkpt>
      <trkpt lat="47.2705" lon="-1.62341">
        <ele>43.88</ele>
        <time>2013-10-27T07:59:56Z</time>
      </trkpt>
      <trkpt lat="47.2704" lon="-1.62348">
        <ele>43.4</ele>
        <time>2013-10-27T07:59:59Z</time>
      </trkpt>
      <trkpt lat="47.27033" lon="-1.62358">
        <ele>43.88</ele>
        <time>2013-10-27T08:00:02Z</time>
      </trkpt>
      <trkpt lat="47.27029" lon="-1.6237">
        <ele>43.4</ele>
        <time>2013-10-27T08:00:08Z</time>
      </trkpt>
      <trkpt lat="47.27028" lon="-1.62386">
        <ele>42.92</ele>
        <time>2013-10-27T08:00:15Z</time>
      </trkpt>
      <trkpt lat="47.27025" lon="-1.62396">
        <ele>41.95</ele>
        <time>2013-10-27T08:00:34Z</time>
      </trkpt>
      <trkpt lat="47.27017" lon="-1.62409">
        <ele>40.51</ele>
        <time>2013-10-27T08:01:06Z</time>
      </trkpt>
      <trkpt lat="47.2701" lon="-1.62417">
        <ele>42.44</ele>
        <time>2013-10-27T08:01:11Z</time>
      </trkpt>
      <trkpt lat="47.27002" lon="-1.62424">
        <ele>44.36</ele>
        <time>2013-10-27T08:01:16Z</time>
      </trkpt>
      <trkpt lat="47.27001" lon="-1.62424">
        <ele>44.84</ele>
        <time>2013-10-27T08:01:24Z</time>
      </trkpt>
      <trkpt lat="47.27011" lon="-1.62415">
        <ele>46.76</ele>
        <time>2013-10-27T08:01:29Z</time>
      </trkpt>
      <trkpt lat="47.27019" lon="-1.62405">
        <ele>48.68</ele>
        <time>2013-10-27T08:01:34Z</time>
      </trkpt>
      <trkpt lat="47.27021" lon="-1.62403">
        <ele>42.44</ele>
        <time>2013-10-27T08:04:17Z</time>
      </trkpt>
      <trkpt lat="47.27026" lon="-1.62398">
        <ele>41.95</ele>
        <time>2013-10-27T08:05:13Z</time>
      </trkpt>
      <trkpt lat="47.27022" lon="-1.624">
        <ele>41.95</ele>
        <time>2013-10-27T08:05:21Z</time>
      </trkpt>
      <trkpt lat="47.27028" lon="-1.62394">
        <ele>43.88</ele>
        <time>2013-10-27T08:06:01Z</time>
      </trkpt>
      <trkpt lat="47.27037" lon="-1.62387">
        <ele>44.84</ele>
        <time>2013-10-27T08:06:04Z</time>
      </trkpt>
      <trkpt lat="47.27046" lon="-1.62383">
        <ele>44.84</ele>
        <time>2013-10-27T08:06:06Z</time>
      </trkpt>
      <trkpt lat="47.27052" lon="-1.62395">
        <ele>44.84</ele>
        <time>2013-10-27T08:06:09Z</time>
      </trkpt>
      <trkpt lat="47.27048" lon="-1.62407">
        <ele>44.84</ele>
        <time>2013-10-27T08:06:12Z</time>
      </trkpt>
      <trkpt lat="47.2704" lon="-1.62402">
        <ele>45.32</ele>
        <time>2013-10-27T08:06:16Z</time>
      </trkpt>
      <trkpt lat="47.2703" lon="-1.62396">
        <ele>44.84</ele>
        <time>2013-10-27T08:06:20Z</time>
      </trkpt>
      <trkpt lat="47.27023" lon="-1.624">
        <ele>45.32</ele>
        <time>2013-10-27T08:06:28Z</time>
      </trkpt>
      <trkpt lat="47.27024" lon="-1.62399">
        <ele>37.15</ele>
        <time>2013-10-27T08:09:26Z</time>
      </trkpt>
      <trkpt lat="47.2702" lon="-1.62395">
        <ele>40.03</ele>
        <time>2013-10-27T08:09:40Z</time>
      </trkpt>
      <trkpt lat="47.27025" lon="-1.62396">
        <ele>39.07</ele>
        <time>2013-10-27T08:11:33Z</time>
      </trkpt>
      <trkpt lat="47.27022" lon="-1.62406">
        <ele>40.03</ele>
        <time>2013-10-27T08:11:40Z</time>
      </trkpt>
      <trkpt lat="47.27013" lon="-1.62415">
        <ele>40.51</ele>
        <time>2013-10-27T08:11:46Z</time>
      </trkpt>
      <trkpt lat="47.27008" lon="-1.6242">
        <ele>40.03</ele>
        <time>2013-10-27T08:11:52Z</time>
      </trkpt>
      <trkpt lat="47.27013" lon="-1.6241">
        <ele>41.47</ele>
        <time>2013-10-27T08:11:59Z</time>
      </trkpt>
      <trkpt lat="47.27023" lon="-1.62401">
        <ele>41.47</ele>
        <time>2013-10-27T08:12:05Z</time>
      </trkpt>
      <trkpt lat="47.27019" lon="-1.6241">
        <ele>40.51</ele>
        <time>2013-10-27T08:12:09Z</time>
      </trkpt>
      <trkpt lat="47.2701" lon="-1.62417">
        <ele>40.51</ele>
        <time>2013-10-27T08:12:11Z</time>
      </trkpt>
      <trkpt lat="47.27002" lon="-1.62424">
        <ele>40.99</ele>
        <time>2013-10-27T08:12:13Z</time>
      </trkpt>
      <trkpt lat="47.2699" lon="-1.62429">
        <ele>40.51</ele>
        <time>2013-10-27T08:12:16Z</time>
      </trkpt>
      <trkpt lat="47.26979" lon="-1.62429">
        <ele>40.03</ele>
        <time>2013-10-27T08:12:19Z</time>
      </trkpt>
      <trkpt lat="47.26967" lon="-1.62427">
        <ele>38.59</ele>
        <time>2013-10-27T08:12:22Z</time>
      </trkpt>
      <trkpt lat="47.26957" lon="-1.62425">
        <ele>37.63</ele>
        <time>2013-10-27T08:12:24Z</time>
      </trkpt>
      <trkpt lat="47.26949" lon="-1.62427">
        <ele>35.71</ele>
        <time>2013-10-27T08:12:29Z</time>
      </trkpt>
      <trkpt lat="47.26947" lon="-1.62442">
        <ele>35.23</ele>
        <time>2013-10-27T08:12:34Z</time>
      </trkpt>
      <trkpt lat="47.2694" lon="-1.62452">
        <ele>33.78</ele>
        <time>2013-10-27T08:12:52Z</time>
      </trkpt>
      <trkpt lat="47.2693" lon="-1.62445">
        <ele>35.23</ele>
        <time>2013-10-27T08:13:03Z</time>
      </trkpt>
      <trkpt lat="47.26917" lon="-1.62433">
        <ele>34.26</ele>
        <time>2013-10-27T08:13:06Z</time>
      </trkpt>
      <trkpt lat="47.26903" lon="-1.62429">
        <ele>33.78</ele>
        <time>2013-10-27T08:13:08Z</time>
      </trkpt>
      <trkpt lat="47.26887" lon="-1.62426">
        <ele>32.82</ele>
        <time>2013-10-27T08:13:10Z</time>
      </trkpt>
      <trkpt lat="47.26876" lon="-1.62425">
        <ele>32.34</ele>
        <time>2013-10-27T08:13:12Z</time>
      </trkpt>
      <trkpt lat="47.26864" lon="-1.62418">
        <ele>30.9</ele>
        <time>2013-10-27T08:13:16Z</time>
      </trkpt>
      <trkpt lat="47.26855" lon="-1.62412">
        <ele>30.42</ele>
        <time>2013-10-27T08:13:18Z</time>
      </trkpt>
      <trkpt lat="47.26845" lon="-1.62404">
        <ele>29.94</ele>
        <time>2013-10-27T08:13:20Z</time>
      </trkpt>
      <trkpt lat="47.26836" lon="-1.62395">
        <ele>29.46</ele>
        <time>2013-10-27T08:13:22Z</time>
      </trkpt>
      <trkpt lat="47.26828" lon="-1.62388">
        <ele>28.5</ele>
        <time>2013-10-27T08:13:24Z</time>
      </trkpt>
      <trkpt lat="47.26819" lon="-1.62381">
        <ele>28.02</ele>
        <time>2013-10-27T08:13:26Z</time>
      </trkpt>
      <trkpt lat="47.26808" lon="-1.62373">
        <ele>27.53</ele>
        <time>2013-10-27T08:13:28Z</time>
      </trkpt>
      <trkpt lat="47.26796" lon="-1.62369">
        <ele>26.57</ele>
        <time>2013-10-27T08:13:30Z</time>
      </trkpt>
      <trkpt lat="47.26785" lon="-1.62363">
        <ele>25.13</ele>
        <time>2013-10-27T08:13:32Z</time>
      </trkpt>
      <trkpt lat="47.26778" lon="-1.6235">
        <ele>24.65</ele>
        <time>2013-10-27T08:13:34Z</time>
      </trkpt>
      <trkpt lat="47.26772" lon="-1.62334">
        <ele>23.21</ele>
        <time>2013-10-27T08:13:36Z</time>
      </trkpt>
      <trkpt lat="47.26764" lon="-1.62321">
        <ele>22.73</ele>
        <time>2013-10-27T08:13:38Z</time>
      </trkpt>
      <trkpt lat="47.26755" lon="-1.62313">
        <ele>26.09</ele>
        <time>2013-10-27T08:14:34Z</time>
      </trkpt>
      <trkpt lat="47.26761" lon="-1.6229">
        <ele>23.69</ele>
        <time>2013-10-27T08:14:38Z</time>
      </trkpt>
      <trkpt lat="47.26768" lon="-1.62276">
        <ele>22.73</ele>
        <time>2013-10-27T08:14:41Z</time>
      </trkpt>
      <trkpt lat="47.2677" lon="-1.62264">
        <ele>25.13</ele>
        <time>2013-10-27T08:14:48Z</time>
      </trkpt>
      <trkpt lat="47.2676" lon="-1.62256">
        <ele>27.05</ele>
        <time>2013-10-27T08:14:52Z</time>
      </trkpt>
      <trkpt lat="47.26756" lon="-1.62242">
        <ele>28.5</ele>
        <time>2013-10-27T08:14:55Z</time>
      </trkpt>
      <trkpt lat="47.26754" lon="-1.62228">
        <ele>29.46</ele>
        <time>2013-10-27T08:14:58Z</time>
      </trkpt>
      <trkpt lat="47.26755" lon="-1.62234">
        <ele>33.3</ele>
        <time>2013-10-27T08:15:07Z</time>
      </trkpt>
      <trkpt lat="47.2676" lon="-1.6225">
        <ele>34.26</ele>
        <time>2013-10-27T08:15:10Z</time>
      </trkpt>
      <trkpt lat="47.26771" lon="-1.62258">
        <ele>35.71</ele>
        <time>2013-10-27T08:15:14Z</time>
      </trkpt>
      <trkpt lat="47.26782" lon="-1.62255">
        <ele>34.74</ele>
        <time>2013-10-27T08:15:17Z</time>
      </trkpt>
      <trkpt lat="47.26793" lon="-1.62242">
        <ele>33.78</ele>
        <time>2013-10-27T08:15:20Z</time>
      </trkpt>
      <trkpt lat="47.26802" lon="-1.62234">
        <ele>32.82</ele>
        <time>2013-10-27T08:15:22Z</time>
      </trkpt>
      <trkpt lat="47.26812" lon="-1.62226">
        <ele>31.86</ele>
        <time>2013-10-27T08:15:24Z</time>
      </trkpt>
      <trkpt lat="47.26822" lon="-1.62222">
        <ele>30.9</ele>
        <time>2013-10-27T08:15:26Z</time>
      </trkpt>
      <trkpt lat="47.2683" lon="-1.62214">
        <ele>27.05</ele>
        <time>2013-10-27T08:15:30Z</time>
      </trkpt>
      <trkpt lat="47.2683" lon="-1.622">
        <ele>27.05</ele>
        <time>2013-10-27T08:15:33Z</time>
      </trkpt>
      <trkpt lat="47.26831" lon="-1.62184">
        <ele>27.05</ele>
        <time>2013-10-27T08:15:36Z</time>
      </trkpt>
      <trkpt lat="47.26832" lon="-1.62166">
        <ele>27.53</ele>
        <time>2013-10-27T08:15:39Z</time>
      </trkpt>
      <trkpt lat="47.26833" lon="-1.62147">
        <ele>27.53</ele>
        <time>2013-10-27T08:15:42Z</time>
      </trkpt>
      <trkpt lat="47.26833" lon="-1.62128">
        <ele>28.02</ele>
        <time>2013-10-27T08:15:45Z</time>
      </trkpt>
      <trkpt lat="47.26837" lon="-1.62116">
        <ele>28.98</ele>
        <time>2013-10-27T08:15:49Z</time>
      </trkpt>
      <trkpt lat="47.26847" lon="-1.62112">
        <ele>30.42</ele>
        <time>2013-10-27T08:15:53Z</time>
      </trkpt>
      <trkpt lat="47.26858" lon="-1.62107">
        <ele>32.34</ele>
        <time>2013-10-27T08:15:57Z</time>
      </trkpt>
      <trkpt lat="47.26868" lon="-1.62098">
        <ele>33.78</ele>
        <time>2013-10-27T08:16:02Z</time>
      </trkpt>
      <trkpt lat="47.26876" lon="-1.62089">
        <ele>33.78</ele>
        <time>2013-10-27T08:16:06Z</time>
      </trkpt>
      <trkpt lat="47.26885" lon="-1.62081">
        <ele>34.74</ele>
        <time>2013-10-27T08:16:11Z</time>
      </trkpt>
      <trkpt lat="47.26893" lon="-1.62072">
        <ele>35.23</ele>
        <time>2013-10-27T08:16:21Z</time>
      </trkpt>
      <trkpt lat="47.26887" lon="-1.62078">
        <ele>37.15</ele>
        <time>2013-10-27T08:16:25Z</time>
      </trkpt>
      <trkpt lat="47.26881" lon="-1.62071">
        <ele>40.03</ele>
        <time>2013-10-27T08:16:30Z</time>
      </trkpt>
      <trkpt lat="47.26882" lon="-1.62055">
        <ele>44.84</ele>
        <time>2013-10-27T08:16:36Z</time>
      </trkpt>
      <trkpt lat="47.26893" lon="-1.62041">
        <ele>48.68</ele>
        <time>2013-10-27T08:16:43Z</time>
      </trkpt>
      <trkpt lat="47.26905" lon="-1.62029">
        <ele>50.61</ele>
        <time>2013-10-27T08:16:50Z</time>
      </trkpt>
      <trkpt lat="47.26917" lon="-1.62018">
        <ele>53.97</ele>
        <time>2013-10-27T08:16:57Z</time>
      </trkpt>
      <trkpt lat="47.26928" lon="-1.62011">
        <ele>57.82</ele>
        <time>2013-10-27T08:17:03Z</time>
      </trkpt>
      <trkpt lat="47.26936" lon="-1.61987">
        <ele>55.41</ele>
        <time>2013-10-27T08:17:16Z</time>
      </trkpt>
      <trkpt lat="47.26925" lon="-1.61915">
        <ele>54.45</ele>
        <time>2013-10-27T08:18:20Z</time>
      </trkpt>
      <trkpt lat="47.2693" lon="-1.61925">
        <ele>53.97</ele>
        <time>2013-10-27T08:18:47Z</time>
      </trkpt>
      <trkpt lat="47.26934" lon="-1.6194">
        <ele>52.05</ele>
        <time>2013-10-27T08:18:53Z</time>
      </trkpt>
      <trkpt lat="47.2693" lon="-1.6195">
        <ele>50.13</ele>
        <time>2013-10-27T08:19:02Z</time>
      </trkpt>
      <trkpt lat="47.26918" lon="-1.61949">
        <ele>50.61</ele>
        <time>2013-10-27T08:19:10Z</time>
      </trkpt>
      <trkpt lat="47.26902" lon="-1.61948">
        <ele>50.61</ele>
        <time>2013-10-27T08:19:18Z</time>
      </trkpt>
      <trkpt lat="47.26888" lon="-1.61943">
        <ele>53.49</ele>
        <time>2013-10-27T08:19:25Z</time>
      </trkpt>
      <trkpt lat="47.26876" lon="-1.6194">
        <ele>56.86</ele>
        <time>2013-10-27T08:19:31Z</time>
      </trkpt>
      <trkpt lat="47.26864" lon="-1.61942">
        <ele>60.7</ele>
        <time>2013-10-27T08:19:40Z</time>
      </trkpt>
      <trkpt lat="47.2686" lon="-1.61929">
        <ele>61.66</ele>
        <time>2013-10-27T08:19:49Z</time>
      </trkpt>
      <trkpt lat="47.26862" lon="-1.61911">
        <ele>61.66</ele>
        <time>2013-10-27T08:19:56Z</time>
      </trkpt>
      <trkpt lat="47.26861" lon="-1.61894">
        <ele>61.66</ele>
        <time>2013-10-27T08:20:01Z</time>
      </trkpt>
      <trkpt lat="47.2686" lon="-1.61875">
        <ele>61.18</ele>
        <time>2013-10-27T08:20:07Z</time>
      </trkpt>
      <trkpt lat="47.26866" lon="-1.61857">
        <ele>61.66</ele>
        <time>2013-10-27T08:20:15Z</time>
      </trkpt>
      <trkpt lat="47.26869" lon="-1.61838">
        <ele>61.66</ele>
        <time>2013-10-27T08:20:21Z</time>
      </trkpt>
      <trkpt lat="47.26871" lon="-1.61804">
        <ele>61.18</ele>
        <time>2013-10-27T08:20:31Z</time>
      </trkpt>
      <trkpt lat="47.26873" lon="-1.61779">
        <ele>62.62</ele>
        <time>2013-10-27T08:20:42Z</time>
      </trkpt>
      <trkpt lat="47.26875" lon="-1.61744">
        <ele>62.14</ele>
        <time>2013-10-27T08:21:15Z</time>
      </trkpt>
      <trkpt lat="47.26865" lon="-1.6175">
        <ele>61.18</ele>
        <time>2013-10-27T08:21:19Z</time>
      </trkpt>
      <trkpt lat="47.26854" lon="-1.61748">
        <ele>59.26</ele>
        <time>2013-10-27T08:21:25Z</time>
      </trkpt>
      <trkpt lat="47.26841" lon="-1.61748">
        <ele>58.3</ele>
        <time>2013-10-27T08:21:31Z</time>
      </trkpt>
      <trkpt lat="47.2683" lon="-1.6174">
        <ele>58.78</ele>
        <time>2013-10-27T08:21:36Z</time>
      </trkpt>
      <trkpt lat="47.2682" lon="-1.61722">
        <ele>61.18</ele>
        <time>2013-10-27T08:21:44Z</time>
      </trkpt>
      <trkpt lat="47.26812" lon="-1.61709">
        <ele>65.03</ele>
        <time>2013-10-27T08:21:50Z</time>
      </trkpt>
      <trkpt lat="47.26803" lon="-1.61709">
        <ele>64.55</ele>
        <time>2013-10-27T08:21:56Z</time>
      </trkpt>
      <trkpt lat="47.26788" lon="-1.61713">
        <ele>58.3</ele>
        <time>2013-10-27T08:22:14Z</time>
      </trkpt>
      <trkpt lat="47.26779" lon="-1.61721">
        <ele>55.41</ele>
        <time>2013-10-27T08:22:21Z</time>
      </trkpt>
      <trkpt lat="47.26766" lon="-1.61718">
        <ele>53.49</ele>
        <time>2013-10-27T08:22:31Z</time>
      </trkpt>
      <trkpt lat="47.26755" lon="-1.6171">
        <ele>52.53</ele>
        <time>2013-10-27T08:22:37Z</time>
      </trkpt>
      <trkpt lat="47.26743" lon="-1.61691">
        <ele>51.09</ele>
        <time>2013-10-27T08:23:04Z</time>
      </trkpt>
      <trkpt lat="47.26732" lon="-1.61676">
        <ele>48.68</ele>
        <time>2013-10-27T08:24:29Z</time>
      </trkpt>
      <trkpt lat="47.2672" lon="-1.61673">
        <ele>48.68</ele>
        <time>2013-10-27T08:24:35Z</time>
      </trkpt>
      <trkpt lat="47.26707" lon="-1.61664">
        <ele>50.13</ele>
        <time>2013-10-27T08:24:38Z</time>
      </trkpt>
      <trkpt lat="47.26698" lon="-1.61657">
        <ele>51.09</ele>
        <time>2013-10-27T08:24:40Z</time>
      </trkpt>
      <trkpt lat="47.26687" lon="-1.61654">
        <ele>51.57</ele>
        <time>2013-10-27T08:24:43Z</time>
      </trkpt>
      <trkpt lat="47.26679" lon="-1.61651">
        <ele>51.57</ele>
        <time>2013-10-27T08:24:46Z</time>
      </trkpt>
      <trkpt lat="47.26667" lon="-1.61646">
        <ele>50.61</ele>
        <time>2013-10-27T08:24:50Z</time>
      </trkpt>
      <trkpt lat="47.26662" lon="-1.61633">
        <ele>50.61</ele>
        <time>2013-10-27T08:24:56Z</time>
      </trkpt>
      <trkpt lat="47.26651" lon="-1.61611">
        <ele>52.53</ele>
        <time>2013-10-27T08:25:10Z</time>
      </trkpt>
      <trkpt lat="47.26644" lon="-1.61593">
        <ele>55.41</ele>
        <time>2013-10-27T08:25:15Z</time>
      </trkpt>
      <trkpt lat="47.26639" lon="-1.61572">
        <ele>58.3</ele>
        <time>2013-10-27T08:25:19Z</time>
      </trkpt>
      <trkpt lat="47.26633" lon="-1.6155">
        <ele>62.14</ele>
        <time>2013-10-27T08:25:26Z</time>
      </trkpt>
      <trkpt lat="47.26622" lon="-1.61537">
        <ele>64.55</ele>
        <time>2013-10-27T08:25:31Z</time>
      </trkpt>
      <trkpt lat="47.2661" lon="-1.6153">
        <ele>65.03</ele>
        <time>2013-10-27T08:25:35Z</time>
      </trkpt>
      <trkpt lat="47.26596" lon="-1.61529">
        <ele>64.07</ele>
        <time>2013-10-27T08:25:39Z</time>
      </trkpt>
      <trkpt lat="47.26582" lon="-1.61519">
        <ele>61.18</ele>
        <time>2013-10-27T08:25:45Z</time>
      </trkpt>
      <trkpt lat="47.26568" lon="-1.61521">
        <ele>57.34</ele>
        <time>2013-10-27T08:25:51Z</time>
      </trkpt>
      <trkpt lat="47.2655" lon="-1.61517">
        <ele>44.84</ele>
        <time>2013-10-27T08:26:48Z</time>
      </trkpt>
      <trkpt lat="47.26548" lon="-1.61502">
        <ele>45.32</ele>
        <time>2013-10-27T08:26:52Z</time>
      </trkpt>
      <trkpt lat="47.26542" lon="-1.6149">
        <ele>46.28</ele>
        <time>2013-10-27T08:26:58Z</time>
      </trkpt>
      <trkpt lat="47.26534" lon="-1.61495">
        <ele>46.76</ele>
        <time>2013-10-27T08:27:06Z</time>
      </trkpt>
      <trkpt lat="47.26523" lon="-1.61492">
        <ele>46.76</ele>
        <time>2013-10-27T08:27:11Z</time>
      </trkpt>
      <trkpt lat="47.26512" lon="-1.61487">
        <ele>47.24</ele>
        <time>2013-10-27T08:27:15Z</time>
      </trkpt>
      <trkpt lat="47.26503" lon="-1.61479">
        <ele>48.68</ele>
        <time>2013-10-27T08:27:18Z</time>
      </trkpt>
      <trkpt lat="47.26493" lon="-1.61469">
        <ele>50.61</ele>
        <time>2013-10-27T08:27:21Z</time>
      </trkpt>
      <trkpt lat="47.2648" lon="-1.61461">
        <ele>52.53</ele>
        <time>2013-10-27T08:27:24Z</time>
      </trkpt>
      <trkpt lat="47.2647" lon="-1.61458">
        <ele>54.93</ele>
        <time>2013-10-27T08:27:27Z</time>
      </trkpt>
      <trkpt lat="47.26458" lon="-1.61456">
        <ele>57.82</ele>
        <time>2013-10-27T08:27:31Z</time>
      </trkpt>
      <trkpt lat="47.26446" lon="-1.61452">
        <ele>60.7</ele>
        <time>2013-10-27T08:27:35Z</time>
      </trkpt>
      <trkpt lat="47.26423" lon="-1.61434">
        <ele>54.45</ele>
        <time>2013-10-27T08:28:30Z</time>
      </trkpt>
      <trkpt lat="47.26412" lon="-1.61436">
        <ele>52.53</ele>
        <time>2013-10-27T08:28:33Z</time>
      </trkpt>
      <trkpt lat="47.26401" lon="-1.61432">
        <ele>50.13</ele>
        <time>2013-10-27T08:28:35Z</time>
      </trkpt>
      <trkpt lat="47.26391" lon="-1.61417">
        <ele>45.8</ele>
        <time>2013-10-27T08:28:38Z</time>
      </trkpt>
      <trkpt lat="47.26382" lon="-1.61403">
        <ele>40.99</ele>
        <time>2013-10-27T08:28:41Z</time>
      </trkpt>
      <trkpt lat="47.26374" lon="-1.61387">
        <ele>35.23</ele>
        <time>2013-10-27T08:28:44Z</time>
      </trkpt>
      <trkpt lat="47.26369" lon="-1.61374">
        <ele>30.42</ele>
        <time>2013-10-27T08:28:47Z</time>
      </trkpt>
      <trkpt lat="47.26371" lon="-1.61359">
        <ele>28.02</ele>
        <time>2013-10-27T08:28:50Z</time>
      </trkpt>
      <trkpt lat="47.26374" lon="-1.61342">
        <ele>25.61</ele>
        <time>2013-10-27T08:28:53Z</time>
      </trkpt>
      <trkpt lat="47.26376" lon="-1.61327">
        <ele>24.17</ele>
        <time>2013-10-27T08:28:56Z</time>
      </trkpt>
      <trkpt lat="47.26379" lon="-1.61312">
        <ele>23.21</ele>
        <time>2013-10-27T08:28:59Z</time>
      </trkpt>
      <trkpt lat="47.26381" lon="-1.61299">
        <ele>22.73</ele>
        <time>2013-10-27T08:29:02Z</time>
      </trkpt>
      <trkpt lat="47.26384" lon="-1.61284">
        <ele>21.77</ele>
        <time>2013-10-27T08:29:05Z</time>
      </trkpt>
      <trkpt lat="47.26388" lon="-1.6127">
        <ele>21.29</ele>
        <time>2013-10-27T08:29:08Z</time>
      </trkpt>
      <trkpt lat="47.26395" lon="-1.61255">
        <ele>20.32</ele>
        <time>2013-10-27T08:29:11Z</time>
      </trkpt>
      <trkpt lat="47.26405" lon="-1.61243">
        <ele>18.4</ele>
        <time>2013-10-27T08:29:14Z</time>
      </trkpt>
      <trkpt lat="47.26415" lon="-1.61232">
        <ele>17.44</ele>
        <time>2013-10-27T08:29:17Z</time>
      </trkpt>
      <trkpt lat="47.26424" lon="-1.61222">
        <ele>17.44</ele>
        <time>2013-10-27T08:29:20Z</time>
      </trkpt>
      <trkpt lat="47.26434" lon="-1.61213">
        <ele>17.44</ele>
        <time>2013-10-27T08:29:23Z</time>
      </trkpt>
      <trkpt lat="47.26444" lon="-1.61197">
        <ele>16.48</ele>
        <time>2013-10-27T08:29:26Z</time>
      </trkpt>
      <trkpt lat="47.26449" lon="-1.61185">
        <ele>16</ele>
        <time>2013-10-27T08:29:28Z</time>
      </trkpt>
      <trkpt lat="47.26456" lon="-1.61166">
        <ele>15.04</ele>
        <time>2013-10-27T08:29:31Z</time>
      </trkpt>
      <trkpt lat="47.26462" lon="-1.61147">
        <ele>14.56</ele>
        <time>2013-10-27T08:29:34Z</time>
      </trkpt>
      <trkpt lat="47.26467" lon="-1.61135">
        <ele>14.08</ele>
        <time>2013-10-27T08:29:36Z</time>
      </trkpt>
      <trkpt lat="47.26473" lon="-1.61115">
        <ele>14.08</ele>
        <time>2013-10-27T08:29:39Z</time>
      </trkpt>
      <trkpt lat="47.26475" lon="-1.61101">
        <ele>13.6</ele>
        <time>2013-10-27T08:29:41Z</time>
      </trkpt>
      <trkpt lat="47.26475" lon="-1.61087">
        <ele>14.08</ele>
        <time>2013-10-27T08:29:43Z</time>
      </trkpt>
      <trkpt lat="47.26475" lon="-1.61074">
        <ele>13.6</ele>
        <time>2013-10-27T08:29:45Z</time>
      </trkpt>
      <trkpt lat="47.26475" lon="-1.61059">
        <ele>13.6</ele>
        <time>2013-10-27T08:29:47Z</time>
      </trkpt>
      <trkpt lat="47.26475" lon="-1.61045">
        <ele>13.12</ele>
        <time>2013-10-27T08:29:49Z</time>
      </trkpt>
      <trkpt lat="47.26474" lon="-1.6103">
        <ele>13.12</ele>
        <time>2013-10-27T08:29:51Z</time>
      </trkpt>
      <trkpt lat="47.26474" lon="-1.61015">
        <ele>12.63</ele>
        <time>2013-10-27T08:29:53Z</time>
      </trkpt>
      <trkpt lat="47.26472" lon="-1.61001">
        <ele>12.63</ele>
        <time>2013-10-27T08:29:55Z</time>
      </trkpt>
      <trkpt lat="47.26469" lon="-1.60987">
        <ele>12.15</ele>
        <time>2013-10-27T08:29:57Z</time>
      </trkpt>
      <trkpt lat="47.26466" lon="-1.60974">
        <ele>12.15</ele>
        <time>2013-10-27T08:29:59Z</time>
      </trkpt>
      <trkpt lat="47.2646" lon="-1.60962">
        <ele>11.67</ele>
        <time>2013-10-27T08:30:01Z</time>
      </trkpt>
      <trkpt lat="47.26454" lon="-1.60951">
        <ele>11.19</ele>
        <time>2013-10-27T08:30:03Z</time>
      </trkpt>
      <trkpt lat="47.26447" lon="-1.6094">
        <ele>11.19</ele>
        <time>2013-10-27T08:30:05Z</time>
      </trkpt>
      <trkpt lat="47.26441" lon="-1.60929">
        <ele>10.71</ele>
        <time>2013-10-27T08:30:07Z</time>
      </trkpt>
      <trkpt lat="47.26435" lon="-1.60917">
        <ele>10.71</ele>
        <time>2013-10-27T08:30:09Z</time>
      </trkpt>
      <trkpt lat="47.26428" lon="-1.60906">
        <ele>10.23</ele>
        <time>2013-10-27T08:30:11Z</time>
      </trkpt>
      <trkpt lat="47.26422" lon="-1.60895">
        <ele>10.71</ele>
        <time>2013-10-27T08:30:13Z</time>
      </trkpt>
      <trkpt lat="47.26416" lon="-1.60884">
        <ele>10.71</ele>
        <time>2013-10-27T08:30:15Z</time>
      </trkpt>
      <trkpt lat="47.26411" lon="-1.60873">
        <ele>10.71</ele>
        <time>2013-10-27T08:30:17Z</time>
      </trkpt>
      <trkpt lat="47.26402" lon="-1.60857">
        <ele>10.23</ele>
        <time>2013-10-27T08:30:20Z</time>
      </trkpt>
      <trkpt lat="47.26398" lon="-1.60845">
        <ele>9.75</ele>
        <time>2013-10-27T08:30:22Z</time>
      </trkpt>
      <trkpt lat="47.26392" lon="-1.60827">
        <ele>9.27</ele>
        <time>2013-10-27T08:30:25Z</time>
      </trkpt>
      <trkpt lat="47.26388" lon="-1.60814">
        <ele>9.27</ele>
        <time>2013-10-27T08:30:27Z</time>
      </trkpt>
      <trkpt lat="47.26379" lon="-1.60803">
        <ele>9.27</ele>
        <time>2013-10-27T08:30:30Z</time>
      </trkpt>
      <trkpt lat="47.2637" lon="-1.60809">
        <ele>10.23</ele>
        <time>2013-10-27T08:30:33Z</time>
      </trkpt>
      <trkpt lat="47.2636" lon="-1.60818">
        <ele>11.19</ele>
        <time>2013-10-27T08:30:36Z</time>
      </trkpt>
      <trkpt lat="47.26352" lon="-1.60826">
        <ele>11.67</ele>
        <time>2013-10-27T08:30:39Z</time>
      </trkpt>
      <trkpt lat="47.26346" lon="-1.60834">
        <ele>12.15</ele>
        <time>2013-10-27T08:30:42Z</time>
      </trkpt>
      <trkpt lat="47.26338" lon="-1.60846">
        <ele>13.12</ele>
        <time>2013-10-27T08:30:46Z</time>
      </trkpt>
      <trkpt lat="47.26331" lon="-1.60857">
        <ele>13.12</ele>
        <time>2013-10-27T08:30:50Z</time>
      </trkpt>
      <trkpt lat="47.26327" lon="-1.60851">
        <ele>13.12</ele>
        <time>2013-10-27T08:30:54Z</time>
      </trkpt>
      <trkpt lat="47.26331" lon="-1.60835">
        <ele>12.63</ele>
        <time>2013-10-27T08:30:58Z</time>
      </trkpt>
      <trkpt lat="47.26336" lon="-1.60818">
        <ele>11.67</ele>
        <time>2013-10-27T08:31:01Z</time>
      </trkpt>
      <trkpt lat="47.26339" lon="-1.60805">
        <ele>11.19</ele>
        <time>2013-10-27T08:31:03Z</time>
      </trkpt>
      <trkpt lat="47.26342" lon="-1.60791">
        <ele>10.71</ele>
        <time>2013-10-27T08:31:05Z</time>
      </trkpt>
      <trkpt lat="47.26346" lon="-1.60776">
        <ele>10.23</ele>
        <time>2013-10-27T08:31:07Z</time>
      </trkpt>
      <trkpt lat="47.2635" lon="-1.6076">
        <ele>9.75</ele>
        <time>2013-10-27T08:31:09Z</time>
      </trkpt>
      <trkpt lat="47.26354" lon="-1.60744">
        <ele>9.27</ele>
        <time>2013-10-27T08:31:11Z</time>
      </trkpt>
      <trkpt lat="47.26358" lon="-1.60728">
        <ele>8.79</ele>
        <time>2013-10-27T08:31:13Z</time>
      </trkpt>
      <trkpt lat="47.26361" lon="-1.60713">
        <ele>9.27</ele>
        <time>2013-10-27T08:31:15Z</time>
      </trkpt>
      <trkpt lat="47.26364" lon="-1.60699">
        <ele>9.75</ele>
        <time>2013-10-27T08:31:17Z</time>
      </trkpt>
      <trkpt lat="47.26363" lon="-1.60685">
        <ele>9.27</ele>
        <time>2013-10-27T08:31:19Z</time>
      </trkpt>
      <trkpt lat="47.26358" lon="-1.60674">
        <ele>8.31</ele>
        <time>2013-10-27T08:31:21Z</time>
      </trkpt>
      <trkpt lat="47.2635" lon="-1.60662">
        <ele>7.35</ele>
        <time>2013-10-27T08:31:24Z</time>
      </trkpt>
      <trkpt lat="47.26342" lon="-1.60649">
        <ele>6.39</ele>
        <time>2013-10-27T08:31:27Z</time>
      </trkpt>
      <trkpt lat="47.26329" lon="-1.60641">
        <ele>5.91</ele>
        <time>2013-10-27T08:31:30Z</time>
      </trkpt>
      <trkpt lat="47.26321" lon="-1.60651">
        <ele>6.87</ele>
        <time>2013-10-27T08:31:35Z</time>
      </trkpt>
      <trkpt lat="47.26314" lon="-1.60642">
        <ele>6.39</ele>
        <time>2013-10-27T08:31:38Z</time>
      </trkpt>
      <trkpt lat="47.26309" lon="-1.60629">
        <ele>6.87</ele>
        <time>2013-10-27T08:31:41Z</time>
      </trkpt>
      <trkpt lat="47.26302" lon="-1.60617">
        <ele>6.87</ele>
        <time>2013-10-27T08:31:44Z</time>
      </trkpt>
      <trkpt lat="47.26294" lon="-1.60609">
        <ele>7.35</ele>
        <time>2013-10-27T08:31:47Z</time>
      </trkpt>
      <trkpt lat="47.26283" lon="-1.60609">
        <ele>7.35</ele>
        <time>2013-10-27T08:31:51Z</time>
      </trkpt>
      <trkpt lat="47.26279" lon="-1.60596">
        <ele>10.71</ele>
        <time>2013-10-27T08:31:57Z</time>
      </trkpt>
      <trkpt lat="47.2628" lon="-1.60579">
        <ele>12.63</ele>
        <time>2013-10-27T08:32:01Z</time>
      </trkpt>
      <trkpt lat="47.26281" lon="-1.60563">
        <ele>13.6</ele>
        <time>2013-10-27T08:32:04Z</time>
      </trkpt>
      <trkpt lat="47.26282" lon="-1.60546">
        <ele>14.56</ele>
        <time>2013-10-27T08:32:07Z</time>
      </trkpt>
      <trkpt lat="47.26283" lon="-1.6053">
        <ele>15.04</ele>
        <time>2013-10-27T08:32:10Z</time>
      </trkpt>
      <trkpt lat="47.26281" lon="-1.60516">
        <ele>16.96</ele>
        <time>2013-10-27T08:32:13Z</time>
      </trkpt>
      <trkpt lat="47.26278" lon="-1.60501">
        <ele>19.36</ele>
        <time>2013-10-27T08:32:16Z</time>
      </trkpt>
      <trkpt lat="47.26273" lon="-1.60487">
        <ele>21.77</ele>
        <time>2013-10-27T08:32:19Z</time>
      </trkpt>
      <trkpt lat="47.26273" lon="-1.60469">
        <ele>23.69</ele>
        <time>2013-10-27T08:32:23Z</time>
      </trkpt>
      <trkpt lat="47.26276" lon="-1.60453">
        <ele>24.65</ele>
        <time>2013-10-27T08:32:28Z</time>
      </trkpt>
      <trkpt lat="47.26279" lon="-1.60434">
        <ele>23.69</ele>
        <time>2013-10-27T08:32:35Z</time>
      </trkpt>
      <trkpt lat="47.26282" lon="-1.60416">
        <ele>24.17</ele>
        <time>2013-10-27T08:32:41Z</time>
      </trkpt>
      <trkpt lat="47.26286" lon="-1.60398">
        <ele>25.61</ele>
        <time>2013-10-27T08:32:47Z</time>
      </trkpt>
      <trkpt lat="47.26295" lon="-1.6037">
        <ele>29.46</ele>
        <time>2013-10-27T08:32:56Z</time>
      </trkpt>
      <trkpt lat="47.26299" lon="-1.60332">
        <ele>32.82</ele>
        <time>2013-10-27T08:33:17Z</time>
      </trkpt>
      <trkpt lat="47.2629" lon="-1.6032">
        <ele>37.15</ele>
        <time>2013-10-27T08:33:26Z</time>
      </trkpt>
      <trkpt lat="47.26278" lon="-1.60303">
        <ele>47.72</ele>
        <time>2013-10-27T08:33:57Z</time>
      </trkpt>
      <trkpt lat="47.26258" lon="-1.60282">
        <ele>52.05</ele>
        <time>2013-10-27T08:34:49Z</time>
      </trkpt>
      <trkpt lat="47.26245" lon="-1.60276">
        <ele>54.45</ele>
        <time>2013-10-27T08:34:59Z</time>
      </trkpt>
      <trkpt lat="47.26231" lon="-1.60266">
        <ele>57.34</ele>
        <time>2013-10-27T08:35:09Z</time>
      </trkpt>
      <trkpt lat="47.26201" lon="-1.60263">
        <ele>58.3</ele>
        <time>2013-10-27T08:35:30Z</time>
      </trkpt>
      <trkpt lat="47.26181" lon="-1.60269">
        <ele>53.49</ele>
        <time>2013-10-27T08:35:36Z</time>
      </trkpt>
      <trkpt lat="47.26169" lon="-1.6027">
        <ele>51.09</ele>
        <time>2013-10-27T08:35:42Z</time>
      </trkpt>
      <trkpt lat="47.26157" lon="-1.60266">
        <ele>49.65</ele>
        <time>2013-10-27T08:35:50Z</time>
      </trkpt>
      <trkpt lat="47.26155" lon="-1.60252">
        <ele>40.99</ele>
        <time>2013-10-27T08:36:18Z</time>
      </trkpt>
      <trkpt lat="47.26166" lon="-1.60251">
        <ele>35.71</ele>
        <time>2013-10-27T08:36:26Z</time>
      </trkpt>
      <trkpt lat="47.2618" lon="-1.60247">
        <ele>32.82</ele>
        <time>2013-10-27T08:36:32Z</time>
      </trkpt>
      <trkpt lat="47.26192" lon="-1.60245">
        <ele>33.3</ele>
        <time>2013-10-27T08:36:36Z</time>
      </trkpt>
      <trkpt lat="47.26206" lon="-1.60242">
        <ele>32.34</ele>
        <time>2013-10-27T08:36:41Z</time>
      </trkpt>
      <trkpt lat="47.26207" lon="-1.6023">
        <ele>31.38</ele>
        <time>2013-10-27T08:36:53Z</time>
      </trkpt>
      <trkpt lat="47.26202" lon="-1.60215">
        <ele>31.86</ele>
        <time>2013-10-27T08:36:58Z</time>
      </trkpt>
      <trkpt lat="47.26196" lon="-1.60197">
        <ele>32.82</ele>
        <time>2013-10-27T08:37:03Z</time>
      </trkpt>
      <trkpt lat="47.2619" lon="-1.60181">
        <ele>34.26</ele>
        <time>2013-10-27T08:37:09Z</time>
      </trkpt>
      <trkpt lat="47.26185" lon="-1.60163">
        <ele>34.74</ele>
        <time>2013-10-27T08:37:15Z</time>
      </trkpt>
      <trkpt lat="47.26194" lon="-1.60151">
        <ele>35.71</ele>
        <time>2013-10-27T08:37:19Z</time>
      </trkpt>
      <trkpt lat="47.26203" lon="-1.60125">
        <ele>38.11</ele>
        <time>2013-10-27T08:37:35Z</time>
      </trkpt>
      <trkpt lat="47.26191" lon="-1.60088">
        <ele>46.76</ele>
        <time>2013-10-27T08:37:51Z</time>
      </trkpt>
      <trkpt lat="47.26188" lon="-1.60067">
        <ele>48.68</ele>
        <time>2013-10-27T08:37:57Z</time>
      </trkpt>
      <trkpt lat="47.2618" lon="-1.60045">
        <ele>48.2</ele>
        <time>2013-10-27T08:38:03Z</time>
      </trkpt>
      <trkpt lat="47.2618" lon="-1.60026">
        <ele>49.16</ele>
        <time>2013-10-27T08:38:09Z</time>
      </trkpt>
      <trkpt lat="47.26178" lon="-1.60008">
        <ele>47.72</ele>
        <time>2013-10-27T08:38:14Z</time>
      </trkpt>
      <trkpt lat="47.26182" lon="-1.59991">
        <ele>47.72</ele>
        <time>2013-10-27T08:38:18Z</time>
      </trkpt>
      <trkpt lat="47.26184" lon="-1.59974">
        <ele>48.2</ele>
        <time>2013-10-27T08:38:21Z</time>
      </trkpt>
      <trkpt lat="47.26187" lon="-1.59958">
        <ele>48.2</ele>
        <time>2013-10-27T08:38:24Z</time>
      </trkpt>
      <trkpt lat="47.26188" lon="-1.59939">
        <ele>48.68</ele>
        <time>2013-10-27T08:38:27Z</time>
      </trkpt>
      <trkpt lat="47.26189" lon="-1.59921">
        <ele>48.68</ele>
        <time>2013-10-27T08:38:30Z</time>
      </trkpt>
      <trkpt lat="47.26191" lon="-1.59901">
        <ele>48.68</ele>
        <time>2013-10-27T08:38:34Z</time>
      </trkpt>
      <trkpt lat="47.26201" lon="-1.59882">
        <ele>49.16</ele>
        <time>2013-10-27T08:38:40Z</time>
      </trkpt>
      <trkpt lat="47.26209" lon="-1.59872">
        <ele>49.16</ele>
        <time>2013-10-27T08:38:43Z</time>
      </trkpt>
      <trkpt lat="47.26218" lon="-1.5986">
        <ele>49.65</ele>
        <time>2013-10-27T08:38:47Z</time>
      </trkpt>
      <trkpt lat="47.26229" lon="-1.5985">
        <ele>49.65</ele>
        <time>2013-10-27T08:38:51Z</time>
      </trkpt>
      <trkpt lat="47.26239" lon="-1.59838">
        <ele>49.65</ele>
        <time>2013-10-27T08:38:54Z</time>
      </trkpt>
      <trkpt lat="47.26243" lon="-1.59825">
        <ele>48.68</ele>
        <time>2013-10-27T08:38:59Z</time>
      </trkpt>
      <trkpt lat="47.26239" lon="-1.59812">
        <ele>47.24</ele>
        <time>2013-10-27T08:39:03Z</time>
      </trkpt>
      <trkpt lat="47.26232" lon="-1.59796">
        <ele>46.28</ele>
        <time>2013-10-27T08:39:07Z</time>
      </trkpt>
      <trkpt lat="47.26224" lon="-1.59784">
        <ele>44.84</ele>
        <time>2013-10-27T08:39:10Z</time>
      </trkpt>
      <trkpt lat="47.26222" lon="-1.59758">
        <ele>25.13</ele>
        <time>2013-10-27T08:39:13Z</time>
      </trkpt>
      <trkpt lat="47.26214" lon="-1.59744">
        <ele>21.29</ele>
        <time>2013-10-27T08:39:16Z</time>
      </trkpt>
      <trkpt lat="47.26205" lon="-1.59735">
        <ele>20.81</ele>
        <time>2013-10-27T08:39:19Z</time>
      </trkpt>
      <trkpt lat="47.26193" lon="-1.59729">
        <ele>20.81</ele>
        <time>2013-10-27T08:39:22Z</time>
      </trkpt>
      <trkpt lat="47.26179" lon="-1.59724">
        <ele>20.81</ele>
        <time>2013-10-27T08:39:25Z</time>
      </trkpt>
      <trkpt lat="47.26166" lon="-1.59721">
        <ele>20.81</ele>
        <time>2013-10-27T08:39:28Z</time>
      </trkpt>
      <trkpt lat="47.26154" lon="-1.59719">
        <ele>20.32</ele>
        <time>2013-10-27T08:39:31Z</time>
      </trkpt>
      <trkpt lat="47.2614" lon="-1.59716">
        <ele>20.32</ele>
        <time>2013-10-27T08:39:34Z</time>
      </trkpt>
      <trkpt lat="47.26131" lon="-1.59713">
        <ele>19.84</ele>
        <time>2013-10-27T08:39:36Z</time>
      </trkpt>
      <trkpt lat="47.26121" lon="-1.5971">
        <ele>19.36</ele>
        <time>2013-10-27T08:39:38Z</time>
      </trkpt>
      <trkpt lat="47.26111" lon="-1.59708">
        <ele>18.88</ele>
        <time>2013-10-27T08:39:40Z</time>
      </trkpt>
      <trkpt lat="47.26101" lon="-1.59705">
        <ele>18.4</ele>
        <time>2013-10-27T08:39:42Z</time>
      </trkpt>
      <trkpt lat="47.26091" lon="-1.59702">
        <ele>17.92</ele>
        <time>2013-10-27T08:39:44Z</time>
      </trkpt>
      <trkpt lat="47.26081" lon="-1.59698">
        <ele>17.44</ele>
        <time>2013-10-27T08:39:46Z</time>
      </trkpt>
      <trkpt lat="47.26072" lon="-1.59692">
        <ele>16.96</ele>
        <time>2013-10-27T08:39:48Z</time>
      </trkpt>
      <trkpt lat="47.26062" lon="-1.59685">
        <ele>17.44</ele>
        <time>2013-10-27T08:39:50Z</time>
      </trkpt>
      <trkpt lat="47.26053" lon="-1.59677">
        <ele>16.96</ele>
        <time>2013-10-27T08:39:52Z</time>
      </trkpt>
      <trkpt lat="47.26045" lon="-1.5967">
        <ele>16.96</ele>
        <time>2013-10-27T08:39:54Z</time>
      </trkpt>
      <trkpt lat="47.26034" lon="-1.5966">
        <ele>16.48</ele>
        <time>2013-10-27T08:39:57Z</time>
      </trkpt>
      <trkpt lat="47.26025" lon="-1.59654">
        <ele>16.96</ele>
        <time>2013-10-27T08:40:00Z</time>
      </trkpt>
      <trkpt lat="47.26017" lon="-1.59648">
        <ele>16.48</ele>
        <time>2013-10-27T08:40:05Z</time>
      </trkpt>
      <trkpt lat="47.26008" lon="-1.5964">
        <ele>16</ele>
        <time>2013-10-27T08:40:12Z</time>
      </trkpt>
      <trkpt lat="47.26002" lon="-1.59628">
        <ele>16.48</ele>
        <time>2013-10-27T08:40:20Z</time>
      </trkpt>
      <trkpt lat="47.26011" lon="-1.59623">
        <ele>17.44</ele>
        <time>2013-10-27T08:40:24Z</time>
      </trkpt>
      <trkpt lat="47.26022" lon="-1.59621">
        <ele>18.4</ele>
        <time>2013-10-27T08:40:28Z</time>
      </trkpt>
      <trkpt lat="47.26032" lon="-1.5962">
        <ele>19.36</ele>
        <time>2013-10-27T08:40:32Z</time>
      </trkpt>
      <trkpt lat="47.26041" lon="-1.59614">
        <ele>19.36</ele>
        <time>2013-10-27T08:40:37Z</time>
      </trkpt>
      <trkpt lat="47.26044" lon="-1.596">
        <ele>20.32</ele>
        <time>2013-10-27T08:40:44Z</time>
      </trkpt>
      <trkpt lat="47.26042" lon="-1.59586">
        <ele>22.25</ele>
        <time>2013-10-27T08:40:49Z</time>
      </trkpt>
      <trkpt lat="47.26041" lon="-1.59568">
        <ele>25.13</ele>
        <time>2013-10-27T08:40:55Z</time>
      </trkpt>
      <trkpt lat="47.26042" lon="-1.5955">
        <ele>27.53</ele>
        <time>2013-10-27T08:41:02Z</time>
      </trkpt>
      <trkpt lat="47.2605" lon="-1.59534">
        <ele>28.02</ele>
        <time>2013-10-27T08:41:08Z</time>
      </trkpt>
      <trkpt lat="47.26052" lon="-1.59515">
        <ele>26.57</ele>
        <time>2013-10-27T08:41:15Z</time>
      </trkpt>
      <trkpt lat="47.26052" lon="-1.59492">
        <ele>27.05</ele>
        <time>2013-10-27T08:41:23Z</time>
      </trkpt>
      <trkpt lat="47.26046" lon="-1.59474">
        <ele>27.53</ele>
        <time>2013-10-27T08:41:28Z</time>
      </trkpt>
      <trkpt lat="47.2604" lon="-1.59451">
        <ele>25.61</ele>
        <time>2013-10-27T08:41:33Z</time>
      </trkpt>
      <trkpt lat="47.26036" lon="-1.59431">
        <ele>25.13</ele>
        <time>2013-10-27T08:41:38Z</time>
      </trkpt>
      <trkpt lat="47.26047" lon="-1.59397">
        <ele>25.13</ele>
        <time>2013-10-27T08:41:44Z</time>
      </trkpt>
      <trkpt lat="47.26045" lon="-1.59381">
        <ele>24.65</ele>
        <time>2013-10-27T08:41:49Z</time>
      </trkpt>
      <trkpt lat="47.26043" lon="-1.59362">
        <ele>24.65</ele>
        <time>2013-10-27T08:41:53Z</time>
      </trkpt>
      <trkpt lat="47.26038" lon="-1.59343">
        <ele>24.65</ele>
        <time>2013-10-27T08:41:56Z</time>
      </trkpt>
      <trkpt lat="47.26038" lon="-1.59313">
        <ele>25.61</ele>
        <time>2013-10-27T08:42:01Z</time>
      </trkpt>
      <trkpt lat="47.26031" lon="-1.59294">
        <ele>26.57</ele>
        <time>2013-10-27T08:42:07Z</time>
      </trkpt>
      <trkpt lat="47.2602" lon="-1.59278">
        <ele>28.5</ele>
        <time>2013-10-27T08:42:13Z</time>
      </trkpt>
      <trkpt lat="47.26013" lon="-1.59261">
        <ele>30.42</ele>
        <time>2013-10-27T08:42:17Z</time>
      </trkpt>
      <trkpt lat="47.26012" lon="-1.59247">
        <ele>30.9</ele>
        <time>2013-10-27T08:42:20Z</time>
      </trkpt>
      <trkpt lat="47.26008" lon="-1.59232">
        <ele>31.38</ele>
        <time>2013-10-27T08:42:24Z</time>
      </trkpt>
      <trkpt lat="47.26" lon="-1.59224">
        <ele>30.9</ele>
        <time>2013-10-27T08:42:28Z</time>
      </trkpt>
      <trkpt lat="47.25989" lon="-1.59217">
        <ele>31.86</ele>
        <time>2013-10-27T08:42:33Z</time>
      </trkpt>
      <trkpt lat="47.25979" lon="-1.59213">
        <ele>31.86</ele>
        <time>2013-10-27T08:42:37Z</time>
      </trkpt>
      <trkpt lat="47.25969" lon="-1.59209">
        <ele>33.3</ele>
        <time>2013-10-27T08:42:41Z</time>
      </trkpt>
      <trkpt lat="47.25958" lon="-1.59204">
        <ele>35.71</ele>
        <time>2013-10-27T08:42:46Z</time>
      </trkpt>
      <trkpt lat="47.25948" lon="-1.59201">
        <ele>35.71</ele>
        <time>2013-10-27T08:42:50Z</time>
      </trkpt>
      <trkpt lat="47.25937" lon="-1.592">
        <ele>33.3</ele>
        <time>2013-10-27T08:42:54Z</time>
      </trkpt>
      <trkpt lat="47.25929" lon="-1.59203">
        <ele>32.82</ele>
        <time>2013-10-27T08:42:58Z</time>
      </trkpt>
      <trkpt lat="47.25922" lon="-1.59212">
        <ele>32.82</ele>
        <time>2013-10-27T08:43:02Z</time>
      </trkpt>
      <trkpt lat="47.25916" lon="-1.59225">
        <ele>32.34</ele>
        <time>2013-10-27T08:43:07Z</time>
      </trkpt>
      <trkpt lat="47.2591" lon="-1.5924">
        <ele>31.86</ele>
        <time>2013-10-27T08:43:12Z</time>
      </trkpt>
      <trkpt lat="47.25902" lon="-1.5925">
        <ele>31.38</ele>
        <time>2013-10-27T08:43:16Z</time>
      </trkpt>
      <trkpt lat="47.25892" lon="-1.59259">
        <ele>31.38</ele>
        <time>2013-10-27T08:43:20Z</time>
      </trkpt>
      <trkpt lat="47.2588" lon="-1.59264">
        <ele>31.38</ele>
        <time>2013-10-27T08:43:24Z</time>
      </trkpt>
      <trkpt lat="47.25869" lon="-1.59263">
        <ele>31.38</ele>
        <time>2013-10-27T08:43:27Z</time>
      </trkpt>
      <trkpt lat="47.25858" lon="-1.59261">
        <ele>30.9</ele>
        <time>2013-10-27T08:43:30Z</time>
      </trkpt>
      <trkpt lat="47.25848" lon="-1.59256">
        <ele>30.42</ele>
        <time>2013-10-27T08:43:33Z</time>
      </trkpt>
      <trkpt lat="47.25837" lon="-1.59248">
        <ele>30.42</ele>
        <time>2013-10-27T08:43:37Z</time>
      </trkpt>
      <trkpt lat="47.25833" lon="-1.59231">
        <ele>30.9</ele>
        <time>2013-10-27T08:43:41Z</time>
      </trkpt>
      <trkpt lat="47.25818" lon="-1.59219">
        <ele>31.86</ele>
        <time>2013-10-27T08:43:44Z</time>
      </trkpt>
      <trkpt lat="47.25808" lon="-1.59211">
        <ele>31.86</ele>
        <time>2013-10-27T08:43:46Z</time>
      </trkpt>
      <trkpt lat="47.25799" lon="-1.59201">
        <ele>31.38</ele>
        <time>2013-10-27T08:43:48Z</time>
      </trkpt>
      <trkpt lat="47.25788" lon="-1.59188">
        <ele>30.9</ele>
        <time>2013-10-27T08:43:51Z</time>
      </trkpt>
      <trkpt lat="47.2578" lon="-1.59178">
        <ele>29.94</ele>
        <time>2013-10-27T08:43:56Z</time>
      </trkpt>
      <trkpt lat="47.25787" lon="-1.59184">
        <ele>29.94</ele>
        <time>2013-10-27T08:44:01Z</time>
      </trkpt>
      <trkpt lat="47.25795" lon="-1.59194">
        <ele>30.42</ele>
        <time>2013-10-27T08:44:04Z</time>
      </trkpt>
      <trkpt lat="47.25802" lon="-1.592">
        <ele>31.86</ele>
        <time>2013-10-27T08:44:07Z</time>
      </trkpt>
      <trkpt lat="47.25805" lon="-1.59193">
        <ele>33.3</ele>
        <time>2013-10-27T08:44:12Z</time>
      </trkpt>
      <trkpt lat="47.25801" lon="-1.5918">
        <ele>35.71</ele>
        <time>2013-10-27T08:44:17Z</time>
      </trkpt>
      <trkpt lat="47.258" lon="-1.59162">
        <ele>36.19</ele>
        <time>2013-10-27T08:44:22Z</time>
      </trkpt>
      <trkpt lat="47.25799" lon="-1.59141">
        <ele>33.78</ele>
        <time>2013-10-27T08:44:28Z</time>
      </trkpt>
      <trkpt lat="47.25799" lon="-1.59123">
        <ele>32.34</ele>
        <time>2013-10-27T08:44:34Z</time>
      </trkpt>
      <trkpt lat="47.25793" lon="-1.59109">
        <ele>30.42</ele>
        <time>2013-10-27T08:44:41Z</time>
      </trkpt>
      <trkpt lat="47.25786" lon="-1.59117">
        <ele>29.94</ele>
        <time>2013-10-27T08:44:45Z</time>
      </trkpt>
      <trkpt lat="47.25776" lon="-1.59129">
        <ele>29.46</ele>
        <time>2013-10-27T08:44:49Z</time>
      </trkpt>
      <trkpt lat="47.25763" lon="-1.59133">
        <ele>29.94</ele>
        <time>2013-10-27T08:44:52Z</time>
      </trkpt>
      <trkpt lat="47.25748" lon="-1.59129">
        <ele>28.98</ele>
        <time>2013-10-27T08:44:55Z</time>
      </trkpt>
      <trkpt lat="47.25733" lon="-1.59119">
        <ele>26.57</ele>
        <time>2013-10-27T08:45:07Z</time>
      </trkpt>
      <trkpt lat="47.25734" lon="-1.59106">
        <ele>25.13</ele>
        <time>2013-10-27T08:45:14Z</time>
      </trkpt>
      <trkpt lat="47.2573" lon="-1.59088">
        <ele>18.88</ele>
        <time>2013-10-27T08:45:36Z</time>
      </trkpt>
      <trkpt lat="47.25725" lon="-1.59073">
        <ele>20.81</ele>
        <time>2013-10-27T08:45:41Z</time>
      </trkpt>
      <trkpt lat="47.25715" lon="-1.59069">
        <ele>22.25</ele>
        <time>2013-10-27T08:45:46Z</time>
      </trkpt>
      <trkpt lat="47.25705" lon="-1.59062">
        <ele>24.17</ele>
        <time>2013-10-27T08:45:51Z</time>
      </trkpt>
      <trkpt lat="47.25696" lon="-1.59053">
        <ele>25.61</ele>
        <time>2013-10-27T08:45:55Z</time>
      </trkpt>
      <trkpt lat="47.25688" lon="-1.59044">
        <ele>26.09</ele>
        <time>2013-10-27T08:45:59Z</time>
      </trkpt>
      <trkpt lat="47.2568" lon="-1.59032">
        <ele>26.09</ele>
        <time>2013-10-27T08:46:04Z</time>
      </trkpt>
      <trkpt lat="47.25669" lon="-1.59009">
        <ele>24.65</ele>
        <time>2013-10-27T08:46:39Z</time>
      </trkpt>
      <trkpt lat="47.2566" lon="-1.58994">
        <ele>26.57</ele>
        <time>2013-10-27T08:46:56Z</time>
      </trkpt>
      <trkpt lat="47.25655" lon="-1.58979">
        <ele>30.9</ele>
        <time>2013-10-27T08:47:01Z</time>
      </trkpt>
      <trkpt lat="47.25649" lon="-1.58968">
        <ele>34.74</ele>
        <time>2013-10-27T08:47:04Z</time>
      </trkpt>
      <trkpt lat="47.25639" lon="-1.58957">
        <ele>37.63</ele>
        <time>2013-10-27T08:47:08Z</time>
      </trkpt>
      <trkpt lat="47.25637" lon="-1.58942">
        <ele>40.03</ele>
        <time>2013-10-27T08:47:13Z</time>
      </trkpt>
      <trkpt lat="47.25644" lon="-1.58931">
        <ele>40.03</ele>
        <time>2013-10-27T08:47:19Z</time>
      </trkpt>
      <trkpt lat="47.25654" lon="-1.58919">
        <ele>39.55</ele>
        <time>2013-10-27T08:47:24Z</time>
      </trkpt>
      <trkpt lat="47.25652" lon="-1.58899">
        <ele>39.55</ele>
        <time>2013-10-27T08:47:28Z</time>
      </trkpt>
      <trkpt lat="47.25646" lon="-1.58886">
        <ele>40.03</ele>
        <time>2013-10-27T08:47:31Z</time>
      </trkpt>
      <trkpt lat="47.2564" lon="-1.58868">
        <ele>40.03</ele>
        <time>2013-10-27T08:47:34Z</time>
      </trkpt>
      <trkpt lat="47.25632" lon="-1.5885">
        <ele>40.03</ele>
        <time>2013-10-27T08:47:37Z</time>
      </trkpt>
      <trkpt lat="47.25625" lon="-1.58838">
        <ele>40.03</ele>
        <time>2013-10-27T08:47:40Z</time>
      </trkpt>
      <trkpt lat="47.25614" lon="-1.58838">
        <ele>38.59</ele>
        <time>2013-10-27T08:47:47Z</time>
      </trkpt>
      <trkpt lat="47.25604" lon="-1.58837">
        <ele>38.59</ele>
        <time>2013-10-27T08:47:51Z</time>
      </trkpt>
      <trkpt lat="47.25595" lon="-1.58834">
        <ele>38.59</ele>
        <time>2013-10-27T08:47:54Z</time>
      </trkpt>
      <trkpt lat="47.25584" lon="-1.58829">
        <ele>35.23</ele>
        <time>2013-10-27T08:47:58Z</time>
      </trkpt>
      <trkpt lat="47.25576" lon="-1.58828">
        <ele>32.34</ele>
        <time>2013-10-27T08:48:01Z</time>
      </trkpt>
      <trkpt lat="47.25563" lon="-1.5883">
        <ele>28.02</ele>
        <time>2013-10-27T08:48:04Z</time>
      </trkpt>
      <trkpt lat="47.25555" lon="-1.58841">
        <ele>24.65</ele>
        <time>2013-10-27T08:48:07Z</time>
      </trkpt>
      <trkpt lat="47.2555" lon="-1.58858">
        <ele>21.77</ele>
        <time>2013-10-27T08:48:10Z</time>
      </trkpt>
      <trkpt lat="47.25544" lon="-1.58873">
        <ele>19.36</ele>
        <time>2013-10-27T08:48:13Z</time>
      </trkpt>
      <trkpt lat="47.2554" lon="-1.58889">
        <ele>17.92</ele>
        <time>2013-10-27T08:48:16Z</time>
      </trkpt>
      <trkpt lat="47.25536" lon="-1.58907">
        <ele>16.48</ele>
        <time>2013-10-27T08:48:19Z</time>
      </trkpt>
      <trkpt lat="47.25535" lon="-1.58922">
        <ele>16</ele>
        <time>2013-10-27T08:48:22Z</time>
      </trkpt>
      <trkpt lat="47.25537" lon="-1.58936">
        <ele>16</ele>
        <time>2013-10-27T08:48:25Z</time>
      </trkpt>
      <trkpt lat="47.25538" lon="-1.58951">
        <ele>15.52</ele>
        <time>2013-10-27T08:48:28Z</time>
      </trkpt>
      <trkpt lat="47.25534" lon="-1.58968">
        <ele>15.52</ele>
        <time>2013-10-27T08:48:31Z</time>
      </trkpt>
      <trkpt lat="47.25527" lon="-1.58986">
        <ele>15.52</ele>
        <time>2013-10-27T08:48:35Z</time>
      </trkpt>
      <trkpt lat="47.25513" lon="-1.58996">
        <ele>16</ele>
        <time>2013-10-27T08:48:39Z</time>
      </trkpt>
      <trkpt lat="47.25503" lon="-1.59002">
        <ele>16.96</ele>
        <time>2013-10-27T08:48:42Z</time>
      </trkpt>
      <trkpt lat="47.25491" lon="-1.5901">
        <ele>18.88</ele>
        <time>2013-10-27T08:48:46Z</time>
      </trkpt>
      <trkpt lat="47.25482" lon="-1.5902">
        <ele>18.88</ele>
        <time>2013-10-27T08:48:49Z</time>
      </trkpt>
      <trkpt lat="47.25474" lon="-1.59029">
        <ele>18.88</ele>
        <time>2013-10-27T08:48:52Z</time>
      </trkpt>
      <trkpt lat="47.25465" lon="-1.59043">
        <ele>18.4</ele>
        <time>2013-10-27T08:48:55Z</time>
      </trkpt>
      <trkpt lat="47.25455" lon="-1.59056">
        <ele>18.88</ele>
        <time>2013-10-27T08:48:58Z</time>
      </trkpt>
      <trkpt lat="47.25444" lon="-1.59065">
        <ele>18.88</ele>
        <time>2013-10-27T08:49:01Z</time>
      </trkpt>
      <trkpt lat="47.25432" lon="-1.59067">
        <ele>19.36</ele>
        <time>2013-10-27T08:49:05Z</time>
      </trkpt>
      <trkpt lat="47.25418" lon="-1.59066">
        <ele>19.84</ele>
        <time>2013-10-27T08:49:09Z</time>
      </trkpt>
      <trkpt lat="47.25407" lon="-1.59064">
        <ele>20.32</ele>
        <time>2013-10-27T08:49:12Z</time>
      </trkpt>
      <trkpt lat="47.25397" lon="-1.59062">
        <ele>20.32</ele>
        <time>2013-10-27T08:49:15Z</time>
      </trkpt>
      <trkpt lat="47.25385" lon="-1.59059">
        <ele>20.81</ele>
        <time>2013-10-27T08:49:18Z</time>
      </trkpt>
      <trkpt lat="47.25373" lon="-1.59055">
        <ele>20.32</ele>
        <time>2013-10-27T08:49:21Z</time>
      </trkpt>
      <trkpt lat="47.25361" lon="-1.59045">
        <ele>20.32</ele>
        <time>2013-10-27T08:49:25Z</time>
      </trkpt>
      <trkpt lat="47.25354" lon="-1.59032">
        <ele>20.32</ele>
        <time>2013-10-27T08:49:28Z</time>
      </trkpt>
      <trkpt lat="47.25348" lon="-1.59017">
        <ele>19.84</ele>
        <time>2013-10-27T08:49:31Z</time>
      </trkpt>
      <trkpt lat="47.25343" lon="-1.59005">
        <ele>19.84</ele>
        <time>2013-10-27T08:49:34Z</time>
      </trkpt>
      <trkpt lat="47.25332" lon="-1.58994">
        <ele>20.81</ele>
        <time>2013-10-27T08:49:37Z</time>
      </trkpt>
      <trkpt lat="47.25323" lon="-1.58984">
        <ele>21.29</ele>
        <time>2013-10-27T08:49:39Z</time>
      </trkpt>
      <trkpt lat="47.25314" lon="-1.58976">
        <ele>21.29</ele>
        <time>2013-10-27T08:49:41Z</time>
      </trkpt>
      <trkpt lat="47.25303" lon="-1.58965">
        <ele>21.77</ele>
        <time>2013-10-27T08:49:44Z</time>
      </trkpt>
      <trkpt lat="47.25293" lon="-1.58957">
        <ele>22.25</ele>
        <time>2013-10-27T08:49:46Z</time>
      </trkpt>
      <trkpt lat="47.25283" lon="-1.58948">
        <ele>22.73</ele>
        <time>2013-10-27T08:49:48Z</time>
      </trkpt>
      <trkpt lat="47.25273" lon="-1.58939">
        <ele>24.17</ele>
        <time>2013-10-27T08:49:50Z</time>
      </trkpt>
      <trkpt lat="47.2526" lon="-1.58926">
        <ele>26.09</ele>
        <time>2013-10-27T08:49:53Z</time>
      </trkpt>
      <trkpt lat="47.25248" lon="-1.58915">
        <ele>28.02</ele>
        <time>2013-10-27T08:49:56Z</time>
      </trkpt>
      <trkpt lat="47.25236" lon="-1.58907">
        <ele>29.94</ele>
        <time>2013-10-27T08:49:59Z</time>
      </trkpt>
      <trkpt lat="47.25226" lon="-1.58892">
        <ele>30.42</ele>
        <time>2013-10-27T08:50:04Z</time>
      </trkpt>
      <trkpt lat="47.25226" lon="-1.58874">
        <ele>30.42</ele>
        <time>2013-10-27T08:50:08Z</time>
      </trkpt>
      <trkpt lat="47.25232" lon="-1.58856">
        <ele>31.38</ele>
        <time>2013-10-27T08:50:12Z</time>
      </trkpt>
      <trkpt lat="47.25239" lon="-1.58842">
        <ele>31.38</ele>
        <time>2013-10-27T08:50:15Z</time>
      </trkpt>
      <trkpt lat="47.25253" lon="-1.58835">
        <ele>28.5</ele>
        <time>2013-10-27T08:50:22Z</time>
      </trkpt>
      <trkpt lat="47.25264" lon="-1.58834">
        <ele>23.21</ele>
        <time>2013-10-27T08:50:32Z</time>
      </trkpt>
      <trkpt lat="47.25264" lon="-1.58824">
        <ele>22.25</ele>
        <time>2013-10-27T08:50:41Z</time>
      </trkpt>
      <trkpt lat="47.25269" lon="-1.5881">
        <ele>23.21</ele>
        <time>2013-10-27T08:50:47Z</time>
      </trkpt>
      <trkpt lat="47.25269" lon="-1.58796">
        <ele>24.17</ele>
        <time>2013-10-27T08:50:51Z</time>
      </trkpt>
      <trkpt lat="47.2527" lon="-1.58782">
        <ele>25.61</ele>
        <time>2013-10-27T08:50:55Z</time>
      </trkpt>
      <trkpt lat="47.2527" lon="-1.58766">
        <ele>28.02</ele>
        <time>2013-10-27T08:50:59Z</time>
      </trkpt>
      <trkpt lat="47.25273" lon="-1.58751">
        <ele>30.42</ele>
        <time>2013-10-27T08:51:04Z</time>
      </trkpt>
      <trkpt lat="47.25271" lon="-1.58736">
        <ele>31.38</ele>
        <time>2013-10-27T08:51:08Z</time>
      </trkpt>
      <trkpt lat="47.25269" lon="-1.5872">
        <ele>31.38</ele>
        <time>2013-10-27T08:51:12Z</time>
      </trkpt>
      <trkpt lat="47.25271" lon="-1.58704">
        <ele>31.38</ele>
        <time>2013-10-27T08:51:17Z</time>
      </trkpt>
      <trkpt lat="47.25275" lon="-1.58687">
        <ele>30.9</ele>
        <time>2013-10-27T08:51:22Z</time>
      </trkpt>
      <trkpt lat="47.25282" lon="-1.58668">
        <ele>30.9</ele>
        <time>2013-10-27T08:51:28Z</time>
      </trkpt>
      <trkpt lat="47.25291" lon="-1.58649">
        <ele>29.46</ele>
        <time>2013-10-27T08:51:40Z</time>
      </trkpt>
      <trkpt lat="47.2529" lon="-1.58625">
        <ele>28.5</ele>
        <time>2013-10-27T08:51:50Z</time>
      </trkpt>
      <trkpt lat="47.2528" lon="-1.58619">
        <ele>28.02</ele>
        <time>2013-10-27T08:51:55Z</time>
      </trkpt>
      <trkpt lat="47.25271" lon="-1.58617">
        <ele>27.05</ele>
        <time>2013-10-27T08:51:59Z</time>
      </trkpt>
      <trkpt lat="47.25259" lon="-1.58618">
        <ele>26.57</ele>
        <time>2013-10-27T08:52:04Z</time>
      </trkpt>
      <trkpt lat="47.25245" lon="-1.58615">
        <ele>25.61</ele>
        <time>2013-10-27T08:52:09Z</time>
      </trkpt>
      <trkpt lat="47.25234" lon="-1.58614">
        <ele>25.13</ele>
        <time>2013-10-27T08:52:13Z</time>
      </trkpt>
      <trkpt lat="47.25221" lon="-1.58613">
        <ele>26.57</ele>
        <time>2013-10-27T08:52:19Z</time>
      </trkpt>
      <trkpt lat="47.25209" lon="-1.58612">
        <ele>26.57</ele>
        <time>2013-10-27T08:52:24Z</time>
      </trkpt>
      <trkpt lat="47.25198" lon="-1.58609">
        <ele>28.02</ele>
        <time>2013-10-27T08:52:28Z</time>
      </trkpt>
      <trkpt lat="47.25188" lon="-1.58601">
        <ele>30.42</ele>
        <time>2013-10-27T08:52:32Z</time>
      </trkpt>
      <trkpt lat="47.25183" lon="-1.58588">
        <ele>34.26</ele>
        <time>2013-10-27T08:52:36Z</time>
      </trkpt>
      <trkpt lat="47.25172" lon="-1.5858">
        <ele>38.59</ele>
        <time>2013-10-27T08:52:42Z</time>
      </trkpt>
      <trkpt lat="47.25161" lon="-1.58573">
        <ele>37.63</ele>
        <time>2013-10-27T08:52:47Z</time>
      </trkpt>
      <trkpt lat="47.25146" lon="-1.58562">
        <ele>37.15</ele>
        <time>2013-10-27T08:52:51Z</time>
      </trkpt>
      <trkpt lat="47.25131" lon="-1.5855">
        <ele>36.67</ele>
        <time>2013-10-27T08:52:55Z</time>
      </trkpt>
      <trkpt lat="47.25118" lon="-1.58532">
        <ele>35.71</ele>
        <time>2013-10-27T08:53:03Z</time>
      </trkpt>
      <trkpt lat="47.25106" lon="-1.58515">
        <ele>34.74</ele>
        <time>2013-10-27T08:53:10Z</time>
      </trkpt>
      <trkpt lat="47.25092" lon="-1.58489">
        <ele>31.86</ele>
        <time>2013-10-27T08:53:21Z</time>
      </trkpt>
      <trkpt lat="47.25091" lon="-1.58469">
        <ele>30.9</ele>
        <time>2013-10-27T08:53:28Z</time>
      </trkpt>
      <trkpt lat="47.25088" lon="-1.58452">
        <ele>31.38</ele>
        <time>2013-10-27T08:53:33Z</time>
      </trkpt>
      <trkpt lat="47.2508" lon="-1.58431">
        <ele>28.98</ele>
        <time>2013-10-27T08:53:51Z</time>
      </trkpt>
      <trkpt lat="47.25077" lon="-1.58416">
        <ele>28.02</ele>
        <time>2013-10-27T08:53:58Z</time>
      </trkpt>
      <trkpt lat="47.25075" lon="-1.58396">
        <ele>28.98</ele>
        <time>2013-10-27T08:54:04Z</time>
      </trkpt>
      <trkpt lat="47.25075" lon="-1.58379">
        <ele>29.46</ele>
        <time>2013-10-27T08:54:09Z</time>
      </trkpt>
      <trkpt lat="47.25076" lon="-1.58362">
        <ele>29.46</ele>
        <time>2013-10-27T08:54:13Z</time>
      </trkpt>
      <trkpt lat="47.25074" lon="-1.58343">
        <ele>29.46</ele>
        <time>2013-10-27T08:54:17Z</time>
      </trkpt>
      <trkpt lat="47.25078" lon="-1.58326">
        <ele>29.46</ele>
        <time>2013-10-27T08:54:21Z</time>
      </trkpt>
      <trkpt lat="47.25078" lon="-1.58311">
        <ele>29.46</ele>
        <time>2013-10-27T08:54:24Z</time>
      </trkpt>
      <trkpt lat="47.25077" lon="-1.58297">
        <ele>29.46</ele>
        <time>2013-10-27T08:54:27Z</time>
      </trkpt>
      <trkpt lat="47.25075" lon="-1.58278">
        <ele>28.5</ele>
        <time>2013-10-27T08:54:31Z</time>
      </trkpt>
      <trkpt lat="47.25077" lon="-1.58263">
        <ele>28.5</ele>
        <time>2013-10-27T08:54:34Z</time>
      </trkpt>
      <trkpt lat="47.25079" lon="-1.58248">
        <ele>28.5</ele>
        <time>2013-10-27T08:54:38Z</time>
      </trkpt>
      <trkpt lat="47.25086" lon="-1.58238">
        <ele>28.02</ele>
        <time>2013-10-27T08:54:45Z</time>
      </trkpt>
      <trkpt lat="47.25096" lon="-1.5822">
        <ele>22.73</ele>
        <time>2013-10-27T08:54:51Z</time>
      </trkpt>
      <trkpt lat="47.25093" lon="-1.58205">
        <ele>21.29</ele>
        <time>2013-10-27T08:54:55Z</time>
      </trkpt>
      <trkpt lat="47.25087" lon="-1.58189">
        <ele>19.84</ele>
        <time>2013-10-27T08:54:59Z</time>
      </trkpt>
      <trkpt lat="47.25084" lon="-1.58174">
        <ele>18.4</ele>
        <time>2013-10-27T08:55:02Z</time>
      </trkpt>
      <trkpt lat="47.25081" lon="-1.5816">
        <ele>17.44</ele>
        <time>2013-10-27T08:55:05Z</time>
      </trkpt>
      <trkpt lat="47.25078" lon="-1.58146">
        <ele>17.44</ele>
        <time>2013-10-27T08:55:08Z</time>
      </trkpt>
      <trkpt lat="47.25076" lon="-1.5813">
        <ele>17.44</ele>
        <time>2013-10-27T08:55:11Z</time>
      </trkpt>
      <trkpt lat="47.25079" lon="-1.58113">
        <ele>15.52</ele>
        <time>2013-10-27T08:55:14Z</time>
      </trkpt>
      <trkpt lat="47.25082" lon="-1.58095">
        <ele>14.08</ele>
        <time>2013-10-27T08:55:17Z</time>
      </trkpt>
      <trkpt lat="47.25081" lon="-1.58078">
        <ele>13.6</ele>
        <time>2013-10-27T08:55:20Z</time>
      </trkpt>
      <trkpt lat="47.25076" lon="-1.58061">
        <ele>13.6</ele>
        <time>2013-10-27T08:55:23Z</time>
      </trkpt>
      <trkpt lat="47.2507" lon="-1.58046">
        <ele>13.6</ele>
        <time>2013-10-27T08:55:26Z</time>
      </trkpt>
      <trkpt lat="47.25061" lon="-1.58035">
        <ele>13.6</ele>
        <time>2013-10-27T08:55:29Z</time>
      </trkpt>
      <trkpt lat="47.25051" lon="-1.58028">
        <ele>13.12</ele>
        <time>2013-10-27T08:55:32Z</time>
      </trkpt>
      <trkpt lat="47.25039" lon="-1.58024">
        <ele>13.12</ele>
        <time>2013-10-27T08:55:35Z</time>
      </trkpt>
      <trkpt lat="47.25027" lon="-1.58017">
        <ele>12.63</ele>
        <time>2013-10-27T08:55:38Z</time>
      </trkpt>
      <trkpt lat="47.25016" lon="-1.58007">
        <ele>12.63</ele>
        <time>2013-10-27T08:55:41Z</time>
      </trkpt>
      <trkpt lat="47.25006" lon="-1.57997">
        <ele>12.15</ele>
        <time>2013-10-27T08:55:44Z</time>
      </trkpt>
      <trkpt lat="47.24998" lon="-1.57987">
        <ele>12.63</ele>
        <time>2013-10-27T08:55:47Z</time>
      </trkpt>
      <trkpt lat="47.25004" lon="-1.57976">
        <ele>13.12</ele>
        <time>2013-10-27T08:56:02Z</time>
      </trkpt>
      <trkpt lat="47.25" lon="-1.57964">
        <ele>11.67</ele>
        <time>2013-10-27T08:56:08Z</time>
      </trkpt>
      <trkpt lat="47.24991" lon="-1.57964">
        <ele>12.15</ele>
        <time>2013-10-27T08:56:13Z</time>
      </trkpt>
      <trkpt lat="47.24984" lon="-1.57955">
        <ele>11.67</ele>
        <time>2013-10-27T08:56:17Z</time>
      </trkpt>
      <trkpt lat="47.24976" lon="-1.57944">
        <ele>11.67</ele>
        <time>2013-10-27T08:56:23Z</time>
      </trkpt>
      <trkpt lat="47.24968" lon="-1.57935">
        <ele>12.15</ele>
        <time>2013-10-27T08:56:27Z</time>
      </trkpt>
      <trkpt lat="47.24962" lon="-1.57924">
        <ele>11.67</ele>
        <time>2013-10-27T08:56:30Z</time>
      </trkpt>
      <trkpt lat="47.24959" lon="-1.57907">
        <ele>11.67</ele>
        <time>2013-10-27T08:56:34Z</time>
      </trkpt>
      <trkpt lat="47.24953" lon="-1.57894">
        <ele>12.15</ele>
        <time>2013-10-27T08:56:37Z</time>
      </trkpt>
      <trkpt lat="47.24944" lon="-1.57884">
        <ele>12.63</ele>
        <time>2013-10-27T08:56:41Z</time>
      </trkpt>
      <trkpt lat="47.24933" lon="-1.57882">
        <ele>12.63</ele>
        <time>2013-10-27T08:56:45Z</time>
      </trkpt>
      <trkpt lat="47.24927" lon="-1.57893">
        <ele>13.6</ele>
        <time>2013-10-27T08:56:49Z</time>
      </trkpt>
      <trkpt lat="47.24918" lon="-1.57903">
        <ele>14.08</ele>
        <time>2013-10-27T08:56:54Z</time>
      </trkpt>
      <trkpt lat="47.24908" lon="-1.57913">
        <ele>13.12</ele>
        <time>2013-10-27T08:56:58Z</time>
      </trkpt>
      <trkpt lat="47.24897" lon="-1.57918">
        <ele>11.67</ele>
        <time>2013-10-27T08:57:08Z</time>
      </trkpt>
      <trkpt lat="47.24887" lon="-1.57919">
        <ele>11.67</ele>
        <time>2013-10-27T08:57:12Z</time>
      </trkpt>
      <trkpt lat="47.24878" lon="-1.57907">
        <ele>9.75</ele>
        <time>2013-10-27T08:57:16Z</time>
      </trkpt>
      <trkpt lat="47.24872" lon="-1.5789">
        <ele>7.35</ele>
        <time>2013-10-27T08:57:20Z</time>
      </trkpt>
      <trkpt lat="47.24864" lon="-1.57877">
        <ele>6.39</ele>
        <time>2013-10-27T08:57:23Z</time>
      </trkpt>
      <trkpt lat="47.24856" lon="-1.57865">
        <ele>5.91</ele>
        <time>2013-10-27T08:57:26Z</time>
      </trkpt>
      <trkpt lat="47.24847" lon="-1.57854">
        <ele>6.39</ele>
        <time>2013-10-27T08:57:29Z</time>
      </trkpt>
      <trkpt lat="47.24838" lon="-1.57842">
        <ele>7.35</ele>
        <time>2013-10-27T08:57:32Z</time>
      </trkpt>
      <trkpt lat="47.24828" lon="-1.57833">
        <ele>7.35</ele>
        <time>2013-10-27T08:57:35Z</time>
      </trkpt>
      <trkpt lat="47.24821" lon="-1.57821">
        <ele>8.31</ele>
        <time>2013-10-27T08:57:38Z</time>
      </trkpt>
      <trkpt lat="47.24812" lon="-1.57809">
        <ele>9.75</ele>
        <time>2013-10-27T08:57:41Z</time>
      </trkpt>
      <trkpt lat="47.24803" lon="-1.57798">
        <ele>11.19</ele>
        <time>2013-10-27T08:57:44Z</time>
      </trkpt>
      <trkpt lat="47.24793" lon="-1.57787">
        <ele>11.67</ele>
        <time>2013-10-27T08:57:47Z</time>
      </trkpt>
      <trkpt lat="47.24785" lon="-1.57777">
        <ele>13.12</ele>
        <time>2013-10-27T08:57:50Z</time>
      </trkpt>
      <trkpt lat="47.24777" lon="-1.57767">
        <ele>13.6</ele>
        <time>2013-10-27T08:57:53Z</time>
      </trkpt>
      <trkpt lat="47.2477" lon="-1.5776">
        <ele>15.04</ele>
        <time>2013-10-27T08:57:59Z</time>
      </trkpt>
      <trkpt lat="47.24761" lon="-1.57754">
        <ele>11.67</ele>
        <time>2013-10-27T08:59:28Z</time>
      </trkpt>
      <trkpt lat="47.24751" lon="-1.57751">
        <ele>11.67</ele>
        <time>2013-10-27T08:59:32Z</time>
      </trkpt>
      <trkpt lat="47.24748" lon="-1.57738">
        <ele>14.08</ele>
        <time>2013-10-27T08:59:37Z</time>
      </trkpt>
      <trkpt lat="47.24737" lon="-1.57736">
        <ele>11.67</ele>
        <time>2013-10-27T08:59:41Z</time>
      </trkpt>
      <trkpt lat="47.24732" lon="-1.57727">
        <ele>6.87</ele>
        <time>2013-10-27T08:59:56Z</time>
      </trkpt>
      <trkpt lat="47.24728" lon="-1.57714">
        <ele>5.42</ele>
        <time>2013-10-27T09:00:09Z</time>
      </trkpt>
      <trkpt lat="47.24719" lon="-1.57704">
        <ele>6.39</ele>
        <time>2013-10-27T09:00:15Z</time>
      </trkpt>
      <trkpt lat="47.24711" lon="-1.57692">
        <ele>8.31</ele>
        <time>2013-10-27T09:00:20Z</time>
      </trkpt>
      <trkpt lat="47.24704" lon="-1.57677">
        <ele>8.79</ele>
        <time>2013-10-27T09:00:24Z</time>
      </trkpt>
      <trkpt lat="47.24699" lon="-1.57665">
        <ele>9.27</ele>
        <time>2013-10-27T09:00:27Z</time>
      </trkpt>
      <trkpt lat="47.24693" lon="-1.57653">
        <ele>9.75</ele>
        <time>2013-10-27T09:00:30Z</time>
      </trkpt>
      <trkpt lat="47.24687" lon="-1.57641">
        <ele>10.71</ele>
        <time>2013-10-27T09:00:34Z</time>
      </trkpt>
      <trkpt lat="47.2468" lon="-1.57628">
        <ele>10.71</ele>
        <time>2013-10-27T09:00:38Z</time>
      </trkpt>
      <trkpt lat="47.24676" lon="-1.57617">
        <ele>10.71</ele>
        <time>2013-10-27T09:00:41Z</time>
      </trkpt>
      <trkpt lat="47.24672" lon="-1.57603">
        <ele>10.71</ele>
        <time>2013-10-27T09:00:44Z</time>
      </trkpt>
      <trkpt lat="47.24668" lon="-1.57589">
        <ele>11.19</ele>
        <time>2013-10-27T09:00:47Z</time>
      </trkpt>
      <trkpt lat="47.24665" lon="-1.57573">
        <ele>11.19</ele>
        <time>2013-10-27T09:00:50Z</time>
      </trkpt>
      <trkpt lat="47.24659" lon="-1.57558">
        <ele>11.19</ele>
        <time>2013-10-27T09:00:53Z</time>
      </trkpt>
      <trkpt lat="47.2465" lon="-1.57547">
        <ele>11.19</ele>
        <time>2013-10-27T09:00:56Z</time>
      </trkpt>
      <trkpt lat="47.24638" lon="-1.57541">
        <ele>11.19</ele>
        <time>2013-10-27T09:00:59Z</time>
      </trkpt>
      <trkpt lat="47.24627" lon="-1.5753">
        <ele>10.71</ele>
        <time>2013-10-27T09:01:02Z</time>
      </trkpt>
      <trkpt lat="47.24619" lon="-1.57519">
        <ele>10.71</ele>
        <time>2013-10-27T09:01:05Z</time>
      </trkpt>
      <trkpt lat="47.2461" lon="-1.5751">
        <ele>10.23</ele>
        <time>2013-10-27T09:01:08Z</time>
      </trkpt>
      <trkpt lat="47.24599" lon="-1.57501">
        <ele>11.19</ele>
        <time>2013-10-27T09:01:13Z</time>
      </trkpt>
      <trkpt lat="47.24586" lon="-1.57491">
        <ele>12.15</ele>
        <time>2013-10-27T09:01:17Z</time>
      </trkpt>
      <trkpt lat="47.24579" lon="-1.57478">
        <ele>12.63</ele>
        <time>2013-10-27T09:01:20Z</time>
      </trkpt>
      <trkpt lat="47.24573" lon="-1.57462">
        <ele>13.12</ele>
        <time>2013-10-27T09:01:23Z</time>
      </trkpt>
      <trkpt lat="47.24567" lon="-1.57447">
        <ele>13.6</ele>
        <time>2013-10-27T09:01:26Z</time>
      </trkpt>
      <trkpt lat="47.24563" lon="-1.57431">
        <ele>14.08</ele>
        <time>2013-10-27T09:01:29Z</time>
      </trkpt>
      <trkpt lat="47.24559" lon="-1.57414">
        <ele>14.56</ele>
        <time>2013-10-27T09:01:32Z</time>
      </trkpt>
      <trkpt lat="47.24555" lon="-1.57397">
        <ele>14.56</ele>
        <time>2013-10-27T09:01:35Z</time>
      </trkpt>
      <trkpt lat="47.2455" lon="-1.57377">
        <ele>14.56</ele>
        <time>2013-10-27T09:01:38Z</time>
      </trkpt>
      <trkpt lat="47.24547" lon="-1.57361">
        <ele>14.56</ele>
        <time>2013-10-27T09:01:40Z</time>
      </trkpt>
      <trkpt lat="47.24543" lon="-1.57345">
        <ele>15.04</ele>
        <time>2013-10-27T09:01:42Z</time>
      </trkpt>
      <trkpt lat="47.24539" lon="-1.57321">
        <ele>14.08</ele>
        <time>2013-10-27T09:01:45Z</time>
      </trkpt>
      <trkpt lat="47.24536" lon="-1.57299">
        <ele>13.6</ele>
        <time>2013-10-27T09:01:48Z</time>
      </trkpt>
      <trkpt lat="47.24538" lon="-1.57276">
        <ele>12.63</ele>
        <time>2013-10-27T09:01:51Z</time>
      </trkpt>
      <trkpt lat="47.24541" lon="-1.57256">
        <ele>10.71</ele>
        <time>2013-10-27T09:01:54Z</time>
      </trkpt>
      <trkpt lat="47.24545" lon="-1.57238">
        <ele>8.31</ele>
        <time>2013-10-27T09:01:57Z</time>
      </trkpt>
      <trkpt lat="47.24548" lon="-1.57221">
        <ele>7.83</ele>
        <time>2013-10-27T09:02:00Z</time>
      </trkpt>
      <trkpt lat="47.24549" lon="-1.57205">
        <ele>8.31</ele>
        <time>2013-10-27T09:02:03Z</time>
      </trkpt>
      <trkpt lat="47.24552" lon="-1.57186">
        <ele>8.79</ele>
        <time>2013-10-27T09:02:06Z</time>
      </trkpt>
      <trkpt lat="47.24552" lon="-1.57171">
        <ele>9.27</ele>
        <time>2013-10-27T09:02:08Z</time>
      </trkpt>
      <trkpt lat="47.24546" lon="-1.57158">
        <ele>9.27</ele>
        <time>2013-10-27T09:02:10Z</time>
      </trkpt>
      <trkpt lat="47.24538" lon="-1.57146">
        <ele>9.27</ele>
        <time>2013-10-27T09:02:12Z</time>
      </trkpt>
      <trkpt lat="47.24533" lon="-1.57135">
        <ele>9.27</ele>
        <time>2013-10-27T09:02:14Z</time>
      </trkpt>
      <trkpt lat="47.24527" lon="-1.57123">
        <ele>10.23</ele>
        <time>2013-10-27T09:02:17Z</time>
      </trkpt>
      <trkpt lat="47.24514" lon="-1.57117">
        <ele>11.19</ele>
        <time>2013-10-27T09:02:22Z</time>
      </trkpt>
      <trkpt lat="47.24503" lon="-1.57109">
        <ele>11.19</ele>
        <time>2013-10-27T09:02:25Z</time>
      </trkpt>
      <trkpt lat="47.24496" lon="-1.57097">
        <ele>11.67</ele>
        <time>2013-10-27T09:02:28Z</time>
      </trkpt>
      <trkpt lat="47.2449" lon="-1.5708">
        <ele>11.67</ele>
        <time>2013-10-27T09:02:31Z</time>
      </trkpt>
      <trkpt lat="47.24484" lon="-1.57067">
        <ele>11.67</ele>
        <time>2013-10-27T09:02:33Z</time>
      </trkpt>
      <trkpt lat="47.24476" lon="-1.57053">
        <ele>11.67</ele>
        <time>2013-10-27T09:02:35Z</time>
      </trkpt>
      <trkpt lat="47.24467" lon="-1.57039">
        <ele>12.15</ele>
        <time>2013-10-27T09:02:37Z</time>
      </trkpt>
      <trkpt lat="47.24458" lon="-1.57026">
        <ele>12.15</ele>
        <time>2013-10-27T09:02:39Z</time>
      </trkpt>
      <trkpt lat="47.24448" lon="-1.57012">
        <ele>12.15</ele>
        <time>2013-10-27T09:02:41Z</time>
      </trkpt>
      <trkpt lat="47.24438" lon="-1.56999">
        <ele>12.15</ele>
        <time>2013-10-27T09:02:43Z</time>
      </trkpt>
      <trkpt lat="47.24429" lon="-1.56985">
        <ele>12.15</ele>
        <time>2013-10-27T09:02:45Z</time>
      </trkpt>
      <trkpt lat="47.24421" lon="-1.56972">
        <ele>12.63</ele>
        <time>2013-10-27T09:02:47Z</time>
      </trkpt>
      <trkpt lat="47.24413" lon="-1.56959">
        <ele>12.63</ele>
        <time>2013-10-27T09:02:49Z</time>
      </trkpt>
      <trkpt lat="47.24406" lon="-1.56946">
        <ele>12.63</ele>
        <time>2013-10-27T09:02:51Z</time>
      </trkpt>
      <trkpt lat="47.24398" lon="-1.56933">
        <ele>12.63</ele>
        <time>2013-10-27T09:02:53Z</time>
      </trkpt>
      <trkpt lat="47.24392" lon="-1.56921">
        <ele>12.63</ele>
        <time>2013-10-27T09:02:55Z</time>
      </trkpt>
      <trkpt lat="47.24385" lon="-1.56909">
        <ele>12.63</ele>
        <time>2013-10-27T09:02:57Z</time>
      </trkpt>
      <trkpt lat="47.24379" lon="-1.56897">
        <ele>12.63</ele>
        <time>2013-10-27T09:02:59Z</time>
      </trkpt>
      <trkpt lat="47.24375" lon="-1.56885">
        <ele>12.63</ele>
        <time>2013-10-27T09:03:01Z</time>
      </trkpt>
      <trkpt lat="47.2437" lon="-1.56868">
        <ele>12.15</ele>
        <time>2013-10-27T09:03:04Z</time>
      </trkpt>
      <trkpt lat="47.24366" lon="-1.56853">
        <ele>11.67</ele>
        <time>2013-10-27T09:03:07Z</time>
      </trkpt>
      <trkpt lat="47.24363" lon="-1.56836">
        <ele>13.6</ele>
        <time>2013-10-27T09:03:10Z</time>
      </trkpt>
      <trkpt lat="47.24361" lon="-1.56818">
        <ele>14.56</ele>
        <time>2013-10-27T09:03:13Z</time>
      </trkpt>
      <trkpt lat="47.24357" lon="-1.56799">
        <ele>14.56</ele>
        <time>2013-10-27T09:03:16Z</time>
      </trkpt>
      <trkpt lat="47.24351" lon="-1.56783">
        <ele>15.04</ele>
        <time>2013-10-27T09:03:19Z</time>
      </trkpt>
      <trkpt lat="47.24346" lon="-1.56768">
        <ele>15.52</ele>
        <time>2013-10-27T09:03:22Z</time>
      </trkpt>
      <trkpt lat="47.24341" lon="-1.56751">
        <ele>16</ele>
        <time>2013-10-27T09:03:25Z</time>
      </trkpt>
      <trkpt lat="47.24338" lon="-1.56732">
        <ele>16</ele>
        <time>2013-10-27T09:03:28Z</time>
      </trkpt>
      <trkpt lat="47.24332" lon="-1.56714">
        <ele>15.04</ele>
        <time>2013-10-27T09:03:31Z</time>
      </trkpt>
      <trkpt lat="47.24326" lon="-1.56699">
        <ele>14.56</ele>
        <time>2013-10-27T09:03:34Z</time>
      </trkpt>
      <trkpt lat="47.2432" lon="-1.56683">
        <ele>13.6</ele>
        <time>2013-10-27T09:03:37Z</time>
      </trkpt>
      <trkpt lat="47.24317" lon="-1.56666">
        <ele>12.63</ele>
        <time>2013-10-27T09:03:40Z</time>
      </trkpt>
      <trkpt lat="47.24315" lon="-1.56645">
        <ele>11.67</ele>
        <time>2013-10-27T09:03:43Z</time>
      </trkpt>
      <trkpt lat="47.24317" lon="-1.5662">
        <ele>10.71</ele>
        <time>2013-10-27T09:03:46Z</time>
      </trkpt>
      <trkpt lat="47.24318" lon="-1.56598">
        <ele>11.67</ele>
        <time>2013-10-27T09:03:49Z</time>
      </trkpt>
      <trkpt lat="47.24316" lon="-1.56578">
        <ele>12.15</ele>
        <time>2013-10-27T09:03:52Z</time>
      </trkpt>
      <trkpt lat="47.24314" lon="-1.5656">
        <ele>12.63</ele>
        <time>2013-10-27T09:03:55Z</time>
      </trkpt>
      <trkpt lat="47.24326" lon="-1.56542">
        <ele>13.12</ele>
        <time>2013-10-27T09:03:58Z</time>
      </trkpt>
      <trkpt lat="47.24336" lon="-1.56525">
        <ele>14.08</ele>
        <time>2013-10-27T09:04:01Z</time>
      </trkpt>
      <trkpt lat="47.2434" lon="-1.56511">
        <ele>15.04</ele>
        <time>2013-10-27T09:04:04Z</time>
      </trkpt>
      <trkpt lat="47.24338" lon="-1.56497">
        <ele>15.04</ele>
        <time>2013-10-27T09:04:07Z</time>
      </trkpt>
      <trkpt lat="47.24338" lon="-1.5648">
        <ele>15.04</ele>
        <time>2013-10-27T09:04:11Z</time>
      </trkpt>
      <trkpt lat="47.24343" lon="-1.56462">
        <ele>14.56</ele>
        <time>2013-10-27T09:04:15Z</time>
      </trkpt>
      <trkpt lat="47.24349" lon="-1.56448">
        <ele>15.04</ele>
        <time>2013-10-27T09:04:18Z</time>
      </trkpt>
      <trkpt lat="47.24352" lon="-1.5643">
        <ele>15.04</ele>
        <time>2013-10-27T09:04:21Z</time>
      </trkpt>
      <trkpt lat="47.24352" lon="-1.56414">
        <ele>15.04</ele>
        <time>2013-10-27T09:04:24Z</time>
      </trkpt>
      <trkpt lat="47.2435" lon="-1.56401">
        <ele>15.04</ele>
        <time>2013-10-27T09:04:27Z</time>
      </trkpt>
      <trkpt lat="47.24349" lon="-1.56378">
        <ele>15.52</ele>
        <time>2013-10-27T09:04:30Z</time>
      </trkpt>
      <trkpt lat="47.24351" lon="-1.56359">
        <ele>16</ele>
        <time>2013-10-27T09:04:33Z</time>
      </trkpt>
      <trkpt lat="47.24356" lon="-1.56333">
        <ele>15.52</ele>
        <time>2013-10-27T09:04:37Z</time>
      </trkpt>
      <trkpt lat="47.24366" lon="-1.56309">
        <ele>16.96</ele>
        <time>2013-10-27T09:04:42Z</time>
      </trkpt>
      <trkpt lat="47.24369" lon="-1.56272">
        <ele>19.84</ele>
        <time>2013-10-27T09:04:46Z</time>
      </trkpt>
      <trkpt lat="47.24368" lon="-1.5624">
        <ele>21.29</ele>
        <time>2013-10-27T09:04:49Z</time>
      </trkpt>
      <trkpt lat="47.24363" lon="-1.56223">
        <ele>21.29</ele>
        <time>2013-10-27T09:04:52Z</time>
      </trkpt>
      <trkpt lat="47.24356" lon="-1.56212">
        <ele>21.29</ele>
        <time>2013-10-27T09:04:55Z</time>
      </trkpt>
      <trkpt lat="47.2435" lon="-1.56198">
        <ele>20.32</ele>
        <time>2013-10-27T09:04:58Z</time>
      </trkpt>
      <trkpt lat="47.24344" lon="-1.56182">
        <ele>19.84</ele>
        <time>2013-10-27T09:05:01Z</time>
      </trkpt>
      <trkpt lat="47.24336" lon="-1.56168">
        <ele>19.84</ele>
        <time>2013-10-27T09:05:04Z</time>
      </trkpt>
      <trkpt lat="47.24328" lon="-1.56156">
        <ele>19.84</ele>
        <time>2013-10-27T09:05:07Z</time>
      </trkpt>
      <trkpt lat="47.2432" lon="-1.56144">
        <ele>19.36</ele>
        <time>2013-10-27T09:05:10Z</time>
      </trkpt>
      <trkpt lat="47.24311" lon="-1.56132">
        <ele>18.4</ele>
        <time>2013-10-27T09:05:13Z</time>
      </trkpt>
      <trkpt lat="47.24303" lon="-1.56122">
        <ele>17.92</ele>
        <time>2013-10-27T09:05:16Z</time>
      </trkpt>
      <trkpt lat="47.24294" lon="-1.56108">
        <ele>17.44</ele>
        <time>2013-10-27T09:05:20Z</time>
      </trkpt>
      <trkpt lat="47.24287" lon="-1.56089">
        <ele>17.92</ele>
        <time>2013-10-27T09:05:24Z</time>
      </trkpt>
      <trkpt lat="47.24279" lon="-1.5607">
        <ele>17.92</ele>
        <time>2013-10-27T09:05:28Z</time>
      </trkpt>
      <trkpt lat="47.24277" lon="-1.5605">
        <ele>18.88</ele>
        <time>2013-10-27T09:05:34Z</time>
      </trkpt>
      <trkpt lat="47.24272" lon="-1.56035">
        <ele>18.88</ele>
        <time>2013-10-27T09:05:37Z</time>
      </trkpt>
      <trkpt lat="47.24269" lon="-1.56018">
        <ele>19.36</ele>
        <time>2013-10-27T09:05:40Z</time>
      </trkpt>
      <trkpt lat="47.24265" lon="-1.56">
        <ele>19.84</ele>
        <time>2013-10-27T09:05:43Z</time>
      </trkpt>
      <trkpt lat="47.24261" lon="-1.55979">
        <ele>20.32</ele>
        <time>2013-10-27T09:05:46Z</time>
      </trkpt>
      <trkpt lat="47.24258" lon="-1.55959">
        <ele>20.32</ele>
        <time>2013-10-27T09:05:49Z</time>
      </trkpt>
      <trkpt lat="47.24256" lon="-1.55945">
        <ele>20.32</ele>
        <time>2013-10-27T09:05:51Z</time>
      </trkpt>
      <trkpt lat="47.24253" lon="-1.55923">
        <ele>19.84</ele>
        <time>2013-10-27T09:05:54Z</time>
      </trkpt>
      <trkpt lat="47.24249" lon="-1.55901">
        <ele>19.36</ele>
        <time>2013-10-27T09:05:57Z</time>
      </trkpt>
      <trkpt lat="47.24247" lon="-1.55886">
        <ele>18.88</ele>
        <time>2013-10-27T09:05:59Z</time>
      </trkpt>
      <trkpt lat="47.24245" lon="-1.5587">
        <ele>18.88</ele>
        <time>2013-10-27T09:06:01Z</time>
      </trkpt>
      <trkpt lat="47.24244" lon="-1.55855">
        <ele>18.88</ele>
        <time>2013-10-27T09:06:03Z</time>
      </trkpt>
      <trkpt lat="47.24242" lon="-1.55835">
        <ele>18.88</ele>
        <time>2013-10-27T09:06:06Z</time>
      </trkpt>
      <trkpt lat="47.24241" lon="-1.55821">
        <ele>18.4</ele>
        <time>2013-10-27T09:06:08Z</time>
      </trkpt>
      <trkpt lat="47.24239" lon="-1.558">
        <ele>17.92</ele>
        <time>2013-10-27T09:06:11Z</time>
      </trkpt>
      <trkpt lat="47.24238" lon="-1.55784">
        <ele>17.44</ele>
        <time>2013-10-27T09:06:13Z</time>
      </trkpt>
      <trkpt lat="47.24237" lon="-1.5577">
        <ele>16.96</ele>
        <time>2013-10-27T09:06:15Z</time>
      </trkpt>
      <trkpt lat="47.24234" lon="-1.55748">
        <ele>16</ele>
        <time>2013-10-27T09:06:18Z</time>
      </trkpt>
      <trkpt lat="47.24234" lon="-1.55731">
        <ele>15.52</ele>
        <time>2013-10-27T09:06:21Z</time>
      </trkpt>
      <trkpt lat="47.24231" lon="-1.55715">
        <ele>16.48</ele>
        <time>2013-10-27T09:06:24Z</time>
      </trkpt>
      <trkpt lat="47.24229" lon="-1.55699">
        <ele>17.92</ele>
        <time>2013-10-27T09:06:27Z</time>
      </trkpt>
      <trkpt lat="47.24228" lon="-1.55682">
        <ele>19.84</ele>
        <time>2013-10-27T09:06:31Z</time>
      </trkpt>
      <trkpt lat="47.24224" lon="-1.55664">
        <ele>10.71</ele>
        <time>2013-10-27T09:08:36Z</time>
      </trkpt>
      <trkpt lat="47.24228" lon="-1.5567">
        <ele>9.75</ele>
        <time>2013-10-27T09:13:50Z</time>
      </trkpt>
      <trkpt lat="47.2423" lon="-1.55685">
        <ele>9.27</ele>
        <time>2013-10-27T09:13:56Z</time>
      </trkpt>
      <trkpt lat="47.24234" lon="-1.55701">
        <ele>8.31</ele>
        <time>2013-10-27T09:13:59Z</time>
      </trkpt>
      <trkpt lat="47.24237" lon="-1.5572">
        <ele>6.87</ele>
        <time>2013-10-27T09:14:02Z</time>
      </trkpt>
      <trkpt lat="47.2424" lon="-1.55733">
        <ele>5.42</ele>
        <time>2013-10-27T09:14:04Z</time>
      </trkpt>
      <trkpt lat="47.24242" lon="-1.55748">
        <ele>4.94</ele>
        <time>2013-10-27T09:14:06Z</time>
      </trkpt>
      <trkpt lat="47.24244" lon="-1.55764">
        <ele>3.98</ele>
        <time>2013-10-27T09:14:08Z</time>
      </trkpt>
      <trkpt lat="47.24246" lon="-1.55779">
        <ele>3.5</ele>
        <time>2013-10-27T09:14:10Z</time>
      </trkpt>
      <trkpt lat="47.24247" lon="-1.55799">
        <ele>2.06</ele>
        <time>2013-10-27T09:14:13Z</time>
      </trkpt>
      <trkpt lat="47.24248" lon="-1.55818">
        <ele>1.1</ele>
        <time>2013-10-27T09:14:16Z</time>
      </trkpt>
      <trkpt lat="47.24249" lon="-1.55838">
        <ele>0.62</ele>
        <time>2013-10-27T09:14:19Z</time>
      </trkpt>
      <trkpt lat="47.24251" lon="-1.55856">
        <ele>0.14</ele>
        <time>2013-10-27T09:14:22Z</time>
      </trkpt>
      <trkpt lat="47.24254" lon="-1.55875">
        <ele>-0.34</ele>
        <time>2013-10-27T09:14:25Z</time>
      </trkpt>
      <trkpt lat="47.24256" lon="-1.5589">
        <ele>-0.82</ele>
        <time>2013-10-27T09:14:28Z</time>
      </trkpt>
      <trkpt lat="47.24255" lon="-1.55904">
        <ele>-1.3</ele>
        <time>2013-10-27T09:14:31Z</time>
      </trkpt>
      <trkpt lat="47.24256" lon="-1.5592">
        <ele>-0.82</ele>
        <time>2013-10-27T09:14:34Z</time>
      </trkpt>
      <trkpt lat="47.24257" lon="-1.55934">
        <ele>-0.82</ele>
        <time>2013-10-27T09:14:36Z</time>
      </trkpt>
      <trkpt lat="47.24259" lon="-1.55949">
        <ele>-0.82</ele>
        <time>2013-10-27T09:14:38Z</time>
      </trkpt>
      <trkpt lat="47.24262" lon="-1.55968">
        <ele>-1.79</ele>
        <time>2013-10-27T09:14:41Z</time>
      </trkpt>
      <trkpt lat="47.24265" lon="-1.55985">
        <ele>-2.75</ele>
        <time>2013-10-27T09:14:44Z</time>
      </trkpt>
      <trkpt lat="47.24269" lon="-1.56002">
        <ele>-4.67</ele>
        <time>2013-10-27T09:14:47Z</time>
      </trkpt>
      <trkpt lat="47.24272" lon="-1.56017">
        <ele>-5.63</ele>
        <time>2013-10-27T09:14:50Z</time>
      </trkpt>
      <trkpt lat="47.24276" lon="-1.5603">
        <ele>-5.63</ele>
        <time>2013-10-27T09:14:54Z</time>
      </trkpt>
      <trkpt lat="47.2427" lon="-1.56042">
        <ele>-1.79</ele>
        <time>2013-10-27T09:15:01Z</time>
      </trkpt>
      <trkpt lat="47.24268" lon="-1.56055">
        <ele>-0.82</ele>
        <time>2013-10-27T09:15:06Z</time>
      </trkpt>
      <trkpt lat="47.24275" lon="-1.56066">
        <ele>-0.34</ele>
        <time>2013-10-27T09:15:11Z</time>
      </trkpt>
      <trkpt lat="47.2428" lon="-1.56077">
        <ele>-0.82</ele>
        <time>2013-10-27T09:15:15Z</time>
      </trkpt>
      <trkpt lat="47.24286" lon="-1.56092">
        <ele>0.14</ele>
        <time>2013-10-27T09:15:19Z</time>
      </trkpt>
      <trkpt lat="47.24293" lon="-1.56103">
        <ele>0.62</ele>
        <time>2013-10-27T09:15:23Z</time>
      </trkpt>
      <trkpt lat="47.243" lon="-1.56115">
        <ele>0.62</ele>
        <time>2013-10-27T09:15:27Z</time>
      </trkpt>
      <trkpt lat="47.24308" lon="-1.56127">
        <ele>1.1</ele>
        <time>2013-10-27T09:15:32Z</time>
      </trkpt>
      <trkpt lat="47.24316" lon="-1.56143">
        <ele>2.54</ele>
        <time>2013-10-27T09:15:39Z</time>
      </trkpt>
      <trkpt lat="47.24346" lon="-1.56172">
        <ele>5.42</ele>
        <time>2013-10-27T09:16:25Z</time>
      </trkpt>
      <trkpt lat="47.24352" lon="-1.56183">
        <ele>6.39</ele>
        <time>2013-10-27T09:16:29Z</time>
      </trkpt>
      <trkpt lat="47.24361" lon="-1.56194">
        <ele>7.83</ele>
        <time>2013-10-27T09:16:33Z</time>
      </trkpt>
      <trkpt lat="47.24369" lon="-1.56204">
        <ele>8.79</ele>
        <time>2013-10-27T09:16:36Z</time>
      </trkpt>
      <trkpt lat="47.24379" lon="-1.56215">
        <ele>9.27</ele>
        <time>2013-10-27T09:16:39Z</time>
      </trkpt>
      <trkpt lat="47.24387" lon="-1.56228">
        <ele>9.75</ele>
        <time>2013-10-27T09:16:42Z</time>
      </trkpt>
      <trkpt lat="47.2439" lon="-1.5624">
        <ele>9.27</ele>
        <time>2013-10-27T09:16:45Z</time>
      </trkpt>
      <trkpt lat="47.24389" lon="-1.56258">
        <ele>9.27</ele>
        <time>2013-10-27T09:16:48Z</time>
      </trkpt>
      <trkpt lat="47.24386" lon="-1.5628">
        <ele>9.75</ele>
        <time>2013-10-27T09:16:52Z</time>
      </trkpt>
      <trkpt lat="47.24382" lon="-1.56314">
        <ele>7.83</ele>
        <time>2013-10-27T09:17:10Z</time>
      </trkpt>
      <trkpt lat="47.2438" lon="-1.56329">
        <ele>8.31</ele>
        <time>2013-10-27T09:17:13Z</time>
      </trkpt>
      <trkpt lat="47.2438" lon="-1.56346">
        <ele>8.31</ele>
        <time>2013-10-27T09:17:16Z</time>
      </trkpt>
      <trkpt lat="47.24381" lon="-1.5636">
        <ele>8.31</ele>
        <time>2013-10-27T09:17:18Z</time>
      </trkpt>
      <trkpt lat="47.24381" lon="-1.56381">
        <ele>8.31</ele>
        <time>2013-10-27T09:17:21Z</time>
      </trkpt>
      <trkpt lat="47.24376" lon="-1.56402">
        <ele>9.75</ele>
        <time>2013-10-27T09:17:24Z</time>
      </trkpt>
      <trkpt lat="47.24368" lon="-1.56422">
        <ele>10.71</ele>
        <time>2013-10-27T09:17:28Z</time>
      </trkpt>
      <trkpt lat="47.24363" lon="-1.56439">
        <ele>10.23</ele>
        <time>2013-10-27T09:17:33Z</time>
      </trkpt>
      <trkpt lat="47.24362" lon="-1.56454">
        <ele>10.23</ele>
        <time>2013-10-27T09:17:36Z</time>
      </trkpt>
      <trkpt lat="47.24362" lon="-1.56473">
        <ele>10.23</ele>
        <time>2013-10-27T09:17:40Z</time>
      </trkpt>
      <trkpt lat="47.24362" lon="-1.56489">
        <ele>10.23</ele>
        <time>2013-10-27T09:17:43Z</time>
      </trkpt>
      <trkpt lat="47.24356" lon="-1.56505">
        <ele>10.71</ele>
        <time>2013-10-27T09:17:46Z</time>
      </trkpt>
      <trkpt lat="47.24348" lon="-1.56518">
        <ele>11.19</ele>
        <time>2013-10-27T09:17:48Z</time>
      </trkpt>
      <trkpt lat="47.24345" lon="-1.56539">
        <ele>10.71</ele>
        <time>2013-10-27T09:17:51Z</time>
      </trkpt>
      <trkpt lat="47.24346" lon="-1.56558">
        <ele>10.71</ele>
        <time>2013-10-27T09:17:54Z</time>
      </trkpt>
      <trkpt lat="47.24344" lon="-1.56578">
        <ele>10.23</ele>
        <time>2013-10-27T09:17:57Z</time>
      </trkpt>
      <trkpt lat="47.24344" lon="-1.56597">
        <ele>9.75</ele>
        <time>2013-10-27T09:18:00Z</time>
      </trkpt>
      <trkpt lat="47.24347" lon="-1.56617">
        <ele>10.23</ele>
        <time>2013-10-27T09:18:03Z</time>
      </trkpt>
      <trkpt lat="47.24346" lon="-1.56638">
        <ele>10.71</ele>
        <time>2013-10-27T09:18:06Z</time>
      </trkpt>
      <trkpt lat="47.24349" lon="-1.56658">
        <ele>10.71</ele>
        <time>2013-10-27T09:18:09Z</time>
      </trkpt>
      <trkpt lat="47.24353" lon="-1.56677">
        <ele>11.19</ele>
        <time>2013-10-27T09:18:12Z</time>
      </trkpt>
      <trkpt lat="47.24352" lon="-1.56696">
        <ele>10.71</ele>
        <time>2013-10-27T09:18:15Z</time>
      </trkpt>
      <trkpt lat="47.24346" lon="-1.56717">
        <ele>11.19</ele>
        <time>2013-10-27T09:18:19Z</time>
      </trkpt>
      <trkpt lat="47.24343" lon="-1.56736">
        <ele>10.23</ele>
        <time>2013-10-27T09:18:22Z</time>
      </trkpt>
      <trkpt lat="47.2434" lon="-1.56757">
        <ele>7.83</ele>
        <time>2013-10-27T09:18:25Z</time>
      </trkpt>
      <trkpt lat="47.24339" lon="-1.56775">
        <ele>7.35</ele>
        <time>2013-10-27T09:18:28Z</time>
      </trkpt>
      <trkpt lat="47.24337" lon="-1.56795">
        <ele>6.87</ele>
        <time>2013-10-27T09:18:33Z</time>
      </trkpt>
      <trkpt lat="47.24336" lon="-1.56813">
        <ele>5.42</ele>
        <time>2013-10-27T09:18:38Z</time>
      </trkpt>
      <trkpt lat="47.24333" lon="-1.56832">
        <ele>4.46</ele>
        <time>2013-10-27T09:18:44Z</time>
      </trkpt>
      <trkpt lat="47.24329" lon="-1.56849">
        <ele>3.02</ele>
        <time>2013-10-27T09:18:50Z</time>
      </trkpt>
      <trkpt lat="47.24335" lon="-1.56864">
        <ele>1.58</ele>
        <time>2013-10-27T09:18:54Z</time>
      </trkpt>
      <trkpt lat="47.24334" lon="-1.5688">
        <ele>0.62</ele>
        <time>2013-10-27T09:18:57Z</time>
      </trkpt>
      <trkpt lat="47.24331" lon="-1.56899">
        <ele>-0.82</ele>
        <time>2013-10-27T09:19:02Z</time>
      </trkpt>
      <trkpt lat="47.2433" lon="-1.56919">
        <ele>-0.82</ele>
        <time>2013-10-27T09:19:06Z</time>
      </trkpt>
      <trkpt lat="47.24328" lon="-1.56941">
        <ele>4.94</ele>
        <time>2013-10-27T09:19:20Z</time>
      </trkpt>
      <trkpt lat="47.24332" lon="-1.56953">
        <ele>7.83</ele>
        <time>2013-10-27T09:19:27Z</time>
      </trkpt>
      <trkpt lat="47.24331" lon="-1.5697">
        <ele>8.79</ele>
        <time>2013-10-27T09:19:32Z</time>
      </trkpt>
      <trkpt lat="47.2433" lon="-1.56984">
        <ele>9.75</ele>
        <time>2013-10-27T09:19:37Z</time>
      </trkpt>
      <trkpt lat="47.24322" lon="-1.56996">
        <ele>12.15</ele>
        <time>2013-10-27T09:19:45Z</time>
      </trkpt>
      <trkpt lat="47.24316" lon="-1.57009">
        <ele>13.12</ele>
        <time>2013-10-27T09:19:53Z</time>
      </trkpt>
      <trkpt lat="47.24302" lon="-1.57023">
        <ele>14.56</ele>
        <time>2013-10-27T09:20:03Z</time>
      </trkpt>
      <trkpt lat="47.24294" lon="-1.57044">
        <ele>16.48</ele>
        <time>2013-10-27T09:20:13Z</time>
      </trkpt>
      <trkpt lat="47.24294" lon="-1.57065">
        <ele>17.44</ele>
        <time>2013-10-27T09:20:20Z</time>
      </trkpt>
      <trkpt lat="47.24299" lon="-1.57082">
        <ele>17.44</ele>
        <time>2013-10-27T09:20:27Z</time>
      </trkpt>
      <trkpt lat="47.24296" lon="-1.57098">
        <ele>18.88</ele>
        <time>2013-10-27T09:20:33Z</time>
      </trkpt>
      <trkpt lat="47.243" lon="-1.5712">
        <ele>16.48</ele>
        <time>2013-10-27T09:20:40Z</time>
      </trkpt>
      <trkpt lat="47.24295" lon="-1.57128">
        <ele>46.28</ele>
        <time>2013-10-27T09:22:45Z</time>
      </trkpt>
      <trkpt lat="47.24304" lon="-1.57119">
        <ele>48.68</ele>
        <time>2013-10-27T09:22:51Z</time>
      </trkpt>
      <trkpt lat="47.24312" lon="-1.5711">
        <ele>49.65</ele>
        <time>2013-10-27T09:22:56Z</time>
      </trkpt>
      <trkpt lat="47.24322" lon="-1.57098">
        <ele>50.61</ele>
        <time>2013-10-27T09:23:00Z</time>
      </trkpt>
      <trkpt lat="47.2433" lon="-1.57088">
        <ele>50.13</ele>
        <time>2013-10-27T09:23:02Z</time>
      </trkpt>
      <trkpt lat="47.2434" lon="-1.57076">
        <ele>49.16</ele>
        <time>2013-10-27T09:23:05Z</time>
      </trkpt>
      <trkpt lat="47.2435" lon="-1.57075">
        <ele>46.76</ele>
        <time>2013-10-27T09:23:08Z</time>
      </trkpt>
      <trkpt lat="47.24365" lon="-1.57075">
        <ele>43.4</ele>
        <time>2013-10-27T09:23:11Z</time>
      </trkpt>
      <trkpt lat="47.24379" lon="-1.57079">
        <ele>40.99</ele>
        <time>2013-10-27T09:23:13Z</time>
      </trkpt>
      <trkpt lat="47.24393" lon="-1.57083">
        <ele>37.63</ele>
        <time>2013-10-27T09:23:15Z</time>
      </trkpt>
      <trkpt lat="47.24406" lon="-1.57085">
        <ele>34.74</ele>
        <time>2013-10-27T09:23:17Z</time>
      </trkpt>
      <trkpt lat="47.24419" lon="-1.57086">
        <ele>32.82</ele>
        <time>2013-10-27T09:23:19Z</time>
      </trkpt>
      <trkpt lat="47.24429" lon="-1.57089">
        <ele>31.86</ele>
        <time>2013-10-27T09:23:21Z</time>
      </trkpt>
      <trkpt lat="47.24439" lon="-1.57092">
        <ele>31.38</ele>
        <time>2013-10-27T09:23:23Z</time>
      </trkpt>
      <trkpt lat="47.2445" lon="-1.57094">
        <ele>30.42</ele>
        <time>2013-10-27T09:23:25Z</time>
      </trkpt>
      <trkpt lat="47.24461" lon="-1.57096">
        <ele>30.42</ele>
        <time>2013-10-27T09:23:29Z</time>
      </trkpt>
      <trkpt lat="47.24462" lon="-1.57111">
        <ele>28.5</ele>
        <time>2013-10-27T09:23:37Z</time>
      </trkpt>
      <trkpt lat="47.2446" lon="-1.57126">
        <ele>27.05</ele>
        <time>2013-10-27T09:23:42Z</time>
      </trkpt>
      <trkpt lat="47.24461" lon="-1.57142">
        <ele>25.61</ele>
        <time>2013-10-27T09:23:46Z</time>
      </trkpt>
      <trkpt lat="47.2446" lon="-1.57158">
        <ele>23.21</ele>
        <time>2013-10-27T09:23:50Z</time>
      </trkpt>
      <trkpt lat="47.24452" lon="-1.57172">
        <ele>22.73</ele>
        <time>2013-10-27T09:23:56Z</time>
      </trkpt>
      <trkpt lat="47.24441" lon="-1.57173">
        <ele>25.13</ele>
        <time>2013-10-27T09:24:02Z</time>
      </trkpt>
      <trkpt lat="47.24429" lon="-1.57173">
        <ele>28.5</ele>
        <time>2013-10-27T09:24:06Z</time>
      </trkpt>
      <trkpt lat="47.24418" lon="-1.57173">
        <ele>32.34</ele>
        <time>2013-10-27T09:24:12Z</time>
      </trkpt>
      <trkpt lat="47.24424" lon="-1.57174">
        <ele>33.78</ele>
        <time>2013-10-27T09:24:25Z</time>
      </trkpt>
      <trkpt lat="47.24434" lon="-1.57175">
        <ele>31.86</ele>
        <time>2013-10-27T09:24:29Z</time>
      </trkpt>
      <trkpt lat="47.24446" lon="-1.57176">
        <ele>29.94</ele>
        <time>2013-10-27T09:24:32Z</time>
      </trkpt>
      <trkpt lat="47.24455" lon="-1.57179">
        <ele>28.02</ele>
        <time>2013-10-27T09:24:35Z</time>
      </trkpt>
      <trkpt lat="47.24464" lon="-1.57182">
        <ele>24.65</ele>
        <time>2013-10-27T09:24:43Z</time>
      </trkpt>
      <trkpt lat="47.24473" lon="-1.57194">
        <ele>24.17</ele>
        <time>2013-10-27T09:24:47Z</time>
      </trkpt>
      <trkpt lat="47.24471" lon="-1.57213">
        <ele>23.69</ele>
        <time>2013-10-27T09:24:51Z</time>
      </trkpt>
      <trkpt lat="47.24473" lon="-1.57228">
        <ele>23.21</ele>
        <time>2013-10-27T09:24:55Z</time>
      </trkpt>
      <trkpt lat="47.24472" lon="-1.57246">
        <ele>23.21</ele>
        <time>2013-10-27T09:24:59Z</time>
      </trkpt>
      <trkpt lat="47.24476" lon="-1.57264">
        <ele>22.73</ele>
        <time>2013-10-27T09:25:03Z</time>
      </trkpt>
      <trkpt lat="47.24483" lon="-1.57276">
        <ele>22.73</ele>
        <time>2013-10-27T09:25:06Z</time>
      </trkpt>
      <trkpt lat="47.2449" lon="-1.57287">
        <ele>22.25</ele>
        <time>2013-10-27T09:25:09Z</time>
      </trkpt>
      <trkpt lat="47.24497" lon="-1.57299">
        <ele>21.77</ele>
        <time>2013-10-27T09:25:12Z</time>
      </trkpt>
      <trkpt lat="47.24506" lon="-1.5731">
        <ele>21.29</ele>
        <time>2013-10-27T09:25:15Z</time>
      </trkpt>
      <trkpt lat="47.24515" lon="-1.57323">
        <ele>20.32</ele>
        <time>2013-10-27T09:25:18Z</time>
      </trkpt>
      <trkpt lat="47.2452" lon="-1.57334">
        <ele>19.84</ele>
        <time>2013-10-27T09:25:21Z</time>
      </trkpt>
      <trkpt lat="47.24516" lon="-1.57351">
        <ele>17.92</ele>
        <time>2013-10-27T09:25:24Z</time>
      </trkpt>
      <trkpt lat="47.24514" lon="-1.57367">
        <ele>16.96</ele>
        <time>2013-10-27T09:25:27Z</time>
      </trkpt>
      <trkpt lat="47.24513" lon="-1.57384">
        <ele>14.56</ele>
        <time>2013-10-27T09:25:30Z</time>
      </trkpt>
      <trkpt lat="47.24511" lon="-1.57399">
        <ele>12.63</ele>
        <time>2013-10-27T09:25:33Z</time>
      </trkpt>
      <trkpt lat="47.24509" lon="-1.57414">
        <ele>12.15</ele>
        <time>2013-10-27T09:25:36Z</time>
      </trkpt>
      <trkpt lat="47.24509" lon="-1.57429">
        <ele>12.15</ele>
        <time>2013-10-27T09:25:39Z</time>
      </trkpt>
      <trkpt lat="47.24512" lon="-1.57442">
        <ele>11.67</ele>
        <time>2013-10-27T09:25:42Z</time>
      </trkpt>
      <trkpt lat="47.24517" lon="-1.57455">
        <ele>11.19</ele>
        <time>2013-10-27T09:25:45Z</time>
      </trkpt>
      <trkpt lat="47.24521" lon="-1.57468">
        <ele>10.71</ele>
        <time>2013-10-27T09:25:48Z</time>
      </trkpt>
      <trkpt lat="47.24526" lon="-1.57482">
        <ele>10.23</ele>
        <time>2013-10-27T09:25:51Z</time>
      </trkpt>
      <trkpt lat="47.24533" lon="-1.57496">
        <ele>9.75</ele>
        <time>2013-10-27T09:25:54Z</time>
      </trkpt>
      <trkpt lat="47.2454" lon="-1.57509">
        <ele>9.75</ele>
        <time>2013-10-27T09:25:57Z</time>
      </trkpt>
      <trkpt lat="47.24549" lon="-1.57517">
        <ele>9.75</ele>
        <time>2013-10-27T09:26:00Z</time>
      </trkpt>
      <trkpt lat="47.2456" lon="-1.57522">
        <ele>9.27</ele>
        <time>2013-10-27T09:26:03Z</time>
      </trkpt>
      <trkpt lat="47.2457" lon="-1.57528">
        <ele>9.75</ele>
        <time>2013-10-27T09:26:06Z</time>
      </trkpt>
      <trkpt lat="47.24581" lon="-1.57534">
        <ele>9.75</ele>
        <time>2013-10-27T09:26:09Z</time>
      </trkpt>
      <trkpt lat="47.24592" lon="-1.57537">
        <ele>9.75</ele>
        <time>2013-10-27T09:26:11Z</time>
      </trkpt>
      <trkpt lat="47.24602" lon="-1.57542">
        <ele>10.23</ele>
        <time>2013-10-27T09:26:13Z</time>
      </trkpt>
      <trkpt lat="47.24612" lon="-1.57547">
        <ele>10.23</ele>
        <time>2013-10-27T09:26:15Z</time>
      </trkpt>
      <trkpt lat="47.24621" lon="-1.57553">
        <ele>10.71</ele>
        <time>2013-10-27T09:26:17Z</time>
      </trkpt>
      <trkpt lat="47.24632" lon="-1.5756">
        <ele>10.71</ele>
        <time>2013-10-27T09:26:20Z</time>
      </trkpt>
      <trkpt lat="47.24641" lon="-1.57567">
        <ele>11.19</ele>
        <time>2013-10-27T09:26:22Z</time>
      </trkpt>
      <trkpt lat="47.24649" lon="-1.57574">
        <ele>11.67</ele>
        <time>2013-10-27T09:26:24Z</time>
      </trkpt>
      <trkpt lat="47.24656" lon="-1.57582">
        <ele>12.15</ele>
        <time>2013-10-27T09:26:26Z</time>
      </trkpt>
      <trkpt lat="47.24665" lon="-1.57595">
        <ele>12.15</ele>
        <time>2013-10-27T09:26:29Z</time>
      </trkpt>
      <trkpt lat="47.2467" lon="-1.57611">
        <ele>12.15</ele>
        <time>2013-10-27T09:26:32Z</time>
      </trkpt>
      <trkpt lat="47.24661" lon="-1.57626">
        <ele>12.63</ele>
        <time>2013-10-27T09:26:35Z</time>
      </trkpt>
      <trkpt lat="47.24668" lon="-1.57634">
        <ele>13.6</ele>
        <time>2013-10-27T09:26:40Z</time>
      </trkpt>
      <trkpt lat="47.24678" lon="-1.5763">
        <ele>12.63</ele>
        <time>2013-10-27T09:26:45Z</time>
      </trkpt>
      <trkpt lat="47.24687" lon="-1.57645">
        <ele>12.63</ele>
        <time>2013-10-27T09:26:49Z</time>
      </trkpt>
      <trkpt lat="47.24694" lon="-1.5766">
        <ele>12.63</ele>
        <time>2013-10-27T09:26:52Z</time>
      </trkpt>
      <trkpt lat="47.24702" lon="-1.57676">
        <ele>12.15</ele>
        <time>2013-10-27T09:26:55Z</time>
      </trkpt>
      <trkpt lat="47.24707" lon="-1.57687">
        <ele>12.15</ele>
        <time>2013-10-27T09:26:57Z</time>
      </trkpt>
      <trkpt lat="47.24713" lon="-1.57697">
        <ele>11.67</ele>
        <time>2013-10-27T09:26:59Z</time>
      </trkpt>
      <trkpt lat="47.24722" lon="-1.5771">
        <ele>11.19</ele>
        <time>2013-10-27T09:27:02Z</time>
      </trkpt>
      <trkpt lat="47.24729" lon="-1.57722">
        <ele>12.15</ele>
        <time>2013-10-27T09:27:06Z</time>
      </trkpt>
      <trkpt lat="47.24722" lon="-1.57735">
        <ele>10.71</ele>
        <time>2013-10-27T09:27:26Z</time>
      </trkpt>
      <trkpt lat="47.24712" lon="-1.57733">
        <ele>10.23</ele>
        <time>2013-10-27T09:27:32Z</time>
      </trkpt>
      <trkpt lat="47.24704" lon="-1.57731">
        <ele>9.75</ele>
        <time>2013-10-27T09:27:42Z</time>
      </trkpt>
      <trkpt lat="47.24694" lon="-1.57726">
        <ele>10.23</ele>
        <time>2013-10-27T09:27:46Z</time>
      </trkpt>
      <trkpt lat="47.24688" lon="-1.57724">
        <ele>11.19</ele>
        <time>2013-10-27T09:28:01Z</time>
      </trkpt>
      <trkpt lat="47.24687" lon="-1.57739">
        <ele>10.71</ele>
        <time>2013-10-27T09:28:05Z</time>
      </trkpt>
      <trkpt lat="47.24689" lon="-1.57751">
        <ele>9.75</ele>
        <time>2013-10-27T09:28:08Z</time>
      </trkpt>
      <trkpt lat="47.24692" lon="-1.57763">
        <ele>9.27</ele>
        <time>2013-10-27T09:28:11Z</time>
      </trkpt>
      <trkpt lat="47.24691" lon="-1.57777">
        <ele>9.27</ele>
        <time>2013-10-27T09:28:14Z</time>
      </trkpt>
      <trkpt lat="47.2469" lon="-1.57792">
        <ele>8.79</ele>
        <time>2013-10-27T09:28:17Z</time>
      </trkpt>
      <trkpt lat="47.24687" lon="-1.57809">
        <ele>8.79</ele>
        <time>2013-10-27T09:28:21Z</time>
      </trkpt>
      <trkpt lat="47.24686" lon="-1.57824">
        <ele>9.27</ele>
        <time>2013-10-27T09:28:24Z</time>
      </trkpt>
      <trkpt lat="47.24682" lon="-1.57837">
        <ele>9.75</ele>
        <time>2013-10-27T09:28:29Z</time>
      </trkpt>
      <trkpt lat="47.24683" lon="-1.57849">
        <ele>8.31</ele>
        <time>2013-10-27T09:29:12Z</time>
      </trkpt>
      <trkpt lat="47.24676" lon="-1.57863">
        <ele>8.31</ele>
        <time>2013-10-27T09:29:16Z</time>
      </trkpt>
      <trkpt lat="47.24669" lon="-1.57877">
        <ele>10.71</ele>
        <time>2013-10-27T09:29:20Z</time>
      </trkpt>
      <trkpt lat="47.24662" lon="-1.57891">
        <ele>11.19</ele>
        <time>2013-10-27T09:29:24Z</time>
      </trkpt>
      <trkpt lat="47.24655" lon="-1.57905">
        <ele>11.19</ele>
        <time>2013-10-27T09:29:28Z</time>
      </trkpt>
      <trkpt lat="47.24648" lon="-1.57916">
        <ele>10.71</ele>
        <time>2013-10-27T09:29:32Z</time>
      </trkpt>
      <trkpt lat="47.24644" lon="-1.57929">
        <ele>11.19</ele>
        <time>2013-10-27T09:29:37Z</time>
      </trkpt>
      <trkpt lat="47.24638" lon="-1.57942">
        <ele>12.15</ele>
        <time>2013-10-27T09:29:41Z</time>
      </trkpt>
      <trkpt lat="47.24632" lon="-1.57955">
        <ele>13.12</ele>
        <time>2013-10-27T09:29:45Z</time>
      </trkpt>
      <trkpt lat="47.24627" lon="-1.57968">
        <ele>13.12</ele>
        <time>2013-10-27T09:29:49Z</time>
      </trkpt>
      <trkpt lat="47.24621" lon="-1.57982">
        <ele>13.12</ele>
        <time>2013-10-27T09:29:53Z</time>
      </trkpt>
      <trkpt lat="47.24614" lon="-1.57996">
        <ele>13.6</ele>
        <time>2013-10-27T09:29:57Z</time>
      </trkpt>
      <trkpt lat="47.2461" lon="-1.5801">
        <ele>13.6</ele>
        <time>2013-10-27T09:30:01Z</time>
      </trkpt>
      <trkpt lat="47.24603" lon="-1.58023">
        <ele>13.6</ele>
        <time>2013-10-27T09:30:05Z</time>
      </trkpt>
      <trkpt lat="47.24594" lon="-1.58037">
        <ele>14.56</ele>
        <time>2013-10-27T09:30:09Z</time>
      </trkpt>
      <trkpt lat="47.24586" lon="-1.5805">
        <ele>16</ele>
        <time>2013-10-27T09:30:13Z</time>
      </trkpt>
      <trkpt lat="47.24582" lon="-1.58062">
        <ele>16</ele>
        <time>2013-10-27T09:30:17Z</time>
      </trkpt>
      <trkpt lat="47.24574" lon="-1.58075">
        <ele>16.48</ele>
        <time>2013-10-27T09:30:21Z</time>
      </trkpt>
      <trkpt lat="47.24565" lon="-1.58088">
        <ele>16.48</ele>
        <time>2013-10-27T09:30:25Z</time>
      </trkpt>
      <trkpt lat="47.24557" lon="-1.58101">
        <ele>16.48</ele>
        <time>2013-10-27T09:30:29Z</time>
      </trkpt>
      <trkpt lat="47.24547" lon="-1.58114">
        <ele>16.96</ele>
        <time>2013-10-27T09:30:33Z</time>
      </trkpt>
      <trkpt lat="47.24539" lon="-1.58124">
        <ele>17.44</ele>
        <time>2013-10-27T09:30:36Z</time>
      </trkpt>
      <trkpt lat="47.2453" lon="-1.58137">
        <ele>17.44</ele>
        <time>2013-10-27T09:30:40Z</time>
      </trkpt>
      <trkpt lat="47.24522" lon="-1.58148">
        <ele>17.92</ele>
        <time>2013-10-27T09:30:43Z</time>
      </trkpt>
      <trkpt lat="47.24514" lon="-1.58159">
        <ele>18.4</ele>
        <time>2013-10-27T09:30:46Z</time>
      </trkpt>
      <trkpt lat="47.24506" lon="-1.58171">
        <ele>19.36</ele>
        <time>2013-10-27T09:30:49Z</time>
      </trkpt>
      <trkpt lat="47.24498" lon="-1.58182">
        <ele>19.36</ele>
        <time>2013-10-27T09:30:52Z</time>
      </trkpt>
      <trkpt lat="47.24489" lon="-1.58194">
        <ele>19.36</ele>
        <time>2013-10-27T09:30:55Z</time>
      </trkpt>
      <trkpt lat="47.24478" lon="-1.58207">
        <ele>19.84</ele>
        <time>2013-10-27T09:30:58Z</time>
      </trkpt>
      <trkpt lat="47.24468" lon="-1.5822">
        <ele>19.36</ele>
        <time>2013-10-27T09:31:01Z</time>
      </trkpt>
      <trkpt lat="47.24459" lon="-1.58237">
        <ele>19.36</ele>
        <time>2013-10-27T09:31:04Z</time>
      </trkpt>
      <trkpt lat="47.24448" lon="-1.58253">
        <ele>21.29</ele>
        <time>2013-10-27T09:31:07Z</time>
      </trkpt>
      <trkpt lat="47.24432" lon="-1.5826">
        <ele>23.21</ele>
        <time>2013-10-27T09:31:10Z</time>
      </trkpt>
      <trkpt lat="47.2442" lon="-1.58263">
        <ele>24.17</ele>
        <time>2013-10-27T09:31:12Z</time>
      </trkpt>
      <trkpt lat="47.2441" lon="-1.58267">
        <ele>24.65</ele>
        <time>2013-10-27T09:31:14Z</time>
      </trkpt>
      <trkpt lat="47.24397" lon="-1.58275">
        <ele>24.17</ele>
        <time>2013-10-27T09:31:17Z</time>
      </trkpt>
      <trkpt lat="47.24388" lon="-1.58279">
        <ele>24.17</ele>
        <time>2013-10-27T09:31:19Z</time>
      </trkpt>
      <trkpt lat="47.24378" lon="-1.58284">
        <ele>24.17</ele>
        <time>2013-10-27T09:31:21Z</time>
      </trkpt>
      <trkpt lat="47.24369" lon="-1.58288">
        <ele>23.69</ele>
        <time>2013-10-27T09:31:23Z</time>
      </trkpt>
      <trkpt lat="47.24356" lon="-1.58291">
        <ele>23.69</ele>
        <time>2013-10-27T09:31:26Z</time>
      </trkpt>
      <trkpt lat="47.24344" lon="-1.58291">
        <ele>24.17</ele>
        <time>2013-10-27T09:31:29Z</time>
      </trkpt>
      <trkpt lat="47.24333" lon="-1.58291">
        <ele>24.65</ele>
        <time>2013-10-27T09:31:32Z</time>
      </trkpt>
      <trkpt lat="47.24321" lon="-1.5829">
        <ele>25.61</ele>
        <time>2013-10-27T09:31:35Z</time>
      </trkpt>
      <trkpt lat="47.24307" lon="-1.58289">
        <ele>26.57</ele>
        <time>2013-10-27T09:31:38Z</time>
      </trkpt>
      <trkpt lat="47.24296" lon="-1.58289">
        <ele>28.02</ele>
        <time>2013-10-27T09:31:40Z</time>
      </trkpt>
      <trkpt lat="47.24285" lon="-1.58289">
        <ele>28.98</ele>
        <time>2013-10-27T09:31:42Z</time>
      </trkpt>
      <trkpt lat="47.24272" lon="-1.58292">
        <ele>30.42</ele>
        <time>2013-10-27T09:31:45Z</time>
      </trkpt>
      <trkpt lat="47.24262" lon="-1.58294">
        <ele>31.38</ele>
        <time>2013-10-27T09:31:47Z</time>
      </trkpt>
      <trkpt lat="47.24249" lon="-1.58299">
        <ele>32.34</ele>
        <time>2013-10-27T09:31:50Z</time>
      </trkpt>
      <trkpt lat="47.24237" lon="-1.58305">
        <ele>33.3</ele>
        <time>2013-10-27T09:31:53Z</time>
      </trkpt>
      <trkpt lat="47.24226" lon="-1.58311">
        <ele>34.26</ele>
        <time>2013-10-27T09:31:56Z</time>
      </trkpt>
      <trkpt lat="47.24215" lon="-1.58317">
        <ele>35.23</ele>
        <time>2013-10-27T09:31:59Z</time>
      </trkpt>
      <trkpt lat="47.24205" lon="-1.58324">
        <ele>36.19</ele>
        <time>2013-10-27T09:32:02Z</time>
      </trkpt>
      <trkpt lat="47.24196" lon="-1.58332">
        <ele>37.15</ele>
        <time>2013-10-27T09:32:05Z</time>
      </trkpt>
      <trkpt lat="47.24187" lon="-1.58339">
        <ele>38.11</ele>
        <time>2013-10-27T09:32:08Z</time>
      </trkpt>
      <trkpt lat="47.24178" lon="-1.58346">
        <ele>39.07</ele>
        <time>2013-10-27T09:32:11Z</time>
      </trkpt>
      <trkpt lat="47.24169" lon="-1.58355">
        <ele>40.51</ele>
        <time>2013-10-27T09:32:14Z</time>
      </trkpt>
      <trkpt lat="47.24159" lon="-1.58362">
        <ele>42.92</ele>
        <time>2013-10-27T09:32:17Z</time>
      </trkpt>
      <trkpt lat="47.24149" lon="-1.58371">
        <ele>45.32</ele>
        <time>2013-10-27T09:32:20Z</time>
      </trkpt>
      <trkpt lat="47.24139" lon="-1.58381">
        <ele>46.76</ele>
        <time>2013-10-27T09:32:23Z</time>
      </trkpt>
      <trkpt lat="47.24128" lon="-1.58391">
        <ele>48.2</ele>
        <time>2013-10-27T09:32:26Z</time>
      </trkpt>
      <trkpt lat="47.24118" lon="-1.58399">
        <ele>49.16</ele>
        <time>2013-10-27T09:32:29Z</time>
      </trkpt>
      <trkpt lat="47.24109" lon="-1.58407">
        <ele>50.13</ele>
        <time>2013-10-27T09:32:32Z</time>
      </trkpt>
      <trkpt lat="47.24099" lon="-1.58414">
        <ele>50.61</ele>
        <time>2013-10-27T09:32:35Z</time>
      </trkpt>
      <trkpt lat="47.24091" lon="-1.58422">
        <ele>50.61</ele>
        <time>2013-10-27T09:32:38Z</time>
      </trkpt>
      <trkpt lat="47.24082" lon="-1.58429">
        <ele>50.13</ele>
        <time>2013-10-27T09:32:41Z</time>
      </trkpt>
      <trkpt lat="47.24074" lon="-1.58436">
        <ele>49.16</ele>
        <time>2013-10-27T09:32:44Z</time>
      </trkpt>
      <trkpt lat="47.24065" lon="-1.58441">
        <ele>48.68</ele>
        <time>2013-10-27T09:32:47Z</time>
      </trkpt>
      <trkpt lat="47.24056" lon="-1.58445">
        <ele>46.76</ele>
        <time>2013-10-27T09:32:50Z</time>
      </trkpt>
      <trkpt lat="47.24046" lon="-1.58449">
        <ele>46.28</ele>
        <time>2013-10-27T09:32:53Z</time>
      </trkpt>
      <trkpt lat="47.24036" lon="-1.58452">
        <ele>46.76</ele>
        <time>2013-10-27T09:32:56Z</time>
      </trkpt>
      <trkpt lat="47.24025" lon="-1.58457">
        <ele>47.24</ele>
        <time>2013-10-27T09:32:59Z</time>
      </trkpt>
      <trkpt lat="47.24014" lon="-1.58461">
        <ele>48.2</ele>
        <time>2013-10-27T09:33:02Z</time>
      </trkpt>
      <trkpt lat="47.24003" lon="-1.58465">
        <ele>48.68</ele>
        <time>2013-10-27T09:33:05Z</time>
      </trkpt>
      <trkpt lat="47.23992" lon="-1.5847">
        <ele>49.65</ele>
        <time>2013-10-27T09:33:08Z</time>
      </trkpt>
      <trkpt lat="47.2398" lon="-1.58476">
        <ele>50.13</ele>
        <time>2013-10-27T09:33:11Z</time>
      </trkpt>
      <trkpt lat="47.23968" lon="-1.58481">
        <ele>51.09</ele>
        <time>2013-10-27T09:33:14Z</time>
      </trkpt>
      <trkpt lat="47.23957" lon="-1.58488">
        <ele>51.09</ele>
        <time>2013-10-27T09:33:17Z</time>
      </trkpt>
      <trkpt lat="47.23947" lon="-1.58495">
        <ele>51.09</ele>
        <time>2013-10-27T09:33:20Z</time>
      </trkpt>
      <trkpt lat="47.23935" lon="-1.58503">
        <ele>51.09</ele>
        <time>2013-10-27T09:33:23Z</time>
      </trkpt>
      <trkpt lat="47.23924" lon="-1.5851">
        <ele>51.09</ele>
        <time>2013-10-27T09:33:26Z</time>
      </trkpt>
      <trkpt lat="47.23912" lon="-1.58519">
        <ele>51.09</ele>
        <time>2013-10-27T09:33:29Z</time>
      </trkpt>
      <trkpt lat="47.23903" lon="-1.58525">
        <ele>51.57</ele>
        <time>2013-10-27T09:33:31Z</time>
      </trkpt>
      <trkpt lat="47.23895" lon="-1.58531">
        <ele>52.53</ele>
        <time>2013-10-27T09:33:33Z</time>
      </trkpt>
      <trkpt lat="47.23886" lon="-1.58537">
        <ele>53.01</ele>
        <time>2013-10-27T09:33:35Z</time>
      </trkpt>
      <trkpt lat="47.23877" lon="-1.58544">
        <ele>53.49</ele>
        <time>2013-10-27T09:33:37Z</time>
      </trkpt>
      <trkpt lat="47.23869" lon="-1.5855">
        <ele>53.49</ele>
        <time>2013-10-27T09:33:39Z</time>
      </trkpt>
      <trkpt lat="47.2386" lon="-1.58557">
        <ele>53.97</ele>
        <time>2013-10-27T09:33:41Z</time>
      </trkpt>
      <trkpt lat="47.23851" lon="-1.58564">
        <ele>53.97</ele>
        <time>2013-10-27T09:33:43Z</time>
      </trkpt>
      <trkpt lat="47.23842" lon="-1.5857">
        <ele>53.97</ele>
        <time>2013-10-27T09:33:45Z</time>
      </trkpt>
      <trkpt lat="47.23833" lon="-1.58577">
        <ele>53.49</ele>
        <time>2013-10-27T09:33:47Z</time>
      </trkpt>
      <trkpt lat="47.23824" lon="-1.58585">
        <ele>53.49</ele>
        <time>2013-10-27T09:33:49Z</time>
      </trkpt>
      <trkpt lat="47.23816" lon="-1.58592">
        <ele>53.01</ele>
        <time>2013-10-27T09:33:51Z</time>
      </trkpt>
      <trkpt lat="47.23804" lon="-1.586">
        <ele>52.05</ele>
        <time>2013-10-27T09:33:54Z</time>
      </trkpt>
      <trkpt lat="47.23792" lon="-1.58606">
        <ele>52.05</ele>
        <time>2013-10-27T09:33:57Z</time>
      </trkpt>
      <trkpt lat="47.23783" lon="-1.58612">
        <ele>51.57</ele>
        <time>2013-10-27T09:34:00Z</time>
      </trkpt>
      <trkpt lat="47.23774" lon="-1.58619">
        <ele>51.09</ele>
        <time>2013-10-27T09:34:03Z</time>
      </trkpt>
      <trkpt lat="47.2377" lon="-1.5863">
        <ele>51.09</ele>
        <time>2013-10-27T09:34:05Z</time>
      </trkpt>
      <trkpt lat="47.23761" lon="-1.58639">
        <ele>51.09</ele>
        <time>2013-10-27T09:34:07Z</time>
      </trkpt>
      <trkpt lat="47.23751" lon="-1.5864">
        <ele>50.13</ele>
        <time>2013-10-27T09:34:09Z</time>
      </trkpt>
      <trkpt lat="47.2374" lon="-1.58636">
        <ele>50.13</ele>
        <time>2013-10-27T09:34:11Z</time>
      </trkpt>
      <trkpt lat="47.23729" lon="-1.58635">
        <ele>50.13</ele>
        <time>2013-10-27T09:34:13Z</time>
      </trkpt>
      <trkpt lat="47.23718" lon="-1.58636">
        <ele>50.13</ele>
        <time>2013-10-27T09:34:15Z</time>
      </trkpt>
      <trkpt lat="47.23708" lon="-1.58639">
        <ele>50.13</ele>
        <time>2013-10-27T09:34:17Z</time>
      </trkpt>
      <trkpt lat="47.237" lon="-1.58646">
        <ele>50.13</ele>
        <time>2013-10-27T09:34:19Z</time>
      </trkpt>
      <trkpt lat="47.23689" lon="-1.58658">
        <ele>51.09</ele>
        <time>2013-10-27T09:34:22Z</time>
      </trkpt>
      <trkpt lat="47.23678" lon="-1.58668">
        <ele>51.57</ele>
        <time>2013-10-27T09:34:25Z</time>
      </trkpt>
      <trkpt lat="47.23669" lon="-1.58675">
        <ele>51.57</ele>
        <time>2013-10-27T09:34:27Z</time>
      </trkpt>
      <trkpt lat="47.23658" lon="-1.58687">
        <ele>52.05</ele>
        <time>2013-10-27T09:34:30Z</time>
      </trkpt>
      <trkpt lat="47.23649" lon="-1.58697">
        <ele>53.01</ele>
        <time>2013-10-27T09:34:33Z</time>
      </trkpt>
      <trkpt lat="47.23637" lon="-1.58709">
        <ele>54.93</ele>
        <time>2013-10-27T09:34:36Z</time>
      </trkpt>
      <trkpt lat="47.23628" lon="-1.58716">
        <ele>56.37</ele>
        <time>2013-10-27T09:34:38Z</time>
      </trkpt>
      <trkpt lat="47.23619" lon="-1.58723">
        <ele>57.34</ele>
        <time>2013-10-27T09:34:40Z</time>
      </trkpt>
      <trkpt lat="47.23611" lon="-1.5873">
        <ele>58.3</ele>
        <time>2013-10-27T09:34:42Z</time>
      </trkpt>
      <trkpt lat="47.23603" lon="-1.58738">
        <ele>59.26</ele>
        <time>2013-10-27T09:34:44Z</time>
      </trkpt>
      <trkpt lat="47.23594" lon="-1.58744">
        <ele>59.26</ele>
        <time>2013-10-27T09:34:46Z</time>
      </trkpt>
      <trkpt lat="47.23586" lon="-1.58752">
        <ele>59.26</ele>
        <time>2013-10-27T09:34:48Z</time>
      </trkpt>
      <trkpt lat="47.23579" lon="-1.58759">
        <ele>58.3</ele>
        <time>2013-10-27T09:34:50Z</time>
      </trkpt>
      <trkpt lat="47.2357" lon="-1.58767">
        <ele>57.82</ele>
        <time>2013-10-27T09:34:52Z</time>
      </trkpt>
      <trkpt lat="47.23563" lon="-1.58776">
        <ele>57.34</ele>
        <time>2013-10-27T09:34:54Z</time>
      </trkpt>
      <trkpt lat="47.23555" lon="-1.58784">
        <ele>56.86</ele>
        <time>2013-10-27T09:34:56Z</time>
      </trkpt>
      <trkpt lat="47.23547" lon="-1.58793">
        <ele>56.37</ele>
        <time>2013-10-27T09:34:58Z</time>
      </trkpt>
      <trkpt lat="47.23539" lon="-1.588">
        <ele>55.89</ele>
        <time>2013-10-27T09:35:00Z</time>
      </trkpt>
      <trkpt lat="47.23531" lon="-1.58809">
        <ele>55.41</ele>
        <time>2013-10-27T09:35:02Z</time>
      </trkpt>
      <trkpt lat="47.23523" lon="-1.58817">
        <ele>55.41</ele>
        <time>2013-10-27T09:35:04Z</time>
      </trkpt>
      <trkpt lat="47.23514" lon="-1.58826">
        <ele>55.89</ele>
        <time>2013-10-27T09:35:06Z</time>
      </trkpt>
      <trkpt lat="47.23507" lon="-1.58835">
        <ele>54.93</ele>
        <time>2013-10-27T09:35:08Z</time>
      </trkpt>
      <trkpt lat="47.23499" lon="-1.58844">
        <ele>53.97</ele>
        <time>2013-10-27T09:35:10Z</time>
      </trkpt>
      <trkpt lat="47.2349" lon="-1.58853">
        <ele>53.97</ele>
        <time>2013-10-27T09:35:12Z</time>
      </trkpt>
      <trkpt lat="47.23482" lon="-1.58862">
        <ele>53.49</ele>
        <time>2013-10-27T09:35:14Z</time>
      </trkpt>
      <trkpt lat="47.23473" lon="-1.58872">
        <ele>52.53</ele>
        <time>2013-10-27T09:35:16Z</time>
      </trkpt>
      <trkpt lat="47.23465" lon="-1.58881">
        <ele>52.05</ele>
        <time>2013-10-27T09:35:18Z</time>
      </trkpt>
      <trkpt lat="47.23457" lon="-1.58891">
        <ele>50.61</ele>
        <time>2013-10-27T09:35:20Z</time>
      </trkpt>
      <trkpt lat="47.2345" lon="-1.58899">
        <ele>48.2</ele>
        <time>2013-10-27T09:35:22Z</time>
      </trkpt>
      <trkpt lat="47.23442" lon="-1.58909">
        <ele>46.76</ele>
        <time>2013-10-27T09:35:24Z</time>
      </trkpt>
      <trkpt lat="47.23434" lon="-1.5892">
        <ele>45.8</ele>
        <time>2013-10-27T09:35:26Z</time>
      </trkpt>
      <trkpt lat="47.23426" lon="-1.5893">
        <ele>45.32</ele>
        <time>2013-10-27T09:35:28Z</time>
      </trkpt>
      <trkpt lat="47.23418" lon="-1.5894">
        <ele>44.84</ele>
        <time>2013-10-27T09:35:30Z</time>
      </trkpt>
      <trkpt lat="47.23411" lon="-1.58949">
        <ele>43.88</ele>
        <time>2013-10-27T09:35:32Z</time>
      </trkpt>
      <trkpt lat="47.23403" lon="-1.58959">
        <ele>43.88</ele>
        <time>2013-10-27T09:35:34Z</time>
      </trkpt>
      <trkpt lat="47.23395" lon="-1.58967">
        <ele>43.4</ele>
        <time>2013-10-27T09:35:36Z</time>
      </trkpt>
      <trkpt lat="47.23388" lon="-1.58977">
        <ele>42.92</ele>
        <time>2013-10-27T09:35:38Z</time>
      </trkpt>
      <trkpt lat="47.2338" lon="-1.58985">
        <ele>42.44</ele>
        <time>2013-10-27T09:35:40Z</time>
      </trkpt>
      <trkpt lat="47.23373" lon="-1.58995">
        <ele>41.47</ele>
        <time>2013-10-27T09:35:42Z</time>
      </trkpt>
      <trkpt lat="47.23364" lon="-1.59006">
        <ele>40.03</ele>
        <time>2013-10-27T09:35:45Z</time>
      </trkpt>
      <trkpt lat="47.23355" lon="-1.59016">
        <ele>39.07</ele>
        <time>2013-10-27T09:35:49Z</time>
      </trkpt>
      <trkpt lat="47.23346" lon="-1.59028">
        <ele>38.11</ele>
        <time>2013-10-27T09:35:52Z</time>
      </trkpt>
      <trkpt lat="47.23337" lon="-1.5904">
        <ele>37.15</ele>
        <time>2013-10-27T09:35:55Z</time>
      </trkpt>
      <trkpt lat="47.23331" lon="-1.59051">
        <ele>35.71</ele>
        <time>2013-10-27T09:36:29Z</time>
      </trkpt>
      <trkpt lat="47.23324" lon="-1.59057">
        <ele>33.78</ele>
        <time>2013-10-27T09:36:35Z</time>
      </trkpt>
      <trkpt lat="47.23315" lon="-1.59068">
        <ele>33.78</ele>
        <time>2013-10-27T09:36:38Z</time>
      </trkpt>
      <trkpt lat="47.23306" lon="-1.59079">
        <ele>32.82</ele>
        <time>2013-10-27T09:36:41Z</time>
      </trkpt>
      <trkpt lat="47.23296" lon="-1.59091">
        <ele>32.34</ele>
        <time>2013-10-27T09:36:44Z</time>
      </trkpt>
      <trkpt lat="47.23288" lon="-1.59099">
        <ele>31.86</ele>
        <time>2013-10-27T09:36:46Z</time>
      </trkpt>
      <trkpt lat="47.23277" lon="-1.59112">
        <ele>31.38</ele>
        <time>2013-10-27T09:36:49Z</time>
      </trkpt>
      <trkpt lat="47.23266" lon="-1.59122">
        <ele>30.9</ele>
        <time>2013-10-27T09:36:52Z</time>
      </trkpt>
      <trkpt lat="47.23255" lon="-1.59128">
        <ele>31.38</ele>
        <time>2013-10-27T09:36:55Z</time>
      </trkpt>
      <trkpt lat="47.23243" lon="-1.59132">
        <ele>33.3</ele>
        <time>2013-10-27T09:37:00Z</time>
      </trkpt>
      <trkpt lat="47.23235" lon="-1.5912">
        <ele>33.78</ele>
        <time>2013-10-27T09:37:03Z</time>
      </trkpt>
      <trkpt lat="47.23226" lon="-1.59105">
        <ele>34.26</ele>
        <time>2013-10-27T09:37:06Z</time>
      </trkpt>
      <trkpt lat="47.23219" lon="-1.59094">
        <ele>33.78</ele>
        <time>2013-10-27T09:37:08Z</time>
      </trkpt>
      <trkpt lat="47.23213" lon="-1.59083">
        <ele>33.3</ele>
        <time>2013-10-27T09:37:10Z</time>
      </trkpt>
      <trkpt lat="47.23207" lon="-1.59073">
        <ele>32.82</ele>
        <time>2013-10-27T09:37:12Z</time>
      </trkpt>
      <trkpt lat="47.23201" lon="-1.59062">
        <ele>31.86</ele>
        <time>2013-10-27T09:37:14Z</time>
      </trkpt>
      <trkpt lat="47.23195" lon="-1.59052">
        <ele>31.86</ele>
        <time>2013-10-27T09:37:16Z</time>
      </trkpt>
      <trkpt lat="47.23186" lon="-1.59037">
        <ele>31.86</ele>
        <time>2013-10-27T09:37:19Z</time>
      </trkpt>
      <trkpt lat="47.2318" lon="-1.59027">
        <ele>31.38</ele>
        <time>2013-10-27T09:37:21Z</time>
      </trkpt>
      <trkpt lat="47.23174" lon="-1.59016">
        <ele>31.38</ele>
        <time>2013-10-27T09:37:23Z</time>
      </trkpt>
      <trkpt lat="47.23168" lon="-1.59005">
        <ele>31.38</ele>
        <time>2013-10-27T09:37:25Z</time>
      </trkpt>
      <trkpt lat="47.23162" lon="-1.58995">
        <ele>31.86</ele>
        <time>2013-10-27T09:37:27Z</time>
      </trkpt>
      <trkpt lat="47.23153" lon="-1.5898">
        <ele>32.34</ele>
        <time>2013-10-27T09:37:30Z</time>
      </trkpt>
      <trkpt lat="47.23146" lon="-1.58966">
        <ele>32.34</ele>
        <time>2013-10-27T09:37:33Z</time>
      </trkpt>
      <trkpt lat="47.23138" lon="-1.58951">
        <ele>32.34</ele>
        <time>2013-10-27T09:37:36Z</time>
      </trkpt>
      <trkpt lat="47.2313" lon="-1.58936">
        <ele>32.82</ele>
        <time>2013-10-27T09:37:39Z</time>
      </trkpt>
      <trkpt lat="47.23122" lon="-1.58922">
        <ele>32.82</ele>
        <time>2013-10-27T09:37:42Z</time>
      </trkpt>
      <trkpt lat="47.23115" lon="-1.58908">
        <ele>32.82</ele>
        <time>2013-10-27T09:37:45Z</time>
      </trkpt>
      <trkpt lat="47.23107" lon="-1.58898">
        <ele>33.3</ele>
        <time>2013-10-27T09:37:48Z</time>
      </trkpt>
      <trkpt lat="47.231" lon="-1.58903">
        <ele>33.3</ele>
        <time>2013-10-27T09:37:51Z</time>
      </trkpt>
      <trkpt lat="47.23092" lon="-1.58913">
        <ele>33.3</ele>
        <time>2013-10-27T09:37:54Z</time>
      </trkpt>
      <trkpt lat="47.23083" lon="-1.58925">
        <ele>33.3</ele>
        <time>2013-10-27T09:37:57Z</time>
      </trkpt>
      <trkpt lat="47.23073" lon="-1.58937">
        <ele>33.3</ele>
        <time>2013-10-27T09:38:00Z</time>
      </trkpt>
      <trkpt lat="47.23065" lon="-1.58946">
        <ele>33.3</ele>
        <time>2013-10-27T09:38:02Z</time>
      </trkpt>
      <trkpt lat="47.23058" lon="-1.58955">
        <ele>33.3</ele>
        <time>2013-10-27T09:38:04Z</time>
      </trkpt>
      <trkpt lat="47.23052" lon="-1.58964">
        <ele>33.3</ele>
        <time>2013-10-27T09:38:06Z</time>
      </trkpt>
      <trkpt lat="47.23045" lon="-1.58973">
        <ele>33.3</ele>
        <time>2013-10-27T09:38:08Z</time>
      </trkpt>
      <trkpt lat="47.23039" lon="-1.58982">
        <ele>33.3</ele>
        <time>2013-10-27T09:38:10Z</time>
      </trkpt>
      <trkpt lat="47.23028" lon="-1.58995">
        <ele>33.3</ele>
        <time>2013-10-27T09:38:13Z</time>
      </trkpt>
      <trkpt lat="47.23019" lon="-1.59005">
        <ele>33.78</ele>
        <time>2013-10-27T09:38:16Z</time>
      </trkpt>
      <trkpt lat="47.23003" lon="-1.59007">
        <ele>40.03</ele>
        <time>2013-10-27T09:38:41Z</time>
      </trkpt>
      <trkpt lat="47.22995" lon="-1.59">
        <ele>39.55</ele>
        <time>2013-10-27T09:38:43Z</time>
      </trkpt>
      <trkpt lat="47.22989" lon="-1.58988">
        <ele>39.55</ele>
        <time>2013-10-27T09:38:45Z</time>
      </trkpt>
      <trkpt lat="47.22982" lon="-1.58975">
        <ele>40.03</ele>
        <time>2013-10-27T09:38:47Z</time>
      </trkpt>
      <trkpt lat="47.22975" lon="-1.58964">
        <ele>40.03</ele>
        <time>2013-10-27T09:38:49Z</time>
      </trkpt>
      <trkpt lat="47.22966" lon="-1.5895">
        <ele>40.03</ele>
        <time>2013-10-27T09:38:52Z</time>
      </trkpt>
      <trkpt lat="47.22958" lon="-1.58936">
        <ele>40.51</ele>
        <time>2013-10-27T09:38:55Z</time>
      </trkpt>
      <trkpt lat="47.22951" lon="-1.58925">
        <ele>40.51</ele>
        <time>2013-10-27T09:38:57Z</time>
      </trkpt>
      <trkpt lat="47.22945" lon="-1.58913">
        <ele>40.99</ele>
        <time>2013-10-27T09:38:59Z</time>
      </trkpt>
      <trkpt lat="47.22938" lon="-1.58901">
        <ele>40.99</ele>
        <time>2013-10-27T09:39:01Z</time>
      </trkpt>
      <trkpt lat="47.22932" lon="-1.58889">
        <ele>41.47</ele>
        <time>2013-10-27T09:39:03Z</time>
      </trkpt>
      <trkpt lat="47.22925" lon="-1.58877">
        <ele>41.47</ele>
        <time>2013-10-27T09:39:05Z</time>
      </trkpt>
      <trkpt lat="47.22918" lon="-1.58866">
        <ele>41.47</ele>
        <time>2013-10-27T09:39:07Z</time>
      </trkpt>
      <trkpt lat="47.22913" lon="-1.58854">
        <ele>40.99</ele>
        <time>2013-10-27T09:39:09Z</time>
      </trkpt>
      <trkpt lat="47.22907" lon="-1.58842">
        <ele>40.51</ele>
        <time>2013-10-27T09:39:11Z</time>
      </trkpt>
      <trkpt lat="47.22901" lon="-1.58829">
        <ele>39.55</ele>
        <time>2013-10-27T09:39:13Z</time>
      </trkpt>
      <trkpt lat="47.22896" lon="-1.58818">
        <ele>38.59</ele>
        <time>2013-10-27T09:39:15Z</time>
      </trkpt>
      <trkpt lat="47.2289" lon="-1.58806">
        <ele>38.11</ele>
        <time>2013-10-27T09:39:17Z</time>
      </trkpt>
      <trkpt lat="47.22884" lon="-1.58794">
        <ele>37.63</ele>
        <time>2013-10-27T09:39:19Z</time>
      </trkpt>
      <trkpt lat="47.22878" lon="-1.58783">
        <ele>37.15</ele>
        <time>2013-10-27T09:39:21Z</time>
      </trkpt>
      <trkpt lat="47.22873" lon="-1.58772">
        <ele>36.67</ele>
        <time>2013-10-27T09:39:23Z</time>
      </trkpt>
      <trkpt lat="47.22865" lon="-1.58758">
        <ele>35.71</ele>
        <time>2013-10-27T09:39:26Z</time>
      </trkpt>
      <trkpt lat="47.22858" lon="-1.58749">
        <ele>34.74</ele>
        <time>2013-10-27T09:39:28Z</time>
      </trkpt>
      <trkpt lat="47.22851" lon="-1.58739">
        <ele>33.78</ele>
        <time>2013-10-27T09:39:30Z</time>
      </trkpt>
      <trkpt lat="47.22842" lon="-1.58731">
        <ele>32.82</ele>
        <time>2013-10-27T09:39:33Z</time>
      </trkpt>
      <trkpt lat="47.22832" lon="-1.58724">
        <ele>33.3</ele>
        <time>2013-10-27T09:39:36Z</time>
      </trkpt>
      <trkpt lat="47.22822" lon="-1.58709">
        <ele>32.34</ele>
        <time>2013-10-27T09:39:39Z</time>
      </trkpt>
      <trkpt lat="47.22803" lon="-1.58701">
        <ele>32.34</ele>
        <time>2013-10-27T09:39:41Z</time>
      </trkpt>
      <trkpt lat="47.22794" lon="-1.58697">
        <ele>32.34</ele>
        <time>2013-10-27T09:39:42Z</time>
      </trkpt>
      <trkpt lat="47.22779" lon="-1.58689">
        <ele>32.34</ele>
        <time>2013-10-27T09:39:44Z</time>
      </trkpt>
      <trkpt lat="47.22769" lon="-1.58681">
        <ele>32.34</ele>
        <time>2013-10-27T09:39:46Z</time>
      </trkpt>
      <trkpt lat="47.2276" lon="-1.58673">
        <ele>32.34</ele>
        <time>2013-10-27T09:39:48Z</time>
      </trkpt>
      <trkpt lat="47.22749" lon="-1.58665">
        <ele>31.86</ele>
        <time>2013-10-27T09:39:50Z</time>
      </trkpt>
      <trkpt lat="47.22749" lon="-1.58658">
        <ele>30.42</ele>
        <time>2013-10-27T09:39:53Z</time>
      </trkpt>
      <trkpt lat="47.22746" lon="-1.58666">
        <ele>28.98</ele>
        <time>2013-10-27T09:39:56Z</time>
      </trkpt>
      <trkpt lat="47.22741" lon="-1.58679">
        <ele>27.53</ele>
        <time>2013-10-27T09:40:00Z</time>
      </trkpt>
      <trkpt lat="47.22747" lon="-1.58678">
        <ele>25.61</ele>
        <time>2013-10-27T09:40:06Z</time>
      </trkpt>
      <trkpt lat="47.22755" lon="-1.58669">
        <ele>25.61</ele>
        <time>2013-10-27T09:40:09Z</time>
      </trkpt>
      <trkpt lat="47.22761" lon="-1.58657">
        <ele>26.09</ele>
        <time>2013-10-27T09:40:13Z</time>
      </trkpt>
      <trkpt lat="47.22759" lon="-1.58643">
        <ele>26.57</ele>
        <time>2013-10-27T09:40:21Z</time>
      </trkpt>
      <trkpt lat="47.22751" lon="-1.58635">
        <ele>26.09</ele>
        <time>2013-10-27T09:40:24Z</time>
      </trkpt>
      <trkpt lat="47.22739" lon="-1.58625">
        <ele>25.13</ele>
        <time>2013-10-27T09:40:27Z</time>
      </trkpt>
      <trkpt lat="47.22725" lon="-1.58616">
        <ele>25.13</ele>
        <time>2013-10-27T09:40:30Z</time>
      </trkpt>
      <trkpt lat="47.22713" lon="-1.5861">
        <ele>25.61</ele>
        <time>2013-10-27T09:40:33Z</time>
      </trkpt>
      <trkpt lat="47.22703" lon="-1.58605">
        <ele>26.09</ele>
        <time>2013-10-27T09:40:36Z</time>
      </trkpt>
      <trkpt lat="47.22692" lon="-1.58601">
        <ele>26.09</ele>
        <time>2013-10-27T09:40:39Z</time>
      </trkpt>
      <trkpt lat="47.22682" lon="-1.58597">
        <ele>26.09</ele>
        <time>2013-10-27T09:40:43Z</time>
      </trkpt>
      <trkpt lat="47.22672" lon="-1.58593">
        <ele>26.57</ele>
        <time>2013-10-27T09:40:50Z</time>
      </trkpt>
      <trkpt lat="47.22662" lon="-1.58584">
        <ele>27.53</ele>
        <time>2013-10-27T09:40:53Z</time>
      </trkpt>
      <trkpt lat="47.22649" lon="-1.58578">
        <ele>28.02</ele>
        <time>2013-10-27T09:40:56Z</time>
      </trkpt>
      <trkpt lat="47.2264" lon="-1.58574">
        <ele>28.02</ele>
        <time>2013-10-27T09:40:58Z</time>
      </trkpt>
      <trkpt lat="47.22629" lon="-1.5857">
        <ele>28.02</ele>
        <time>2013-10-27T09:41:00Z</time>
      </trkpt>
      <trkpt lat="47.2262" lon="-1.58565">
        <ele>28.5</ele>
        <time>2013-10-27T09:41:02Z</time>
      </trkpt>
      <trkpt lat="47.22608" lon="-1.5856">
        <ele>28.98</ele>
        <time>2013-10-27T09:41:05Z</time>
      </trkpt>
      <trkpt lat="47.22597" lon="-1.58557">
        <ele>29.46</ele>
        <time>2013-10-27T09:41:08Z</time>
      </trkpt>
      <trkpt lat="47.22593" lon="-1.58568">
        <ele>28.98</ele>
        <time>2013-10-27T09:41:11Z</time>
      </trkpt>
      <trkpt lat="47.22596" lon="-1.58586">
        <ele>28.98</ele>
        <time>2013-10-27T09:41:14Z</time>
      </trkpt>
      <trkpt lat="47.226" lon="-1.58605">
        <ele>28.98</ele>
        <time>2013-10-27T09:41:17Z</time>
      </trkpt>
      <trkpt lat="47.22603" lon="-1.58619">
        <ele>28.5</ele>
        <time>2013-10-27T09:41:19Z</time>
      </trkpt>
      <trkpt lat="47.22605" lon="-1.58634">
        <ele>28.02</ele>
        <time>2013-10-27T09:41:21Z</time>
      </trkpt>
      <trkpt lat="47.22608" lon="-1.5865">
        <ele>27.05</ele>
        <time>2013-10-27T09:41:23Z</time>
      </trkpt>
      <trkpt lat="47.2261" lon="-1.58668">
        <ele>26.57</ele>
        <time>2013-10-27T09:41:25Z</time>
      </trkpt>
      <trkpt lat="47.22607" lon="-1.58686">
        <ele>25.13</ele>
        <time>2013-10-27T09:41:27Z</time>
      </trkpt>
      <trkpt lat="47.22603" lon="-1.58705">
        <ele>24.17</ele>
        <time>2013-10-27T09:41:29Z</time>
      </trkpt>
      <trkpt lat="47.22599" lon="-1.58726">
        <ele>23.21</ele>
        <time>2013-10-27T09:41:31Z</time>
      </trkpt>
      <trkpt lat="47.22591" lon="-1.58748">
        <ele>22.25</ele>
        <time>2013-10-27T09:41:33Z</time>
      </trkpt>
      <trkpt lat="47.22583" lon="-1.58764">
        <ele>20.81</ele>
        <time>2013-10-27T09:41:35Z</time>
      </trkpt>
      <trkpt lat="47.22572" lon="-1.58772">
        <ele>20.81</ele>
        <time>2013-10-27T09:41:37Z</time>
      </trkpt>
      <trkpt lat="47.22557" lon="-1.58778">
        <ele>20.32</ele>
        <time>2013-10-27T09:41:39Z</time>
      </trkpt>
      <trkpt lat="47.22543" lon="-1.58784">
        <ele>18.88</ele>
        <time>2013-10-27T09:41:41Z</time>
      </trkpt>
      <trkpt lat="47.22531" lon="-1.58788">
        <ele>18.4</ele>
        <time>2013-10-27T09:41:43Z</time>
      </trkpt>
      <trkpt lat="47.22523" lon="-1.58799">
        <ele>18.4</ele>
        <time>2013-10-27T09:41:45Z</time>
      </trkpt>
      <trkpt lat="47.22517" lon="-1.58814">
        <ele>18.88</ele>
        <time>2013-10-27T09:41:47Z</time>
      </trkpt>
      <trkpt lat="47.22511" lon="-1.58831">
        <ele>18.88</ele>
        <time>2013-10-27T09:41:49Z</time>
      </trkpt>
      <trkpt lat="47.22509" lon="-1.58847">
        <ele>19.36</ele>
        <time>2013-10-27T09:41:51Z</time>
      </trkpt>
      <trkpt lat="47.2251" lon="-1.58863">
        <ele>19.36</ele>
        <time>2013-10-27T09:41:53Z</time>
      </trkpt>
      <trkpt lat="47.2251" lon="-1.58878">
        <ele>19.84</ele>
        <time>2013-10-27T09:41:55Z</time>
      </trkpt>
      <trkpt lat="47.22512" lon="-1.58897">
        <ele>19.84</ele>
        <time>2013-10-27T09:41:58Z</time>
      </trkpt>
      <trkpt lat="47.22517" lon="-1.58913">
        <ele>19.84</ele>
        <time>2013-10-27T09:42:01Z</time>
      </trkpt>
      <trkpt lat="47.22516" lon="-1.58933">
        <ele>19.84</ele>
        <time>2013-10-27T09:42:04Z</time>
      </trkpt>
      <trkpt lat="47.22516" lon="-1.58947">
        <ele>19.84</ele>
        <time>2013-10-27T09:42:06Z</time>
      </trkpt>
      <trkpt lat="47.22517" lon="-1.58962">
        <ele>20.32</ele>
        <time>2013-10-27T09:42:08Z</time>
      </trkpt>
      <trkpt lat="47.22522" lon="-1.58982">
        <ele>19.84</ele>
        <time>2013-10-27T09:42:11Z</time>
      </trkpt>
      <trkpt lat="47.2253" lon="-1.58998">
        <ele>19.84</ele>
        <time>2013-10-27T09:42:14Z</time>
      </trkpt>
      <trkpt lat="47.22546" lon="-1.5901">
        <ele>18.88</ele>
        <time>2013-10-27T09:42:17Z</time>
      </trkpt>
      <trkpt lat="47.22568" lon="-1.59016">
        <ele>18.4</ele>
        <time>2013-10-27T09:42:19Z</time>
      </trkpt>
      <trkpt lat="47.2258" lon="-1.59018">
        <ele>18.88</ele>
        <time>2013-10-27T09:42:21Z</time>
      </trkpt>
      <trkpt lat="47.22591" lon="-1.5902">
        <ele>19.36</ele>
        <time>2013-10-27T09:42:23Z</time>
      </trkpt>
      <trkpt lat="47.22601" lon="-1.59024">
        <ele>19.84</ele>
        <time>2013-10-27T09:42:25Z</time>
      </trkpt>
      <trkpt lat="47.22611" lon="-1.59028">
        <ele>20.81</ele>
        <time>2013-10-27T09:42:27Z</time>
      </trkpt>
      <trkpt lat="47.22621" lon="-1.59033">
        <ele>21.29</ele>
        <time>2013-10-27T09:42:29Z</time>
      </trkpt>
      <trkpt lat="47.2263" lon="-1.5904">
        <ele>21.29</ele>
        <time>2013-10-27T09:42:31Z</time>
      </trkpt>
      <trkpt lat="47.22641" lon="-1.59053">
        <ele>23.69</ele>
        <time>2013-10-27T09:42:34Z</time>
      </trkpt>
      <trkpt lat="47.22647" lon="-1.59065">
        <ele>26.09</ele>
        <time>2013-10-27T09:42:37Z</time>
      </trkpt>
      <trkpt lat="47.22657" lon="-1.59075">
        <ele>29.46</ele>
        <time>2013-10-27T09:42:41Z</time>
      </trkpt>
      <trkpt lat="47.22668" lon="-1.59088">
        <ele>32.82</ele>
        <time>2013-10-27T09:42:45Z</time>
      </trkpt>
      <trkpt lat="47.22682" lon="-1.591">
        <ele>34.74</ele>
        <time>2013-10-27T09:42:48Z</time>
      </trkpt>
      <trkpt lat="47.22692" lon="-1.59109">
        <ele>35.71</ele>
        <time>2013-10-27T09:42:50Z</time>
      </trkpt>
      <trkpt lat="47.22705" lon="-1.59118">
        <ele>35.71</ele>
        <time>2013-10-27T09:42:52Z</time>
      </trkpt>
      <trkpt lat="47.22717" lon="-1.59127">
        <ele>37.15</ele>
        <time>2013-10-27T09:42:55Z</time>
      </trkpt>
      <trkpt lat="47.22727" lon="-1.59136">
        <ele>39.07</ele>
        <time>2013-10-27T09:42:58Z</time>
      </trkpt>
      <trkpt lat="47.22737" lon="-1.59148">
        <ele>39.07</ele>
        <time>2013-10-27T09:43:01Z</time>
      </trkpt>
      <trkpt lat="47.22747" lon="-1.59164">
        <ele>36.19</ele>
        <time>2013-10-27T09:43:04Z</time>
      </trkpt>
      <trkpt lat="47.22754" lon="-1.59181">
        <ele>35.23</ele>
        <time>2013-10-27T09:43:07Z</time>
      </trkpt>
      <trkpt lat="47.22755" lon="-1.59197">
        <ele>35.23</ele>
        <time>2013-10-27T09:43:10Z</time>
      </trkpt>
      <trkpt lat="47.22749" lon="-1.59211">
        <ele>35.71</ele>
        <time>2013-10-27T09:43:13Z</time>
      </trkpt>
      <trkpt lat="47.22743" lon="-1.59222">
        <ele>35.71</ele>
        <time>2013-10-27T09:43:15Z</time>
      </trkpt>
      <trkpt lat="47.22737" lon="-1.59237">
        <ele>36.67</ele>
        <time>2013-10-27T09:43:18Z</time>
      </trkpt>
      <trkpt lat="47.2273" lon="-1.59253">
        <ele>37.63</ele>
        <time>2013-10-27T09:43:21Z</time>
      </trkpt>
      <trkpt lat="47.22723" lon="-1.59268">
        <ele>38.11</ele>
        <time>2013-10-27T09:43:24Z</time>
      </trkpt>
      <trkpt lat="47.2272" lon="-1.5928">
        <ele>38.11</ele>
        <time>2013-10-27T09:43:26Z</time>
      </trkpt>
      <trkpt lat="47.22718" lon="-1.59298">
        <ele>38.59</ele>
        <time>2013-10-27T09:43:29Z</time>
      </trkpt>
      <trkpt lat="47.22717" lon="-1.59316">
        <ele>38.11</ele>
        <time>2013-10-27T09:43:32Z</time>
      </trkpt>
      <trkpt lat="47.22717" lon="-1.59333">
        <ele>36.67</ele>
        <time>2013-10-27T09:43:35Z</time>
      </trkpt>
      <trkpt lat="47.22713" lon="-1.59351">
        <ele>35.71</ele>
        <time>2013-10-27T09:43:38Z</time>
      </trkpt>
      <trkpt lat="47.2271" lon="-1.59364">
        <ele>35.23</ele>
        <time>2013-10-27T09:43:40Z</time>
      </trkpt>
      <trkpt lat="47.22704" lon="-1.59382">
        <ele>33.78</ele>
        <time>2013-10-27T09:43:43Z</time>
      </trkpt>
      <trkpt lat="47.22699" lon="-1.594">
        <ele>32.34</ele>
        <time>2013-10-27T09:43:46Z</time>
      </trkpt>
      <trkpt lat="47.22694" lon="-1.59415">
        <ele>31.38</ele>
        <time>2013-10-27T09:43:49Z</time>
      </trkpt>
      <trkpt lat="47.2269" lon="-1.59432">
        <ele>30.42</ele>
        <time>2013-10-27T09:43:52Z</time>
      </trkpt>
      <trkpt lat="47.22686" lon="-1.59452">
        <ele>29.94</ele>
        <time>2013-10-27T09:43:55Z</time>
      </trkpt>
      <trkpt lat="47.22685" lon="-1.59474">
        <ele>29.46</ele>
        <time>2013-10-27T09:43:58Z</time>
      </trkpt>
      <trkpt lat="47.22688" lon="-1.59493">
        <ele>27.53</ele>
        <time>2013-10-27T09:44:01Z</time>
      </trkpt>
      <trkpt lat="47.22693" lon="-1.5951">
        <ele>27.53</ele>
        <time>2013-10-27T09:44:04Z</time>
      </trkpt>
      <trkpt lat="47.22699" lon="-1.59528">
        <ele>26.09</ele>
        <time>2013-10-27T09:44:08Z</time>
      </trkpt>
      <trkpt lat="47.22711" lon="-1.59545">
        <ele>23.21</ele>
        <time>2013-10-27T09:44:13Z</time>
      </trkpt>
      <trkpt lat="47.22726" lon="-1.59548">
        <ele>22.73</ele>
        <time>2013-10-27T09:44:17Z</time>
      </trkpt>
      <trkpt lat="47.22736" lon="-1.59549">
        <ele>24.65</ele>
        <time>2013-10-27T09:44:20Z</time>
      </trkpt>
      <trkpt lat="47.22747" lon="-1.59548">
        <ele>24.65</ele>
        <time>2013-10-27T09:44:23Z</time>
      </trkpt>
      <trkpt lat="47.22761" lon="-1.59547">
        <ele>25.13</ele>
        <time>2013-10-27T09:44:26Z</time>
      </trkpt>
      <trkpt lat="47.22775" lon="-1.59546">
        <ele>24.65</ele>
        <time>2013-10-27T09:44:29Z</time>
      </trkpt>
      <trkpt lat="47.22784" lon="-1.59545">
        <ele>24.65</ele>
        <time>2013-10-27T09:44:31Z</time>
      </trkpt>
      <trkpt lat="47.22801" lon="-1.59545">
        <ele>24.17</ele>
        <time>2013-10-27T09:44:34Z</time>
      </trkpt>
      <trkpt lat="47.22812" lon="-1.59543">
        <ele>24.17</ele>
        <time>2013-10-27T09:44:37Z</time>
      </trkpt>
      <trkpt lat="47.22827" lon="-1.59547">
        <ele>24.65</ele>
        <time>2013-10-27T09:44:41Z</time>
      </trkpt>
      <trkpt lat="47.22837" lon="-1.59559">
        <ele>25.13</ele>
        <time>2013-10-27T09:44:44Z</time>
      </trkpt>
      <trkpt lat="47.22843" lon="-1.59572">
        <ele>25.13</ele>
        <time>2013-10-27T09:44:47Z</time>
      </trkpt>
      <trkpt lat="47.22845" lon="-1.59586">
        <ele>25.13</ele>
        <time>2013-10-27T09:44:50Z</time>
      </trkpt>
      <trkpt lat="47.22841" lon="-1.59602">
        <ele>25.13</ele>
        <time>2013-10-27T09:44:53Z</time>
      </trkpt>
      <trkpt lat="47.2284" lon="-1.59618">
        <ele>25.61</ele>
        <time>2013-10-27T09:44:56Z</time>
      </trkpt>
      <trkpt lat="47.22843" lon="-1.59636">
        <ele>25.61</ele>
        <time>2013-10-27T09:44:59Z</time>
      </trkpt>
      <trkpt lat="47.22849" lon="-1.5965">
        <ele>26.09</ele>
        <time>2013-10-27T09:45:02Z</time>
      </trkpt>
      <trkpt lat="47.2286" lon="-1.59662">
        <ele>25.61</ele>
        <time>2013-10-27T09:45:05Z</time>
      </trkpt>
      <trkpt lat="47.22872" lon="-1.59673">
        <ele>25.13</ele>
        <time>2013-10-27T09:45:08Z</time>
      </trkpt>
      <trkpt lat="47.22879" lon="-1.59681">
        <ele>25.61</ele>
        <time>2013-10-27T09:45:10Z</time>
      </trkpt>
      <trkpt lat="47.22888" lon="-1.59688">
        <ele>25.61</ele>
        <time>2013-10-27T09:45:12Z</time>
      </trkpt>
      <trkpt lat="47.22898" lon="-1.59696">
        <ele>25.61</ele>
        <time>2013-10-27T09:45:15Z</time>
      </trkpt>
      <trkpt lat="47.22908" lon="-1.59705">
        <ele>25.13</ele>
        <time>2013-10-27T09:45:18Z</time>
      </trkpt>
      <trkpt lat="47.22921" lon="-1.5971">
        <ele>24.65</ele>
        <time>2013-10-27T09:45:23Z</time>
      </trkpt>
      <trkpt lat="47.22925" lon="-1.59719">
        <ele>26.57</ele>
        <time>2013-10-27T09:45:48Z</time>
      </trkpt>
      <trkpt lat="47.22922" lon="-1.59731">
        <ele>23.69</ele>
        <time>2013-10-27T09:45:52Z</time>
      </trkpt>
      <trkpt lat="47.22918" lon="-1.59742">
        <ele>21.77</ele>
        <time>2013-10-27T09:45:55Z</time>
      </trkpt>
      <trkpt lat="47.22917" lon="-1.59754">
        <ele>20.32</ele>
        <time>2013-10-27T09:45:59Z</time>
      </trkpt>
      <trkpt lat="47.22919" lon="-1.59765">
        <ele>19.84</ele>
        <time>2013-10-27T09:46:13Z</time>
      </trkpt>
      <trkpt lat="47.22925" lon="-1.59773">
        <ele>20.32</ele>
        <time>2013-10-27T09:46:16Z</time>
      </trkpt>
      <trkpt lat="47.22935" lon="-1.5978">
        <ele>20.32</ele>
        <time>2013-10-27T09:46:20Z</time>
      </trkpt>
      <trkpt lat="47.22942" lon="-1.59794">
        <ele>20.81</ele>
        <time>2013-10-27T09:46:23Z</time>
      </trkpt>
      <trkpt lat="47.22951" lon="-1.59806">
        <ele>21.29</ele>
        <time>2013-10-27T09:46:26Z</time>
      </trkpt>
      <trkpt lat="47.22962" lon="-1.5981">
        <ele>21.77</ele>
        <time>2013-10-27T09:46:29Z</time>
      </trkpt>
      <trkpt lat="47.22973" lon="-1.59813">
        <ele>22.73</ele>
        <time>2013-10-27T09:46:33Z</time>
      </trkpt>
      <trkpt lat="47.22984" lon="-1.59816">
        <ele>21.77</ele>
        <time>2013-10-27T09:46:36Z</time>
      </trkpt>
      <trkpt lat="47.22994" lon="-1.59816">
        <ele>22.25</ele>
        <time>2013-10-27T09:46:38Z</time>
      </trkpt>
      <trkpt lat="47.23006" lon="-1.59813">
        <ele>22.73</ele>
        <time>2013-10-27T09:46:40Z</time>
      </trkpt>
      <trkpt lat="47.23017" lon="-1.59807">
        <ele>23.21</ele>
        <time>2013-10-27T09:46:42Z</time>
      </trkpt>
      <trkpt lat="47.23026" lon="-1.59794">
        <ele>23.21</ele>
        <time>2013-10-27T09:46:44Z</time>
      </trkpt>
      <trkpt lat="47.23035" lon="-1.59781">
        <ele>23.21</ele>
        <time>2013-10-27T09:46:46Z</time>
      </trkpt>
      <trkpt lat="47.23044" lon="-1.59772">
        <ele>23.21</ele>
        <time>2013-10-27T09:46:48Z</time>
      </trkpt>
      <trkpt lat="47.23052" lon="-1.59763">
        <ele>23.21</ele>
        <time>2013-10-27T09:46:50Z</time>
      </trkpt>
      <trkpt lat="47.23064" lon="-1.59756">
        <ele>22.25</ele>
        <time>2013-10-27T09:46:53Z</time>
      </trkpt>
      <trkpt lat="47.23074" lon="-1.59757">
        <ele>22.25</ele>
        <time>2013-10-27T09:46:55Z</time>
      </trkpt>
      <trkpt lat="47.23084" lon="-1.5976">
        <ele>22.25</ele>
        <time>2013-10-27T09:46:57Z</time>
      </trkpt>
      <trkpt lat="47.23091" lon="-1.59767">
        <ele>22.25</ele>
        <time>2013-10-27T09:46:59Z</time>
      </trkpt>
      <trkpt lat="47.23097" lon="-1.59779">
        <ele>22.25</ele>
        <time>2013-10-27T09:47:02Z</time>
      </trkpt>
      <trkpt lat="47.23106" lon="-1.59792">
        <ele>21.77</ele>
        <time>2013-10-27T09:47:06Z</time>
      </trkpt>
      <trkpt lat="47.2312" lon="-1.59805">
        <ele>21.77</ele>
        <time>2013-10-27T09:47:09Z</time>
      </trkpt>
      <trkpt lat="47.23129" lon="-1.59816">
        <ele>21.77</ele>
        <time>2013-10-27T09:47:11Z</time>
      </trkpt>
      <trkpt lat="47.23139" lon="-1.59824">
        <ele>21.29</ele>
        <time>2013-10-27T09:47:13Z</time>
      </trkpt>
      <trkpt lat="47.23148" lon="-1.59834">
        <ele>21.77</ele>
        <time>2013-10-27T09:47:15Z</time>
      </trkpt>
      <trkpt lat="47.23157" lon="-1.59844">
        <ele>21.77</ele>
        <time>2013-10-27T09:47:17Z</time>
      </trkpt>
      <trkpt lat="47.23165" lon="-1.59857">
        <ele>21.29</ele>
        <time>2013-10-27T09:47:19Z</time>
      </trkpt>
      <trkpt lat="47.23174" lon="-1.59869">
        <ele>20.81</ele>
        <time>2013-10-27T09:47:21Z</time>
      </trkpt>
      <trkpt lat="47.23182" lon="-1.59885">
        <ele>20.32</ele>
        <time>2013-10-27T09:47:23Z</time>
      </trkpt>
      <trkpt lat="47.23186" lon="-1.599">
        <ele>19.84</ele>
        <time>2013-10-27T09:47:25Z</time>
      </trkpt>
      <trkpt lat="47.23188" lon="-1.59915">
        <ele>18.88</ele>
        <time>2013-10-27T09:47:27Z</time>
      </trkpt>
      <trkpt lat="47.23185" lon="-1.59933">
        <ele>17.44</ele>
        <time>2013-10-27T09:47:30Z</time>
      </trkpt>
      <trkpt lat="47.23181" lon="-1.59944">
        <ele>16</ele>
        <time>2013-10-27T09:47:35Z</time>
      </trkpt>
      <trkpt lat="47.23186" lon="-1.59957">
        <ele>15.04</ele>
        <time>2013-10-27T09:47:39Z</time>
      </trkpt>
      <trkpt lat="47.23193" lon="-1.59972">
        <ele>16</ele>
        <time>2013-10-27T09:47:47Z</time>
      </trkpt>
      <trkpt lat="47.23204" lon="-1.59968">
        <ele>16.48</ele>
        <time>2013-10-27T09:47:54Z</time>
      </trkpt>
      <trkpt lat="47.23216" lon="-1.59971">
        <ele>16.96</ele>
        <time>2013-10-27T09:47:59Z</time>
      </trkpt>
      <trkpt lat="47.23227" lon="-1.5997">
        <ele>18.88</ele>
        <time>2013-10-27T09:48:03Z</time>
      </trkpt>
      <trkpt lat="47.2324" lon="-1.59964">
        <ele>18.88</ele>
        <time>2013-10-27T09:48:07Z</time>
      </trkpt>
      <trkpt lat="47.23249" lon="-1.59956">
        <ele>17.92</ele>
        <time>2013-10-27T09:48:10Z</time>
      </trkpt>
      <trkpt lat="47.23262" lon="-1.59955">
        <ele>17.92</ele>
        <time>2013-10-27T09:48:13Z</time>
      </trkpt>
      <trkpt lat="47.23272" lon="-1.59962">
        <ele>19.36</ele>
        <time>2013-10-27T09:48:16Z</time>
      </trkpt>
      <trkpt lat="47.2328" lon="-1.59974">
        <ele>20.81</ele>
        <time>2013-10-27T09:48:19Z</time>
      </trkpt>
      <trkpt lat="47.23285" lon="-1.59993">
        <ele>21.29</ele>
        <time>2013-10-27T09:48:22Z</time>
      </trkpt>
      <trkpt lat="47.23287" lon="-1.60006">
        <ele>21.77</ele>
        <time>2013-10-27T09:48:24Z</time>
      </trkpt>
      <trkpt lat="47.23289" lon="-1.60024">
        <ele>22.73</ele>
        <time>2013-10-27T09:48:27Z</time>
      </trkpt>
      <trkpt lat="47.2329" lon="-1.60041">
        <ele>23.69</ele>
        <time>2013-10-27T09:48:30Z</time>
      </trkpt>
      <trkpt lat="47.23289" lon="-1.60057">
        <ele>26.09</ele>
        <time>2013-10-27T09:48:33Z</time>
      </trkpt>
      <trkpt lat="47.23293" lon="-1.60076">
        <ele>28.5</ele>
        <time>2013-10-27T09:48:37Z</time>
      </trkpt>
      <trkpt lat="47.23291" lon="-1.60096">
        <ele>29.94</ele>
        <time>2013-10-27T09:48:40Z</time>
      </trkpt>
      <trkpt lat="47.23292" lon="-1.60117">
        <ele>31.86</ele>
        <time>2013-10-27T09:48:43Z</time>
      </trkpt>
      <trkpt lat="47.23294" lon="-1.60135">
        <ele>32.82</ele>
        <time>2013-10-27T09:48:46Z</time>
      </trkpt>
      <trkpt lat="47.23302" lon="-1.60151">
        <ele>34.74</ele>
        <time>2013-10-27T09:48:49Z</time>
      </trkpt>
      <trkpt lat="47.23309" lon="-1.60164">
        <ele>36.19</ele>
        <time>2013-10-27T09:48:52Z</time>
      </trkpt>
      <trkpt lat="47.23316" lon="-1.6018">
        <ele>39.07</ele>
        <time>2013-10-27T09:48:56Z</time>
      </trkpt>
      <trkpt lat="47.23324" lon="-1.60198">
        <ele>40.03</ele>
        <time>2013-10-27T09:48:59Z</time>
      </trkpt>
      <trkpt lat="47.23334" lon="-1.60213">
        <ele>41.95</ele>
        <time>2013-10-27T09:49:02Z</time>
      </trkpt>
      <trkpt lat="47.23346" lon="-1.6023">
        <ele>43.4</ele>
        <time>2013-10-27T09:49:06Z</time>
      </trkpt>
      <trkpt lat="47.23354" lon="-1.60243">
        <ele>42.92</ele>
        <time>2013-10-27T09:49:09Z</time>
      </trkpt>
      <trkpt lat="47.23362" lon="-1.60256">
        <ele>42.92</ele>
        <time>2013-10-27T09:49:12Z</time>
      </trkpt>
      <trkpt lat="47.23368" lon="-1.60271">
        <ele>43.4</ele>
        <time>2013-10-27T09:49:15Z</time>
      </trkpt>
      <trkpt lat="47.23376" lon="-1.60287">
        <ele>43.88</ele>
        <time>2013-10-27T09:49:18Z</time>
      </trkpt>
      <trkpt lat="47.2339" lon="-1.60297">
        <ele>40.03</ele>
        <time>2013-10-27T09:49:21Z</time>
      </trkpt>
      <trkpt lat="47.23402" lon="-1.60303">
        <ele>37.63</ele>
        <time>2013-10-27T09:49:24Z</time>
      </trkpt>
      <trkpt lat="47.23417" lon="-1.60312">
        <ele>36.19</ele>
        <time>2013-10-27T09:49:27Z</time>
      </trkpt>
      <trkpt lat="47.23428" lon="-1.60324">
        <ele>35.71</ele>
        <time>2013-10-27T09:49:30Z</time>
      </trkpt>
      <trkpt lat="47.23436" lon="-1.60341">
        <ele>36.67</ele>
        <time>2013-10-27T09:49:33Z</time>
      </trkpt>
      <trkpt lat="47.23444" lon="-1.60359">
        <ele>37.15</ele>
        <time>2013-10-27T09:49:36Z</time>
      </trkpt>
      <trkpt lat="47.23449" lon="-1.60374">
        <ele>38.11</ele>
        <time>2013-10-27T09:49:39Z</time>
      </trkpt>
      <trkpt lat="47.23455" lon="-1.6039">
        <ele>38.59</ele>
        <time>2013-10-27T09:49:42Z</time>
      </trkpt>
      <trkpt lat="47.23463" lon="-1.60404">
        <ele>36.19</ele>
        <time>2013-10-27T09:49:47Z</time>
      </trkpt>
      <trkpt lat="47.23466" lon="-1.60422">
        <ele>34.26</ele>
        <time>2013-10-27T09:49:51Z</time>
      </trkpt>
      <trkpt lat="47.23469" lon="-1.60439">
        <ele>34.74</ele>
        <time>2013-10-27T09:49:55Z</time>
      </trkpt>
      <trkpt lat="47.23471" lon="-1.60456">
        <ele>35.23</ele>
        <time>2013-10-27T09:49:59Z</time>
      </trkpt>
      <trkpt lat="47.23472" lon="-1.60472">
        <ele>36.19</ele>
        <time>2013-10-27T09:50:03Z</time>
      </trkpt>
      <trkpt lat="47.23474" lon="-1.60487">
        <ele>36.19</ele>
        <time>2013-10-27T09:50:07Z</time>
      </trkpt>
      <trkpt lat="47.23478" lon="-1.60505">
        <ele>34.74</ele>
        <time>2013-10-27T09:50:11Z</time>
      </trkpt>
      <trkpt lat="47.23481" lon="-1.60525">
        <ele>30.9</ele>
        <time>2013-10-27T09:50:14Z</time>
      </trkpt>
      <trkpt lat="47.23484" lon="-1.60541">
        <ele>29.46</ele>
        <time>2013-10-27T09:50:17Z</time>
      </trkpt>
      <trkpt lat="47.23486" lon="-1.6056">
        <ele>29.46</ele>
        <time>2013-10-27T09:50:21Z</time>
      </trkpt>
      <trkpt lat="47.23487" lon="-1.60575">
        <ele>29.94</ele>
        <time>2013-10-27T09:50:24Z</time>
      </trkpt>
      <trkpt lat="47.23487" lon="-1.60589">
        <ele>29.46</ele>
        <time>2013-10-27T09:50:26Z</time>
      </trkpt>
      <trkpt lat="47.2349" lon="-1.60608">
        <ele>29.46</ele>
        <time>2013-10-27T09:50:28Z</time>
      </trkpt>
      <trkpt lat="47.23495" lon="-1.60623">
        <ele>29.46</ele>
        <time>2013-10-27T09:50:30Z</time>
      </trkpt>
      <trkpt lat="47.235" lon="-1.60635">
        <ele>29.46</ele>
        <time>2013-10-27T09:50:32Z</time>
      </trkpt>
      <trkpt lat="47.23507" lon="-1.60649">
        <ele>29.46</ele>
        <time>2013-10-27T09:50:35Z</time>
      </trkpt>
      <trkpt lat="47.23512" lon="-1.60666">
        <ele>28.98</ele>
        <time>2013-10-27T09:50:39Z</time>
      </trkpt>
      <trkpt lat="47.23515" lon="-1.6068">
        <ele>29.46</ele>
        <time>2013-10-27T09:50:42Z</time>
      </trkpt>
      <trkpt lat="47.23521" lon="-1.60696">
        <ele>28.98</ele>
        <time>2013-10-27T09:50:46Z</time>
      </trkpt>
      <trkpt lat="47.23528" lon="-1.60712">
        <ele>28.98</ele>
        <time>2013-10-27T09:50:50Z</time>
      </trkpt>
      <trkpt lat="47.23533" lon="-1.60727">
        <ele>28.98</ele>
        <time>2013-10-27T09:50:54Z</time>
      </trkpt>
      <trkpt lat="47.23538" lon="-1.60741">
        <ele>28.5</ele>
        <time>2013-10-27T09:50:57Z</time>
      </trkpt>
      <trkpt lat="47.23544" lon="-1.60756">
        <ele>27.05</ele>
        <time>2013-10-27T09:51:00Z</time>
      </trkpt>
      <trkpt lat="47.2355" lon="-1.60769">
        <ele>26.57</ele>
        <time>2013-10-27T09:51:03Z</time>
      </trkpt>
      <trkpt lat="47.23559" lon="-1.60783">
        <ele>25.61</ele>
        <time>2013-10-27T09:51:07Z</time>
      </trkpt>
      <trkpt lat="47.23566" lon="-1.60797">
        <ele>25.61</ele>
        <time>2013-10-27T09:51:11Z</time>
      </trkpt>
      <trkpt lat="47.23567" lon="-1.60812">
        <ele>26.09</ele>
        <time>2013-10-27T09:51:14Z</time>
      </trkpt>
      <trkpt lat="47.23566" lon="-1.60827">
        <ele>27.05</ele>
        <time>2013-10-27T09:51:17Z</time>
      </trkpt>
      <trkpt lat="47.23564" lon="-1.60841">
        <ele>28.98</ele>
        <time>2013-10-27T09:51:20Z</time>
      </trkpt>
      <trkpt lat="47.23565" lon="-1.60858">
        <ele>29.46</ele>
        <time>2013-10-27T09:51:24Z</time>
      </trkpt>
      <trkpt lat="47.23568" lon="-1.60875">
        <ele>29.46</ele>
        <time>2013-10-27T09:51:28Z</time>
      </trkpt>
      <trkpt lat="47.23574" lon="-1.60892">
        <ele>28.5</ele>
        <time>2013-10-27T09:51:32Z</time>
      </trkpt>
      <trkpt lat="47.23578" lon="-1.60905">
        <ele>27.53</ele>
        <time>2013-10-27T09:51:35Z</time>
      </trkpt>
      <trkpt lat="47.23582" lon="-1.60921">
        <ele>27.53</ele>
        <time>2013-10-27T09:51:38Z</time>
      </trkpt>
      <trkpt lat="47.23583" lon="-1.60938">
        <ele>27.53</ele>
        <time>2013-10-27T09:51:41Z</time>
      </trkpt>
      <trkpt lat="47.2358" lon="-1.60954">
        <ele>28.02</ele>
        <time>2013-10-27T09:51:44Z</time>
      </trkpt>
      <trkpt lat="47.23577" lon="-1.60971">
        <ele>29.46</ele>
        <time>2013-10-27T09:51:47Z</time>
      </trkpt>
      <trkpt lat="47.23572" lon="-1.60988">
        <ele>30.42</ele>
        <time>2013-10-27T09:51:50Z</time>
      </trkpt>
      <trkpt lat="47.23567" lon="-1.61001">
        <ele>31.38</ele>
        <time>2013-10-27T09:51:52Z</time>
      </trkpt>
      <trkpt lat="47.23562" lon="-1.61013">
        <ele>32.82</ele>
        <time>2013-10-27T09:51:54Z</time>
      </trkpt>
      <trkpt lat="47.23554" lon="-1.61029">
        <ele>33.3</ele>
        <time>2013-10-27T09:51:57Z</time>
      </trkpt>
      <trkpt lat="47.23548" lon="-1.61044">
        <ele>34.26</ele>
        <time>2013-10-27T09:52:00Z</time>
      </trkpt>
      <trkpt lat="47.23541" lon="-1.61057">
        <ele>34.26</ele>
        <time>2013-10-27T09:52:04Z</time>
      </trkpt>
      <trkpt lat="47.23531" lon="-1.61071">
        <ele>33.78</ele>
        <time>2013-10-27T09:52:08Z</time>
      </trkpt>
      <trkpt lat="47.2352" lon="-1.61084">
        <ele>33.78</ele>
        <time>2013-10-27T09:52:11Z</time>
      </trkpt>
      <trkpt lat="47.23511" lon="-1.61093">
        <ele>34.26</ele>
        <time>2013-10-27T09:52:14Z</time>
      </trkpt>
      <trkpt lat="47.23508" lon="-1.61096">
        <ele>33.78</ele>
        <time>2013-10-27T09:52:28Z</time>
      </trkpt>
      <trkpt lat="47.23518" lon="-1.611">
        <ele>34.74</ele>
        <time>2013-10-27T09:52:37Z</time>
      </trkpt>
      <trkpt lat="47.23525" lon="-1.61122">
        <ele>31.38</ele>
        <time>2013-10-27T09:52:59Z</time>
      </trkpt>
      <trkpt lat="47.2353" lon="-1.61138">
        <ele>29.94</ele>
        <time>2013-10-27T09:53:03Z</time>
      </trkpt>
      <trkpt lat="47.23524" lon="-1.61145">
        <ele>22.73</ele>
        <time>2013-10-27T09:54:22Z</time>
      </trkpt>
      <trkpt lat="47.23517" lon="-1.6115">
        <ele>24.17</ele>
        <time>2013-10-27T09:54:32Z</time>
      </trkpt>
      <trkpt lat="47.23509" lon="-1.61157">
        <ele>25.13</ele>
        <time>2013-10-27T09:54:36Z</time>
      </trkpt>
      <trkpt lat="47.235" lon="-1.61164">
        <ele>26.57</ele>
        <time>2013-10-27T09:54:40Z</time>
      </trkpt>
      <trkpt lat="47.23492" lon="-1.61171">
        <ele>28.02</ele>
        <time>2013-10-27T09:54:43Z</time>
      </trkpt>
      <trkpt lat="47.23482" lon="-1.6118">
        <ele>29.46</ele>
        <time>2013-10-27T09:54:46Z</time>
      </trkpt>
      <trkpt lat="47.23472" lon="-1.61187">
        <ele>32.82</ele>
        <time>2013-10-27T09:54:54Z</time>
      </trkpt>
      <trkpt lat="47.23463" lon="-1.61192">
        <ele>35.23</ele>
        <time>2013-10-27T09:54:59Z</time>
      </trkpt>
      <trkpt lat="47.23452" lon="-1.61197">
        <ele>35.71</ele>
        <time>2013-10-27T09:55:03Z</time>
      </trkpt>
      <trkpt lat="47.23439" lon="-1.61202">
        <ele>35.23</ele>
        <time>2013-10-27T09:55:07Z</time>
      </trkpt>
      <trkpt lat="47.23429" lon="-1.61202">
        <ele>34.74</ele>
        <time>2013-10-27T09:55:11Z</time>
      </trkpt>
      <trkpt lat="47.23416" lon="-1.61206">
        <ele>34.26</ele>
        <time>2013-10-27T09:55:14Z</time>
      </trkpt>
      <trkpt lat="47.23407" lon="-1.61213">
        <ele>33.78</ele>
        <time>2013-10-27T09:55:17Z</time>
      </trkpt>
      <trkpt lat="47.23395" lon="-1.61222">
        <ele>33.3</ele>
        <time>2013-10-27T09:55:21Z</time>
      </trkpt>
      <trkpt lat="47.23387" lon="-1.61231">
        <ele>32.82</ele>
        <time>2013-10-27T09:55:25Z</time>
      </trkpt>
      <trkpt lat="47.2337" lon="-1.61237">
        <ele>35.23</ele>
        <time>2013-10-27T09:55:37Z</time>
      </trkpt>
      <trkpt lat="47.23355" lon="-1.61243">
        <ele>41.95</ele>
        <time>2013-10-27T09:55:57Z</time>
      </trkpt>
      <trkpt lat="47.23338" lon="-1.61247">
        <ele>40.99</ele>
        <time>2013-10-27T09:56:07Z</time>
      </trkpt>
      <trkpt lat="47.23324" lon="-1.61248">
        <ele>40.51</ele>
        <time>2013-10-27T09:56:12Z</time>
      </trkpt>
      <trkpt lat="47.23312" lon="-1.61246">
        <ele>37.15</ele>
        <time>2013-10-27T09:56:16Z</time>
      </trkpt>
      <trkpt lat="47.23298" lon="-1.61246">
        <ele>36.67</ele>
        <time>2013-10-27T09:56:20Z</time>
      </trkpt>
      <trkpt lat="47.23286" lon="-1.61246">
        <ele>36.67</ele>
        <time>2013-10-27T09:56:23Z</time>
      </trkpt>
      <trkpt lat="47.23275" lon="-1.61245">
        <ele>37.63</ele>
        <time>2013-10-27T09:56:26Z</time>
      </trkpt>
      <trkpt lat="47.23265" lon="-1.61249">
        <ele>37.15</ele>
        <time>2013-10-27T09:56:30Z</time>
      </trkpt>
      <trkpt lat="47.23253" lon="-1.6125">
        <ele>36.19</ele>
        <time>2013-10-27T09:56:34Z</time>
      </trkpt>
      <trkpt lat="47.23239" lon="-1.61252">
        <ele>35.23</ele>
        <time>2013-10-27T09:56:40Z</time>
      </trkpt>
      <trkpt lat="47.23229" lon="-1.61264">
        <ele>33.78</ele>
        <time>2013-10-27T09:56:44Z</time>
      </trkpt>
      <trkpt lat="47.2322" lon="-1.61278">
        <ele>34.74</ele>
        <time>2013-10-27T09:56:50Z</time>
      </trkpt>
      <trkpt lat="47.23217" lon="-1.61294">
        <ele>38.11</ele>
        <time>2013-10-27T09:58:21Z</time>
      </trkpt>
      <trkpt lat="47.23227" lon="-1.613">
        <ele>40.99</ele>
        <time>2013-10-27T09:58:26Z</time>
      </trkpt>
      <trkpt lat="47.23234" lon="-1.61315">
        <ele>43.88</ele>
        <time>2013-10-27T09:58:32Z</time>
      </trkpt>
      <trkpt lat="47.23244" lon="-1.61326">
        <ele>50.61</ele>
        <time>2013-10-27T09:58:40Z</time>
      </trkpt>
      <trkpt lat="47.23257" lon="-1.61326">
        <ele>53.49</ele>
        <time>2013-10-27T09:58:46Z</time>
      </trkpt>
      <trkpt lat="47.23273" lon="-1.61334">
        <ele>50.13</ele>
        <time>2013-10-27T09:58:53Z</time>
      </trkpt>
      <trkpt lat="47.23282" lon="-1.61344">
        <ele>49.16</ele>
        <time>2013-10-27T09:58:57Z</time>
      </trkpt>
      <trkpt lat="47.23292" lon="-1.61353">
        <ele>48.68</ele>
        <time>2013-10-27T09:59:01Z</time>
      </trkpt>
      <trkpt lat="47.23302" lon="-1.61363">
        <ele>47.72</ele>
        <time>2013-10-27T09:59:05Z</time>
      </trkpt>
      <trkpt lat="47.23312" lon="-1.61372">
        <ele>47.24</ele>
        <time>2013-10-27T09:59:08Z</time>
      </trkpt>
      <trkpt lat="47.23321" lon="-1.61382">
        <ele>46.76</ele>
        <time>2013-10-27T09:59:11Z</time>
      </trkpt>
      <trkpt lat="47.23331" lon="-1.61391">
        <ele>46.28</ele>
        <time>2013-10-27T09:59:14Z</time>
      </trkpt>
      <trkpt lat="47.23341" lon="-1.614">
        <ele>46.28</ele>
        <time>2013-10-27T09:59:17Z</time>
      </trkpt>
      <trkpt lat="47.23351" lon="-1.61409">
        <ele>46.28</ele>
        <time>2013-10-27T09:59:20Z</time>
      </trkpt>
      <trkpt lat="47.23362" lon="-1.61418">
        <ele>46.28</ele>
        <time>2013-10-27T09:59:23Z</time>
      </trkpt>
      <trkpt lat="47.23372" lon="-1.61428">
        <ele>45.8</ele>
        <time>2013-10-27T09:59:26Z</time>
      </trkpt>
      <trkpt lat="47.23382" lon="-1.61439">
        <ele>45.8</ele>
        <time>2013-10-27T09:59:29Z</time>
      </trkpt>
      <trkpt lat="47.23391" lon="-1.61448">
        <ele>46.76</ele>
        <time>2013-10-27T09:59:32Z</time>
      </trkpt>
      <trkpt lat="47.23399" lon="-1.61458">
        <ele>48.2</ele>
        <time>2013-10-27T09:59:35Z</time>
      </trkpt>
      <trkpt lat="47.2341" lon="-1.61466">
        <ele>49.65</ele>
        <time>2013-10-27T09:59:38Z</time>
      </trkpt>
      <trkpt lat="47.23424" lon="-1.61471">
        <ele>49.65</ele>
        <time>2013-10-27T09:59:41Z</time>
      </trkpt>
      <trkpt lat="47.23434" lon="-1.61474">
        <ele>48.2</ele>
        <time>2013-10-27T09:59:43Z</time>
      </trkpt>
      <trkpt lat="47.23444" lon="-1.61476">
        <ele>47.24</ele>
        <time>2013-10-27T09:59:45Z</time>
      </trkpt>
      <trkpt lat="47.23452" lon="-1.61466">
        <ele>44.84</ele>
        <time>2013-10-27T09:59:48Z</time>
      </trkpt>
      <trkpt lat="47.23457" lon="-1.61455">
        <ele>42.44</ele>
        <time>2013-10-27T09:59:51Z</time>
      </trkpt>
      <trkpt lat="47.23461" lon="-1.61442">
        <ele>41.47</ele>
        <time>2013-10-27T09:59:54Z</time>
      </trkpt>
      <trkpt lat="47.2346" lon="-1.61428">
        <ele>40.51</ele>
        <time>2013-10-27T09:59:57Z</time>
      </trkpt>
      <trkpt lat="47.23459" lon="-1.61415">
        <ele>40.03</ele>
        <time>2013-10-27T10:00:00Z</time>
      </trkpt>
      <trkpt lat="47.23457" lon="-1.61401">
        <ele>39.55</ele>
        <time>2013-10-27T10:00:03Z</time>
      </trkpt>
      <trkpt lat="47.23454" lon="-1.61388">
        <ele>39.55</ele>
        <time>2013-10-27T10:00:06Z</time>
      </trkpt>
      <trkpt lat="47.23461" lon="-1.61381">
        <ele>39.07</ele>
        <time>2013-10-27T10:00:11Z</time>
      </trkpt>
      <trkpt lat="47.23472" lon="-1.6138">
        <ele>39.07</ele>
        <time>2013-10-27T10:00:14Z</time>
      </trkpt>
      <trkpt lat="47.23482" lon="-1.6138">
        <ele>39.55</ele>
        <time>2013-10-27T10:00:17Z</time>
      </trkpt>
      <trkpt lat="47.23495" lon="-1.61377">
        <ele>40.03</ele>
        <time>2013-10-27T10:00:21Z</time>
      </trkpt>
      <trkpt lat="47.23505" lon="-1.61374">
        <ele>40.03</ele>
        <time>2013-10-27T10:00:24Z</time>
      </trkpt>
      <trkpt lat="47.23516" lon="-1.61368">
        <ele>40.03</ele>
        <time>2013-10-27T10:00:27Z</time>
      </trkpt>
      <trkpt lat="47.23529" lon="-1.61365">
        <ele>40.03</ele>
        <time>2013-10-27T10:00:31Z</time>
      </trkpt>
      <trkpt lat="47.23539" lon="-1.61369">
        <ele>40.03</ele>
        <time>2013-10-27T10:00:34Z</time>
      </trkpt>
      <trkpt lat="47.2355" lon="-1.61376">
        <ele>40.51</ele>
        <time>2013-10-27T10:00:38Z</time>
      </trkpt>
      <trkpt lat="47.2356" lon="-1.61373">
        <ele>40.51</ele>
        <time>2013-10-27T10:00:41Z</time>
      </trkpt>
      <trkpt lat="47.2357" lon="-1.61377">
        <ele>40.99</ele>
        <time>2013-10-27T10:00:45Z</time>
      </trkpt>
      <trkpt lat="47.23583" lon="-1.61383">
        <ele>41.95</ele>
        <time>2013-10-27T10:00:50Z</time>
      </trkpt>
      <trkpt lat="47.23597" lon="-1.61387">
        <ele>42.44</ele>
        <time>2013-10-27T10:00:56Z</time>
      </trkpt>
      <trkpt lat="47.23605" lon="-1.61377">
        <ele>41.95</ele>
        <time>2013-10-27T10:01:02Z</time>
      </trkpt>
      <trkpt lat="47.23615" lon="-1.61378">
        <ele>41.47</ele>
        <time>2013-10-27T10:01:06Z</time>
      </trkpt>
      <trkpt lat="47.23626" lon="-1.61369">
        <ele>41.47</ele>
        <time>2013-10-27T10:01:09Z</time>
      </trkpt>
      <trkpt lat="47.23634" lon="-1.61355">
        <ele>40.99</ele>
        <time>2013-10-27T10:01:11Z</time>
      </trkpt>
      <trkpt lat="47.23643" lon="-1.6134">
        <ele>40.03</ele>
        <time>2013-10-27T10:01:13Z</time>
      </trkpt>
      <trkpt lat="47.23654" lon="-1.61326">
        <ele>39.55</ele>
        <time>2013-10-27T10:01:15Z</time>
      </trkpt>
      <trkpt lat="47.23666" lon="-1.61317">
        <ele>37.63</ele>
        <time>2013-10-27T10:01:18Z</time>
      </trkpt>
      <trkpt lat="47.23679" lon="-1.6132">
        <ele>35.71</ele>
        <time>2013-10-27T10:01:21Z</time>
      </trkpt>
      <trkpt lat="47.23693" lon="-1.61324">
        <ele>33.3</ele>
        <time>2013-10-27T10:01:24Z</time>
      </trkpt>
      <trkpt lat="47.23702" lon="-1.61332">
        <ele>32.34</ele>
        <time>2013-10-27T10:01:27Z</time>
      </trkpt>
      <trkpt lat="47.23711" lon="-1.6134">
        <ele>32.34</ele>
        <time>2013-10-27T10:01:30Z</time>
      </trkpt>
      <trkpt lat="47.23716" lon="-1.61355">
        <ele>33.78</ele>
        <time>2013-10-27T10:01:34Z</time>
      </trkpt>
      <trkpt lat="47.2372" lon="-1.61371">
        <ele>34.26</ele>
        <time>2013-10-27T10:01:37Z</time>
      </trkpt>
      <trkpt lat="47.23723" lon="-1.61389">
        <ele>33.3</ele>
        <time>2013-10-27T10:01:41Z</time>
      </trkpt>
      <trkpt lat="47.23727" lon="-1.61406">
        <ele>31.86</ele>
        <time>2013-10-27T10:01:45Z</time>
      </trkpt>
      <trkpt lat="47.23731" lon="-1.61426">
        <ele>28.5</ele>
        <time>2013-10-27T10:01:49Z</time>
      </trkpt>
      <trkpt lat="47.23732" lon="-1.61441">
        <ele>27.05</ele>
        <time>2013-10-27T10:01:53Z</time>
      </trkpt>
      <trkpt lat="47.23729" lon="-1.6146">
        <ele>28.02</ele>
        <time>2013-10-27T10:01:57Z</time>
      </trkpt>
      <trkpt lat="47.23729" lon="-1.61477">
        <ele>27.05</ele>
        <time>2013-10-27T10:02:00Z</time>
      </trkpt>
      <trkpt lat="47.23733" lon="-1.61497">
        <ele>25.13</ele>
        <time>2013-10-27T10:02:05Z</time>
      </trkpt>
      <trkpt lat="47.23735" lon="-1.61514">
        <ele>22.73</ele>
        <time>2013-10-27T10:02:09Z</time>
      </trkpt>
      <trkpt lat="47.23741" lon="-1.61528">
        <ele>20.32</ele>
        <time>2013-10-27T10:02:13Z</time>
      </trkpt>
      <trkpt lat="47.23749" lon="-1.61539">
        <ele>20.32</ele>
        <time>2013-10-27T10:02:16Z</time>
      </trkpt>
      <trkpt lat="47.23751" lon="-1.61554">
        <ele>20.81</ele>
        <time>2013-10-27T10:02:20Z</time>
      </trkpt>
      <trkpt lat="47.23756" lon="-1.61569">
        <ele>21.29</ele>
        <time>2013-10-27T10:02:23Z</time>
      </trkpt>
      <trkpt lat="47.23763" lon="-1.61584">
        <ele>22.25</ele>
        <time>2013-10-27T10:02:28Z</time>
      </trkpt>
      <trkpt lat="47.23763" lon="-1.61609">
        <ele>24.17</ele>
        <time>2013-10-27T10:02:36Z</time>
      </trkpt>
      <trkpt lat="47.23761" lon="-1.61628">
        <ele>23.21</ele>
        <time>2013-10-27T10:02:43Z</time>
      </trkpt>
      <trkpt lat="47.23756" lon="-1.61645">
        <ele>23.21</ele>
        <time>2013-10-27T10:02:47Z</time>
      </trkpt>
      <trkpt lat="47.23751" lon="-1.61659">
        <ele>23.69</ele>
        <time>2013-10-27T10:02:50Z</time>
      </trkpt>
      <trkpt lat="47.23749" lon="-1.61677">
        <ele>25.13</ele>
        <time>2013-10-27T10:02:53Z</time>
      </trkpt>
      <trkpt lat="47.23749" lon="-1.61695">
        <ele>27.05</ele>
        <time>2013-10-27T10:02:56Z</time>
      </trkpt>
      <trkpt lat="47.23751" lon="-1.61714">
        <ele>27.05</ele>
        <time>2013-10-27T10:02:59Z</time>
      </trkpt>
      <trkpt lat="47.23754" lon="-1.61734">
        <ele>27.53</ele>
        <time>2013-10-27T10:03:02Z</time>
      </trkpt>
      <trkpt lat="47.23756" lon="-1.61754">
        <ele>27.05</ele>
        <time>2013-10-27T10:03:05Z</time>
      </trkpt>
      <trkpt lat="47.23762" lon="-1.61772">
        <ele>26.57</ele>
        <time>2013-10-27T10:03:08Z</time>
      </trkpt>
      <trkpt lat="47.23768" lon="-1.6179">
        <ele>26.57</ele>
        <time>2013-10-27T10:03:11Z</time>
      </trkpt>
      <trkpt lat="47.23774" lon="-1.61807">
        <ele>26.57</ele>
        <time>2013-10-27T10:03:14Z</time>
      </trkpt>
      <trkpt lat="47.23782" lon="-1.61822">
        <ele>27.05</ele>
        <time>2013-10-27T10:03:17Z</time>
      </trkpt>
      <trkpt lat="47.23789" lon="-1.61838">
        <ele>26.57</ele>
        <time>2013-10-27T10:03:20Z</time>
      </trkpt>
      <trkpt lat="47.23797" lon="-1.61856">
        <ele>26.57</ele>
        <time>2013-10-27T10:03:23Z</time>
      </trkpt>
      <trkpt lat="47.23802" lon="-1.61868">
        <ele>26.09</ele>
        <time>2013-10-27T10:03:25Z</time>
      </trkpt>
      <trkpt lat="47.23809" lon="-1.61886">
        <ele>26.57</ele>
        <time>2013-10-27T10:03:28Z</time>
      </trkpt>
      <trkpt lat="47.23818" lon="-1.619">
        <ele>27.05</ele>
        <time>2013-10-27T10:03:31Z</time>
      </trkpt>
      <trkpt lat="47.23829" lon="-1.61917">
        <ele>26.57</ele>
        <time>2013-10-27T10:03:34Z</time>
      </trkpt>
      <trkpt lat="47.23838" lon="-1.61931">
        <ele>27.05</ele>
        <time>2013-10-27T10:03:37Z</time>
      </trkpt>
      <trkpt lat="47.2385" lon="-1.61941">
        <ele>28.5</ele>
        <time>2013-10-27T10:03:41Z</time>
      </trkpt>
      <trkpt lat="47.23861" lon="-1.61949">
        <ele>28.5</ele>
        <time>2013-10-27T10:03:44Z</time>
      </trkpt>
      <trkpt lat="47.23875" lon="-1.61955">
        <ele>28.02</ele>
        <time>2013-10-27T10:03:47Z</time>
      </trkpt>
      <trkpt lat="47.23888" lon="-1.61961">
        <ele>28.02</ele>
        <time>2013-10-27T10:03:50Z</time>
      </trkpt>
      <trkpt lat="47.239" lon="-1.61962">
        <ele>27.53</ele>
        <time>2013-10-27T10:03:53Z</time>
      </trkpt>
      <trkpt lat="47.2391" lon="-1.61963">
        <ele>28.02</ele>
        <time>2013-10-27T10:03:56Z</time>
      </trkpt>
      <trkpt lat="47.23925" lon="-1.61967">
        <ele>29.46</ele>
        <time>2013-10-27T10:04:00Z</time>
      </trkpt>
      <trkpt lat="47.23935" lon="-1.61971">
        <ele>30.42</ele>
        <time>2013-10-27T10:04:03Z</time>
      </trkpt>
      <trkpt lat="47.23947" lon="-1.61978">
        <ele>32.34</ele>
        <time>2013-10-27T10:04:06Z</time>
      </trkpt>
      <trkpt lat="47.23958" lon="-1.61988">
        <ele>33.78</ele>
        <time>2013-10-27T10:04:09Z</time>
      </trkpt>
      <trkpt lat="47.23966" lon="-1.61998">
        <ele>35.23</ele>
        <time>2013-10-27T10:04:12Z</time>
      </trkpt>
      <trkpt lat="47.23976" lon="-1.6201">
        <ele>36.19</ele>
        <time>2013-10-27T10:04:15Z</time>
      </trkpt>
      <trkpt lat="47.23986" lon="-1.62023">
        <ele>37.15</ele>
        <time>2013-10-27T10:04:18Z</time>
      </trkpt>
      <trkpt lat="47.23995" lon="-1.62039">
        <ele>37.15</ele>
        <time>2013-10-27T10:04:21Z</time>
      </trkpt>
      <trkpt lat="47.24" lon="-1.62059">
        <ele>36.67</ele>
        <time>2013-10-27T10:04:24Z</time>
      </trkpt>
      <trkpt lat="47.24003" lon="-1.62076">
        <ele>36.19</ele>
        <time>2013-10-27T10:04:27Z</time>
      </trkpt>
      <trkpt lat="47.24005" lon="-1.62095">
        <ele>35.71</ele>
        <time>2013-10-27T10:04:30Z</time>
      </trkpt>
      <trkpt lat="47.24005" lon="-1.62112">
        <ele>35.23</ele>
        <time>2013-10-27T10:04:33Z</time>
      </trkpt>
      <trkpt lat="47.24007" lon="-1.62128">
        <ele>35.23</ele>
        <time>2013-10-27T10:04:36Z</time>
      </trkpt>
      <trkpt lat="47.24008" lon="-1.62144">
        <ele>35.23</ele>
        <time>2013-10-27T10:04:39Z</time>
      </trkpt>
      <trkpt lat="47.24009" lon="-1.62163">
        <ele>35.23</ele>
        <time>2013-10-27T10:04:42Z</time>
      </trkpt>
      <trkpt lat="47.24015" lon="-1.6218">
        <ele>34.74</ele>
        <time>2013-10-27T10:04:46Z</time>
      </trkpt>
      <trkpt lat="47.24014" lon="-1.62202">
        <ele>34.26</ele>
        <time>2013-10-27T10:04:49Z</time>
      </trkpt>
      <trkpt lat="47.24013" lon="-1.62222">
        <ele>33.78</ele>
        <time>2013-10-27T10:04:52Z</time>
      </trkpt>
      <trkpt lat="47.24011" lon="-1.62245">
        <ele>33.78</ele>
        <time>2013-10-27T10:04:55Z</time>
      </trkpt>
      <trkpt lat="47.24012" lon="-1.62267">
        <ele>33.3</ele>
        <time>2013-10-27T10:04:58Z</time>
      </trkpt>
      <trkpt lat="47.24012" lon="-1.62288">
        <ele>31.86</ele>
        <time>2013-10-27T10:05:01Z</time>
      </trkpt>
      <trkpt lat="47.2401" lon="-1.62307">
        <ele>28.98</ele>
        <time>2013-10-27T10:05:04Z</time>
      </trkpt>
      <trkpt lat="47.24007" lon="-1.62325">
        <ele>28.5</ele>
        <time>2013-10-27T10:05:07Z</time>
      </trkpt>
      <trkpt lat="47.24004" lon="-1.6234">
        <ele>28.02</ele>
        <time>2013-10-27T10:05:12Z</time>
      </trkpt>
      <trkpt lat="47.2401" lon="-1.62362">
        <ele>28.02</ele>
        <time>2013-10-27T10:05:16Z</time>
      </trkpt>
      <trkpt lat="47.2401" lon="-1.62383">
        <ele>27.53</ele>
        <time>2013-10-27T10:05:20Z</time>
      </trkpt>
      <trkpt lat="47.24012" lon="-1.62406">
        <ele>26.09</ele>
        <time>2013-10-27T10:05:24Z</time>
      </trkpt>
      <trkpt lat="47.2401" lon="-1.62422">
        <ele>25.61</ele>
        <time>2013-10-27T10:05:28Z</time>
      </trkpt>
      <trkpt lat="47.24006" lon="-1.62438">
        <ele>28.02</ele>
        <time>2013-10-27T10:05:32Z</time>
      </trkpt>
      <trkpt lat="47.24011" lon="-1.62453">
        <ele>29.46</ele>
        <time>2013-10-27T10:05:36Z</time>
      </trkpt>
      <trkpt lat="47.2402" lon="-1.62463">
        <ele>30.9</ele>
        <time>2013-10-27T10:05:39Z</time>
      </trkpt>
      <trkpt lat="47.24028" lon="-1.62476">
        <ele>32.34</ele>
        <time>2013-10-27T10:05:42Z</time>
      </trkpt>
      <trkpt lat="47.24037" lon="-1.62488">
        <ele>33.78</ele>
        <time>2013-10-27T10:05:45Z</time>
      </trkpt>
      <trkpt lat="47.24044" lon="-1.62501">
        <ele>34.74</ele>
        <time>2013-10-27T10:05:48Z</time>
      </trkpt>
      <trkpt lat="47.24052" lon="-1.62513">
        <ele>35.23</ele>
        <time>2013-10-27T10:05:51Z</time>
      </trkpt>
      <trkpt lat="47.2406" lon="-1.62527">
        <ele>36.19</ele>
        <time>2013-10-27T10:05:54Z</time>
      </trkpt>
      <trkpt lat="47.2407" lon="-1.62535">
        <ele>37.63</ele>
        <time>2013-10-27T10:05:57Z</time>
      </trkpt>
      <trkpt lat="47.2408" lon="-1.62537">
        <ele>38.59</ele>
        <time>2013-10-27T10:06:00Z</time>
      </trkpt>
      <trkpt lat="47.24093" lon="-1.6255">
        <ele>39.07</ele>
        <time>2013-10-27T10:06:03Z</time>
      </trkpt>
      <trkpt lat="47.24098" lon="-1.62568">
        <ele>39.07</ele>
        <time>2013-10-27T10:06:06Z</time>
      </trkpt>
      <trkpt lat="47.24093" lon="-1.62587">
        <ele>39.07</ele>
        <time>2013-10-27T10:06:09Z</time>
      </trkpt>
      <trkpt lat="47.24084" lon="-1.62606">
        <ele>38.59</ele>
        <time>2013-10-27T10:06:12Z</time>
      </trkpt>
      <trkpt lat="47.24074" lon="-1.62625">
        <ele>38.59</ele>
        <time>2013-10-27T10:06:15Z</time>
      </trkpt>
      <trkpt lat="47.24067" lon="-1.6264">
        <ele>39.07</ele>
        <time>2013-10-27T10:06:18Z</time>
      </trkpt>
      <trkpt lat="47.24061" lon="-1.62657">
        <ele>39.55</ele>
        <time>2013-10-27T10:06:21Z</time>
      </trkpt>
      <trkpt lat="47.24061" lon="-1.62673">
        <ele>40.51</ele>
        <time>2013-10-27T10:06:24Z</time>
      </trkpt>
      <trkpt lat="47.24055" lon="-1.62688">
        <ele>37.63</ele>
        <time>2013-10-27T10:06:28Z</time>
      </trkpt>
      <trkpt lat="47.24048" lon="-1.62699">
        <ele>35.71</ele>
        <time>2013-10-27T10:06:31Z</time>
      </trkpt>
      <trkpt lat="47.2404" lon="-1.6271">
        <ele>31.86</ele>
        <time>2013-10-27T10:06:34Z</time>
      </trkpt>
      <trkpt lat="47.24034" lon="-1.62722">
        <ele>29.94</ele>
        <time>2013-10-27T10:06:38Z</time>
      </trkpt>
      <trkpt lat="47.24042" lon="-1.6272">
        <ele>27.53</ele>
        <time>2013-10-27T10:07:19Z</time>
      </trkpt>
      <trkpt lat="47.24051" lon="-1.62709">
        <ele>26.57</ele>
        <time>2013-10-27T10:07:23Z</time>
      </trkpt>
      <trkpt lat="47.2406" lon="-1.62704">
        <ele>25.61</ele>
        <time>2013-10-27T10:07:26Z</time>
      </trkpt>
      <trkpt lat="47.2407" lon="-1.62698">
        <ele>25.13</ele>
        <time>2013-10-27T10:07:30Z</time>
      </trkpt>
      <trkpt lat="47.24078" lon="-1.62688">
        <ele>25.13</ele>
        <time>2013-10-27T10:07:34Z</time>
      </trkpt>
      <trkpt lat="47.24083" lon="-1.62702">
        <ele>25.61</ele>
        <time>2013-10-27T10:07:39Z</time>
      </trkpt>
      <trkpt lat="47.24087" lon="-1.62714">
        <ele>26.57</ele>
        <time>2013-10-27T10:07:43Z</time>
      </trkpt>
      <trkpt lat="47.24097" lon="-1.62728">
        <ele>26.09</ele>
        <time>2013-10-27T10:07:47Z</time>
      </trkpt>
      <trkpt lat="47.24101" lon="-1.62745">
        <ele>25.13</ele>
        <time>2013-10-27T10:07:52Z</time>
      </trkpt>
      <trkpt lat="47.24107" lon="-1.6276">
        <ele>24.17</ele>
        <time>2013-10-27T10:07:58Z</time>
      </trkpt>
      <trkpt lat="47.24115" lon="-1.62771">
        <ele>25.13</ele>
        <time>2013-10-27T10:08:04Z</time>
      </trkpt>
      <trkpt lat="47.24121" lon="-1.62784">
        <ele>26.09</ele>
        <time>2013-10-27T10:08:08Z</time>
      </trkpt>
      <trkpt lat="47.24126" lon="-1.62799">
        <ele>26.09</ele>
        <time>2013-10-27T10:08:11Z</time>
      </trkpt>
      <trkpt lat="47.2413" lon="-1.62815">
        <ele>25.61</ele>
        <time>2013-10-27T10:08:14Z</time>
      </trkpt>
      <trkpt lat="47.24137" lon="-1.62832">
        <ele>25.13</ele>
        <time>2013-10-27T10:08:18Z</time>
      </trkpt>
      <trkpt lat="47.24144" lon="-1.62848">
        <ele>25.61</ele>
        <time>2013-10-27T10:08:22Z</time>
      </trkpt>
      <trkpt lat="47.2415" lon="-1.62865">
        <ele>26.09</ele>
        <time>2013-10-27T10:08:26Z</time>
      </trkpt>
      <trkpt lat="47.24157" lon="-1.62883">
        <ele>25.61</ele>
        <time>2013-10-27T10:08:29Z</time>
      </trkpt>
      <trkpt lat="47.24166" lon="-1.62902">
        <ele>26.09</ele>
        <time>2013-10-27T10:08:32Z</time>
      </trkpt>
      <trkpt lat="47.24173" lon="-1.62919">
        <ele>26.09</ele>
        <time>2013-10-27T10:08:35Z</time>
      </trkpt>
      <trkpt lat="47.2418" lon="-1.62936">
        <ele>26.09</ele>
        <time>2013-10-27T10:08:38Z</time>
      </trkpt>
      <trkpt lat="47.24184" lon="-1.62956">
        <ele>26.09</ele>
        <time>2013-10-27T10:08:41Z</time>
      </trkpt>
      <trkpt lat="47.24188" lon="-1.62971">
        <ele>25.61</ele>
        <time>2013-10-27T10:08:44Z</time>
      </trkpt>
      <trkpt lat="47.24193" lon="-1.62987">
        <ele>26.09</ele>
        <time>2013-10-27T10:08:47Z</time>
      </trkpt>
      <trkpt lat="47.24195" lon="-1.63002">
        <ele>26.09</ele>
        <time>2013-10-27T10:08:50Z</time>
      </trkpt>
      <trkpt lat="47.24197" lon="-1.63019">
        <ele>25.13</ele>
        <time>2013-10-27T10:08:53Z</time>
      </trkpt>
      <trkpt lat="47.24197" lon="-1.6304">
        <ele>24.17</ele>
        <time>2013-10-27T10:08:56Z</time>
      </trkpt>
      <trkpt lat="47.24197" lon="-1.63056">
        <ele>23.69</ele>
        <time>2013-10-27T10:08:58Z</time>
      </trkpt>
      <trkpt lat="47.24198" lon="-1.63072">
        <ele>22.73</ele>
        <time>2013-10-27T10:09:00Z</time>
      </trkpt>
      <trkpt lat="47.24201" lon="-1.63087">
        <ele>21.29</ele>
        <time>2013-10-27T10:09:02Z</time>
      </trkpt>
      <trkpt lat="47.24204" lon="-1.63102">
        <ele>19.84</ele>
        <time>2013-10-27T10:09:04Z</time>
      </trkpt>
      <trkpt lat="47.24209" lon="-1.63118">
        <ele>18.88</ele>
        <time>2013-10-27T10:09:06Z</time>
      </trkpt>
      <trkpt lat="47.24214" lon="-1.63132">
        <ele>17.92</ele>
        <time>2013-10-27T10:09:08Z</time>
      </trkpt>
      <trkpt lat="47.24219" lon="-1.63145">
        <ele>16.96</ele>
        <time>2013-10-27T10:09:10Z</time>
      </trkpt>
      <trkpt lat="47.24226" lon="-1.63156">
        <ele>16.48</ele>
        <time>2013-10-27T10:09:12Z</time>
      </trkpt>
      <trkpt lat="47.24234" lon="-1.63172">
        <ele>15.52</ele>
        <time>2013-10-27T10:09:15Z</time>
      </trkpt>
      <trkpt lat="47.24243" lon="-1.63188">
        <ele>15.04</ele>
        <time>2013-10-27T10:09:18Z</time>
      </trkpt>
      <trkpt lat="47.24255" lon="-1.63199">
        <ele>14.56</ele>
        <time>2013-10-27T10:09:21Z</time>
      </trkpt>
      <trkpt lat="47.24267" lon="-1.63205">
        <ele>15.04</ele>
        <time>2013-10-27T10:09:24Z</time>
      </trkpt>
      <trkpt lat="47.24275" lon="-1.63214">
        <ele>16</ele>
        <time>2013-10-27T10:09:27Z</time>
      </trkpt>
      <trkpt lat="47.24283" lon="-1.6323">
        <ele>17.44</ele>
        <time>2013-10-27T10:09:31Z</time>
      </trkpt>
      <trkpt lat="47.24291" lon="-1.63243">
        <ele>19.36</ele>
        <time>2013-10-27T10:09:34Z</time>
      </trkpt>
      <trkpt lat="47.24302" lon="-1.63255">
        <ele>22.25</ele>
        <time>2013-10-27T10:09:37Z</time>
      </trkpt>
      <trkpt lat="47.24315" lon="-1.63272">
        <ele>26.09</ele>
        <time>2013-10-27T10:09:41Z</time>
      </trkpt>
      <trkpt lat="47.24325" lon="-1.63284">
        <ele>27.05</ele>
        <time>2013-10-27T10:09:44Z</time>
      </trkpt>
      <trkpt lat="47.24333" lon="-1.63297">
        <ele>28.5</ele>
        <time>2013-10-27T10:09:47Z</time>
      </trkpt>
      <trkpt lat="47.2434" lon="-1.6331">
        <ele>29.46</ele>
        <time>2013-10-27T10:09:50Z</time>
      </trkpt>
      <trkpt lat="47.24349" lon="-1.63327">
        <ele>31.86</ele>
        <time>2013-10-27T10:09:54Z</time>
      </trkpt>
      <trkpt lat="47.24355" lon="-1.6334">
        <ele>31.86</ele>
        <time>2013-10-27T10:09:57Z</time>
      </trkpt>
      <trkpt lat="47.24357" lon="-1.63358">
        <ele>29.94</ele>
        <time>2013-10-27T10:10:00Z</time>
      </trkpt>
      <trkpt lat="47.24357" lon="-1.63374">
        <ele>30.42</ele>
        <time>2013-10-27T10:10:03Z</time>
      </trkpt>
      <trkpt lat="47.24356" lon="-1.63394">
        <ele>29.94</ele>
        <time>2013-10-27T10:10:06Z</time>
      </trkpt>
      <trkpt lat="47.24358" lon="-1.63414">
        <ele>27.05</ele>
        <time>2013-10-27T10:10:10Z</time>
      </trkpt>
      <trkpt lat="47.24364" lon="-1.63431">
        <ele>28.02</ele>
        <time>2013-10-27T10:10:15Z</time>
      </trkpt>
      <trkpt lat="47.24371" lon="-1.63446">
        <ele>28.98</ele>
        <time>2013-10-27T10:10:19Z</time>
      </trkpt>
      <trkpt lat="47.24375" lon="-1.63463">
        <ele>28.98</ele>
        <time>2013-10-27T10:10:23Z</time>
      </trkpt>
      <trkpt lat="47.24381" lon="-1.63485">
        <ele>28.5</ele>
        <time>2013-10-27T10:12:08Z</time>
      </trkpt>
      <trkpt lat="47.24387" lon="-1.63467">
        <ele>26.57</ele>
        <time>2013-10-27T10:12:25Z</time>
      </trkpt>
      <trkpt lat="47.24391" lon="-1.63457">
        <ele>25.61</ele>
        <time>2013-10-27T10:12:38Z</time>
      </trkpt>
      <trkpt lat="47.24387" lon="-1.63445">
        <ele>26.09</ele>
        <time>2013-10-27T10:12:45Z</time>
      </trkpt>
      <trkpt lat="47.24382" lon="-1.63431">
        <ele>25.13</ele>
        <time>2013-10-27T10:12:49Z</time>
      </trkpt>
      <trkpt lat="47.24376" lon="-1.63419">
        <ele>25.13</ele>
        <time>2013-10-27T10:12:53Z</time>
      </trkpt>
      <trkpt lat="47.2438" lon="-1.63427">
        <ele>26.57</ele>
        <time>2013-10-27T10:13:09Z</time>
      </trkpt>
      <trkpt lat="47.24385" lon="-1.63442">
        <ele>27.05</ele>
        <time>2013-10-27T10:13:14Z</time>
      </trkpt>
      <trkpt lat="47.2439" lon="-1.63456">
        <ele>26.57</ele>
        <time>2013-10-27T10:13:19Z</time>
      </trkpt>
      <trkpt lat="47.24393" lon="-1.63472">
        <ele>26.09</ele>
        <time>2013-10-27T10:13:24Z</time>
      </trkpt>
      <trkpt lat="47.24395" lon="-1.63486">
        <ele>25.61</ele>
        <time>2013-10-27T10:13:28Z</time>
      </trkpt>
      <trkpt lat="47.24395" lon="-1.635">
        <ele>25.61</ele>
        <time>2013-10-27T10:13:32Z</time>
      </trkpt>
      <trkpt lat="47.24392" lon="-1.63514">
        <ele>26.09</ele>
        <time>2013-10-27T10:13:38Z</time>
      </trkpt>
      <trkpt lat="47.24386" lon="-1.63528">
        <ele>24.65</ele>
        <time>2013-10-27T10:13:42Z</time>
      </trkpt>
      <trkpt lat="47.24384" lon="-1.63543">
        <ele>23.21</ele>
        <time>2013-10-27T10:13:45Z</time>
      </trkpt>
      <trkpt lat="47.24382" lon="-1.63564">
        <ele>22.25</ele>
        <time>2013-10-27T10:13:49Z</time>
      </trkpt>
      <trkpt lat="47.24384" lon="-1.63578">
        <ele>22.73</ele>
        <time>2013-10-27T10:13:52Z</time>
      </trkpt>
      <trkpt lat="47.24386" lon="-1.63592">
        <ele>22.73</ele>
        <time>2013-10-27T10:13:55Z</time>
      </trkpt>
      <trkpt lat="47.2439" lon="-1.63604">
        <ele>22.25</ele>
        <time>2013-10-27T10:13:58Z</time>
      </trkpt>
      <trkpt lat="47.24395" lon="-1.63618">
        <ele>24.17</ele>
        <time>2013-10-27T10:14:01Z</time>
      </trkpt>
      <trkpt lat="47.24398" lon="-1.63632">
        <ele>25.61</ele>
        <time>2013-10-27T10:14:04Z</time>
      </trkpt>
      <trkpt lat="47.24398" lon="-1.63647">
        <ele>27.05</ele>
        <time>2013-10-27T10:14:08Z</time>
      </trkpt>
      <trkpt lat="47.24399" lon="-1.63663">
        <ele>27.53</ele>
        <time>2013-10-27T10:14:12Z</time>
      </trkpt>
      <trkpt lat="47.24399" lon="-1.63678">
        <ele>28.02</ele>
        <time>2013-10-27T10:14:15Z</time>
      </trkpt>
      <trkpt lat="47.24397" lon="-1.63693">
        <ele>28.5</ele>
        <time>2013-10-27T10:14:18Z</time>
      </trkpt>
      <trkpt lat="47.24394" lon="-1.63707">
        <ele>28.98</ele>
        <time>2013-10-27T10:14:21Z</time>
      </trkpt>
      <trkpt lat="47.24392" lon="-1.63721">
        <ele>28.98</ele>
        <time>2013-10-27T10:14:24Z</time>
      </trkpt>
      <trkpt lat="47.24388" lon="-1.63735">
        <ele>29.94</ele>
        <time>2013-10-27T10:14:27Z</time>
      </trkpt>
      <trkpt lat="47.24391" lon="-1.63749">
        <ele>30.42</ele>
        <time>2013-10-27T10:14:31Z</time>
      </trkpt>
      <trkpt lat="47.244" lon="-1.63748">
        <ele>31.38</ele>
        <time>2013-10-27T10:14:40Z</time>
      </trkpt>
      <trkpt lat="47.24407" lon="-1.63736">
        <ele>31.86</ele>
        <time>2013-10-27T10:14:45Z</time>
      </trkpt>
      <trkpt lat="47.24418" lon="-1.63736">
        <ele>31.38</ele>
        <time>2013-10-27T10:14:49Z</time>
      </trkpt>
      <trkpt lat="47.24428" lon="-1.63741">
        <ele>31.38</ele>
        <time>2013-10-27T10:14:53Z</time>
      </trkpt>
      <trkpt lat="47.24437" lon="-1.63746">
        <ele>31.38</ele>
        <time>2013-10-27T10:14:56Z</time>
      </trkpt>
      <trkpt lat="47.24446" lon="-1.63753">
        <ele>31.86</ele>
        <time>2013-10-27T10:15:00Z</time>
      </trkpt>
      <trkpt lat="47.24456" lon="-1.63761">
        <ele>31.86</ele>
        <time>2013-10-27T10:15:04Z</time>
      </trkpt>
      <trkpt lat="47.24466" lon="-1.63768">
        <ele>32.82</ele>
        <time>2013-10-27T10:15:13Z</time>
      </trkpt>
      <trkpt lat="47.24456" lon="-1.63765">
        <ele>32.34</ele>
        <time>2013-10-27T10:15:19Z</time>
      </trkpt>
      <trkpt lat="47.24448" lon="-1.63758">
        <ele>31.86</ele>
        <time>2013-10-27T10:15:23Z</time>
      </trkpt>
      <trkpt lat="47.24438" lon="-1.63749">
        <ele>31.38</ele>
        <time>2013-10-27T10:15:28Z</time>
      </trkpt>
      <trkpt lat="47.24437" lon="-1.63747">
        <ele>38.11</ele>
        <time>2013-10-27T10:16:44Z</time>
      </trkpt>
      <trkpt lat="47.24444" lon="-1.6373">
        <ele>35.71</ele>
        <time>2013-10-27T10:16:52Z</time>
      </trkpt>
      <trkpt lat="47.24453" lon="-1.63717">
        <ele>34.26</ele>
        <time>2013-10-27T10:16:57Z</time>
      </trkpt>
      <trkpt lat="47.24461" lon="-1.63707">
        <ele>33.78</ele>
        <time>2013-10-27T10:17:01Z</time>
      </trkpt>
      <trkpt lat="47.24469" lon="-1.63699">
        <ele>34.26</ele>
        <time>2013-10-27T10:17:05Z</time>
      </trkpt>
      <trkpt lat="47.24478" lon="-1.63691">
        <ele>35.71</ele>
        <time>2013-10-27T10:17:08Z</time>
      </trkpt>
      <trkpt lat="47.24487" lon="-1.63684">
        <ele>36.67</ele>
        <time>2013-10-27T10:17:11Z</time>
      </trkpt>
      <trkpt lat="47.24496" lon="-1.63678">
        <ele>37.63</ele>
        <time>2013-10-27T10:17:14Z</time>
      </trkpt>
      <trkpt lat="47.24507" lon="-1.63673">
        <ele>39.55</ele>
        <time>2013-10-27T10:17:18Z</time>
      </trkpt>
      <trkpt lat="47.24519" lon="-1.63671">
        <ele>40.51</ele>
        <time>2013-10-27T10:17:22Z</time>
      </trkpt>
      <trkpt lat="47.24531" lon="-1.6367">
        <ele>40.51</ele>
        <time>2013-10-27T10:17:26Z</time>
      </trkpt>
      <trkpt lat="47.24541" lon="-1.63669">
        <ele>40.51</ele>
        <time>2013-10-27T10:17:30Z</time>
      </trkpt>
      <trkpt lat="47.24551" lon="-1.63669">
        <ele>41.47</ele>
        <time>2013-10-27T10:17:34Z</time>
      </trkpt>
      <trkpt lat="47.2456" lon="-1.63663">
        <ele>41.95</ele>
        <time>2013-10-27T10:17:38Z</time>
      </trkpt>
      <trkpt lat="47.24565" lon="-1.6365">
        <ele>41.47</ele>
        <time>2013-10-27T10:17:42Z</time>
      </trkpt>
      <trkpt lat="47.24571" lon="-1.63636">
        <ele>42.44</ele>
        <time>2013-10-27T10:17:46Z</time>
      </trkpt>
      <trkpt lat="47.24578" lon="-1.63621">
        <ele>42.92</ele>
        <time>2013-10-27T10:17:51Z</time>
      </trkpt>
      <trkpt lat="47.24585" lon="-1.63606">
        <ele>44.84</ele>
        <time>2013-10-27T10:17:56Z</time>
      </trkpt>
      <trkpt lat="47.24594" lon="-1.63596">
        <ele>44.84</ele>
        <time>2013-10-27T10:18:00Z</time>
      </trkpt>
      <trkpt lat="47.24603" lon="-1.6359">
        <ele>45.32</ele>
        <time>2013-10-27T10:18:05Z</time>
      </trkpt>
      <trkpt lat="47.24614" lon="-1.63585">
        <ele>47.24</ele>
        <time>2013-10-27T10:18:10Z</time>
      </trkpt>
      <trkpt lat="47.24624" lon="-1.63584">
        <ele>50.13</ele>
        <time>2013-10-27T10:18:15Z</time>
      </trkpt>
      <trkpt lat="47.24635" lon="-1.63585">
        <ele>53.01</ele>
        <time>2013-10-27T10:18:20Z</time>
      </trkpt>
      <trkpt lat="47.24647" lon="-1.6359">
        <ele>53.49</ele>
        <time>2013-10-27T10:18:25Z</time>
      </trkpt>
      <trkpt lat="47.24658" lon="-1.63598">
        <ele>55.41</ele>
        <time>2013-10-27T10:18:32Z</time>
      </trkpt>
      <trkpt lat="47.24668" lon="-1.63607">
        <ele>59.74</ele>
        <time>2013-10-27T10:18:38Z</time>
      </trkpt>
      <trkpt lat="47.24677" lon="-1.63619">
        <ele>61.18</ele>
        <time>2013-10-27T10:18:42Z</time>
      </trkpt>
      <trkpt lat="47.24685" lon="-1.63633">
        <ele>62.14</ele>
        <time>2013-10-27T10:18:46Z</time>
      </trkpt>
      <trkpt lat="47.24692" lon="-1.63648">
        <ele>63.58</ele>
        <time>2013-10-27T10:18:50Z</time>
      </trkpt>
      <trkpt lat="47.247" lon="-1.63665">
        <ele>64.55</ele>
        <time>2013-10-27T10:18:55Z</time>
      </trkpt>
      <trkpt lat="47.24709" lon="-1.6368">
        <ele>65.03</ele>
        <time>2013-10-27T10:18:59Z</time>
      </trkpt>
      <trkpt lat="47.24716" lon="-1.63694">
        <ele>65.51</ele>
        <time>2013-10-27T10:19:03Z</time>
      </trkpt>
      <trkpt lat="47.24726" lon="-1.63708">
        <ele>65.51</ele>
        <time>2013-10-27T10:19:07Z</time>
      </trkpt>
      <trkpt lat="47.24736" lon="-1.63727">
        <ele>63.1</ele>
        <time>2013-10-27T10:19:14Z</time>
      </trkpt>
      <trkpt lat="47.24744" lon="-1.63743">
        <ele>62.62</ele>
        <time>2013-10-27T10:19:19Z</time>
      </trkpt>
      <trkpt lat="47.2475" lon="-1.63756">
        <ele>62.14</ele>
        <time>2013-10-27T10:19:22Z</time>
      </trkpt>
      <trkpt lat="47.24758" lon="-1.63771">
        <ele>61.66</ele>
        <time>2013-10-27T10:19:25Z</time>
      </trkpt>
      <trkpt lat="47.24765" lon="-1.63786">
        <ele>60.7</ele>
        <time>2013-10-27T10:19:28Z</time>
      </trkpt>
      <trkpt lat="47.24774" lon="-1.63803">
        <ele>59.26</ele>
        <time>2013-10-27T10:19:31Z</time>
      </trkpt>
      <trkpt lat="47.24781" lon="-1.63818">
        <ele>58.3</ele>
        <time>2013-10-27T10:19:34Z</time>
      </trkpt>
      <trkpt lat="47.24788" lon="-1.63833">
        <ele>57.82</ele>
        <time>2013-10-27T10:19:37Z</time>
      </trkpt>
      <trkpt lat="47.24795" lon="-1.63848">
        <ele>56.86</ele>
        <time>2013-10-27T10:19:40Z</time>
      </trkpt>
      <trkpt lat="47.24802" lon="-1.63865">
        <ele>55.89</ele>
        <time>2013-10-27T10:19:44Z</time>
      </trkpt>
      <trkpt lat="47.24809" lon="-1.63878">
        <ele>56.37</ele>
        <time>2013-10-27T10:19:47Z</time>
      </trkpt>
      <trkpt lat="47.24817" lon="-1.63894">
        <ele>56.86</ele>
        <time>2013-10-27T10:19:51Z</time>
      </trkpt>
      <trkpt lat="47.24824" lon="-1.63907">
        <ele>57.34</ele>
        <time>2013-10-27T10:19:54Z</time>
      </trkpt>
      <trkpt lat="47.24831" lon="-1.63921">
        <ele>57.82</ele>
        <time>2013-10-27T10:19:57Z</time>
      </trkpt>
      <trkpt lat="47.24838" lon="-1.63936">
        <ele>57.82</ele>
        <time>2013-10-27T10:20:00Z</time>
      </trkpt>
      <trkpt lat="47.24847" lon="-1.63952">
        <ele>56.86</ele>
        <time>2013-10-27T10:20:03Z</time>
      </trkpt>
      <trkpt lat="47.24855" lon="-1.63966">
        <ele>56.37</ele>
        <time>2013-10-27T10:20:06Z</time>
      </trkpt>
      <trkpt lat="47.24863" lon="-1.6398">
        <ele>55.41</ele>
        <time>2013-10-27T10:20:09Z</time>
      </trkpt>
      <trkpt lat="47.2487" lon="-1.63994">
        <ele>54.45</ele>
        <time>2013-10-27T10:20:12Z</time>
      </trkpt>
      <trkpt lat="47.24876" lon="-1.64006">
        <ele>53.01</ele>
        <time>2013-10-27T10:20:15Z</time>
      </trkpt>
      <trkpt lat="47.24883" lon="-1.64018">
        <ele>52.05</ele>
        <time>2013-10-27T10:20:18Z</time>
      </trkpt>
      <trkpt lat="47.24889" lon="-1.64032">
        <ele>51.09</ele>
        <time>2013-10-27T10:20:21Z</time>
      </trkpt>
      <trkpt lat="47.24896" lon="-1.64044">
        <ele>50.13</ele>
        <time>2013-10-27T10:20:25Z</time>
      </trkpt>
      <trkpt lat="47.2489" lon="-1.64045">
        <ele>49.16</ele>
        <time>2013-10-27T10:20:30Z</time>
      </trkpt>
      <trkpt lat="47.24888" lon="-1.64032">
        <ele>49.16</ele>
        <time>2013-10-27T10:20:33Z</time>
      </trkpt>
      <trkpt lat="47.24894" lon="-1.64017">
        <ele>49.16</ele>
        <time>2013-10-27T10:20:36Z</time>
      </trkpt>
      <trkpt lat="47.24905" lon="-1.64008">
        <ele>49.65</ele>
        <time>2013-10-27T10:20:39Z</time>
      </trkpt>
      <trkpt lat="47.24915" lon="-1.64">
        <ele>49.16</ele>
        <time>2013-10-27T10:20:42Z</time>
      </trkpt>
      <trkpt lat="47.24924" lon="-1.6399">
        <ele>49.65</ele>
        <time>2013-10-27T10:20:45Z</time>
      </trkpt>
      <trkpt lat="47.24933" lon="-1.63982">
        <ele>50.13</ele>
        <time>2013-10-27T10:20:48Z</time>
      </trkpt>
      <trkpt lat="47.24943" lon="-1.63973">
        <ele>50.61</ele>
        <time>2013-10-27T10:20:51Z</time>
      </trkpt>
      <trkpt lat="47.24953" lon="-1.63964">
        <ele>51.57</ele>
        <time>2013-10-27T10:20:54Z</time>
      </trkpt>
      <trkpt lat="47.24963" lon="-1.63957">
        <ele>52.53</ele>
        <time>2013-10-27T10:20:57Z</time>
      </trkpt>
      <trkpt lat="47.24974" lon="-1.63948">
        <ele>53.01</ele>
        <time>2013-10-27T10:21:00Z</time>
      </trkpt>
      <trkpt lat="47.24984" lon="-1.63939">
        <ele>53.49</ele>
        <time>2013-10-27T10:21:03Z</time>
      </trkpt>
      <trkpt lat="47.24996" lon="-1.63941">
        <ele>53.97</ele>
        <time>2013-10-27T10:21:07Z</time>
      </trkpt>
      <trkpt lat="47.25005" lon="-1.63947">
        <ele>54.93</ele>
        <time>2013-10-27T10:21:10Z</time>
      </trkpt>
      <trkpt lat="47.25015" lon="-1.63947">
        <ele>55.41</ele>
        <time>2013-10-27T10:21:13Z</time>
      </trkpt>
      <trkpt lat="47.25027" lon="-1.63939">
        <ele>55.41</ele>
        <time>2013-10-27T10:21:16Z</time>
      </trkpt>
      <trkpt lat="47.25038" lon="-1.6393">
        <ele>55.41</ele>
        <time>2013-10-27T10:21:19Z</time>
      </trkpt>
      <trkpt lat="47.2505" lon="-1.63922">
        <ele>55.89</ele>
        <time>2013-10-27T10:21:22Z</time>
      </trkpt>
      <trkpt lat="47.25062" lon="-1.63913">
        <ele>56.37</ele>
        <time>2013-10-27T10:21:25Z</time>
      </trkpt>
      <trkpt lat="47.25074" lon="-1.63901">
        <ele>56.86</ele>
        <time>2013-10-27T10:21:28Z</time>
      </trkpt>
      <trkpt lat="47.25082" lon="-1.63892">
        <ele>57.34</ele>
        <time>2013-10-27T10:21:30Z</time>
      </trkpt>
      <trkpt lat="47.2509" lon="-1.63883">
        <ele>57.82</ele>
        <time>2013-10-27T10:21:32Z</time>
      </trkpt>
      <trkpt lat="47.25097" lon="-1.63872">
        <ele>58.3</ele>
        <time>2013-10-27T10:21:34Z</time>
      </trkpt>
      <trkpt lat="47.25104" lon="-1.63861">
        <ele>58.3</ele>
        <time>2013-10-27T10:21:36Z</time>
      </trkpt>
      <trkpt lat="47.25111" lon="-1.6385">
        <ele>58.3</ele>
        <time>2013-10-27T10:21:38Z</time>
      </trkpt>
      <trkpt lat="47.25117" lon="-1.63838">
        <ele>58.3</ele>
        <time>2013-10-27T10:21:40Z</time>
      </trkpt>
      <trkpt lat="47.25128" lon="-1.63825">
        <ele>58.3</ele>
        <time>2013-10-27T10:21:43Z</time>
      </trkpt>
      <trkpt lat="47.25139" lon="-1.63815">
        <ele>59.26</ele>
        <time>2013-10-27T10:21:46Z</time>
      </trkpt>
      <trkpt lat="47.25147" lon="-1.6381">
        <ele>59.74</ele>
        <time>2013-10-27T10:21:48Z</time>
      </trkpt>
      <trkpt lat="47.25161" lon="-1.63802">
        <ele>59.74</ele>
        <time>2013-10-27T10:21:51Z</time>
      </trkpt>
      <trkpt lat="47.25175" lon="-1.638">
        <ele>59.74</ele>
        <time>2013-10-27T10:21:54Z</time>
      </trkpt>
      <trkpt lat="47.25184" lon="-1.63802">
        <ele>60.22</ele>
        <time>2013-10-27T10:21:56Z</time>
      </trkpt>
      <trkpt lat="47.25197" lon="-1.63811">
        <ele>60.7</ele>
        <time>2013-10-27T10:21:59Z</time>
      </trkpt>
      <trkpt lat="47.25207" lon="-1.63816">
        <ele>61.18</ele>
        <time>2013-10-27T10:22:01Z</time>
      </trkpt>
      <trkpt lat="47.25217" lon="-1.63822">
        <ele>61.18</ele>
        <time>2013-10-27T10:22:03Z</time>
      </trkpt>
      <trkpt lat="47.2523" lon="-1.63824">
        <ele>61.66</ele>
        <time>2013-10-27T10:22:06Z</time>
      </trkpt>
      <trkpt lat="47.25244" lon="-1.63822">
        <ele>62.14</ele>
        <time>2013-10-27T10:22:09Z</time>
      </trkpt>
      <trkpt lat="47.25257" lon="-1.63817">
        <ele>62.14</ele>
        <time>2013-10-27T10:22:12Z</time>
      </trkpt>
      <trkpt lat="47.25268" lon="-1.63811">
        <ele>62.62</ele>
        <time>2013-10-27T10:22:16Z</time>
      </trkpt>
      <trkpt lat="47.25267" lon="-1.63816">
        <ele>62.14</ele>
        <time>2013-10-27T10:22:25Z</time>
      </trkpt>
      <trkpt lat="47.25257" lon="-1.6382">
        <ele>62.14</ele>
        <time>2013-10-27T10:22:29Z</time>
      </trkpt>
      <trkpt lat="47.25246" lon="-1.63824">
        <ele>63.1</ele>
        <time>2013-10-27T10:22:33Z</time>
      </trkpt>
      <trkpt lat="47.25232" lon="-1.63822">
        <ele>63.58</ele>
        <time>2013-10-27T10:22:38Z</time>
      </trkpt>
      <trkpt lat="47.25222" lon="-1.63817">
        <ele>63.1</ele>
        <time>2013-10-27T10:22:41Z</time>
      </trkpt>
      <trkpt lat="47.25213" lon="-1.63811">
        <ele>62.62</ele>
        <time>2013-10-27T10:22:44Z</time>
      </trkpt>
      <trkpt lat="47.25202" lon="-1.63804">
        <ele>61.18</ele>
        <time>2013-10-27T10:22:48Z</time>
      </trkpt>
      <trkpt lat="47.25192" lon="-1.638">
        <ele>60.7</ele>
        <time>2013-10-27T10:22:52Z</time>
      </trkpt>
      <trkpt lat="47.25183" lon="-1.63793">
        <ele>59.74</ele>
        <time>2013-10-27T10:22:56Z</time>
      </trkpt>
      <trkpt lat="47.2518" lon="-1.63778">
        <ele>58.78</ele>
        <time>2013-10-27T10:23:01Z</time>
      </trkpt>
      <trkpt lat="47.25182" lon="-1.63755">
        <ele>61.66</ele>
        <time>2013-10-27T10:23:59Z</time>
      </trkpt>
      <trkpt lat="47.25185" lon="-1.63742">
        <ele>61.18</ele>
        <time>2013-10-27T10:24:04Z</time>
      </trkpt>
      <trkpt lat="47.2519" lon="-1.63725">
        <ele>62.14</ele>
        <time>2013-10-27T10:24:12Z</time>
      </trkpt>
      <trkpt lat="47.25189" lon="-1.63708">
        <ele>61.66</ele>
        <time>2013-10-27T10:24:18Z</time>
      </trkpt>
      <trkpt lat="47.25187" lon="-1.63683">
        <ele>61.66</ele>
        <time>2013-10-27T10:24:59Z</time>
      </trkpt>
      <trkpt lat="47.25184" lon="-1.63667">
        <ele>62.62</ele>
        <time>2013-10-27T10:25:09Z</time>
      </trkpt>
      <trkpt lat="47.25195" lon="-1.63663">
        <ele>64.55</ele>
        <time>2013-10-27T10:25:17Z</time>
      </trkpt>
      <trkpt lat="47.25203" lon="-1.63672">
        <ele>67.91</ele>
        <time>2013-10-27T10:25:24Z</time>
      </trkpt>
      <trkpt lat="47.25218" lon="-1.63681">
        <ele>68.87</ele>
        <time>2013-10-27T10:25:46Z</time>
      </trkpt>
      <trkpt lat="47.25228" lon="-1.63689">
        <ele>69.35</ele>
        <time>2013-10-27T10:25:50Z</time>
      </trkpt>
      <trkpt lat="47.25235" lon="-1.63699">
        <ele>70.79</ele>
        <time>2013-10-27T10:25:55Z</time>
      </trkpt>
      <trkpt lat="47.25246" lon="-1.63706">
        <ele>71.76</ele>
        <time>2013-10-27T10:26:02Z</time>
      </trkpt>
      <trkpt lat="47.25258" lon="-1.6371">
        <ele>72.72</ele>
        <time>2013-10-27T10:26:07Z</time>
      </trkpt>
      <trkpt lat="47.25269" lon="-1.63711">
        <ele>73.2</ele>
        <time>2013-10-27T10:26:11Z</time>
      </trkpt>
      <trkpt lat="47.25281" lon="-1.63713">
        <ele>75.6</ele>
        <time>2013-10-27T10:26:15Z</time>
      </trkpt>
      <trkpt lat="47.25293" lon="-1.6371">
        <ele>77.04</ele>
        <time>2013-10-27T10:26:18Z</time>
      </trkpt>
      <trkpt lat="47.25298" lon="-1.63695">
        <ele>72.72</ele>
        <time>2013-10-27T10:26:42Z</time>
      </trkpt>
      <trkpt lat="47.253" lon="-1.63678">
        <ele>71.76</ele>
        <time>2013-10-27T10:26:46Z</time>
      </trkpt>
      <trkpt lat="47.25302" lon="-1.63663">
        <ele>70.31</ele>
        <time>2013-10-27T10:26:49Z</time>
      </trkpt>
      <trkpt lat="47.25304" lon="-1.63648">
        <ele>68.87</ele>
        <time>2013-10-27T10:26:52Z</time>
      </trkpt>
      <trkpt lat="47.25309" lon="-1.63635">
        <ele>67.91</ele>
        <time>2013-10-27T10:26:55Z</time>
      </trkpt>
      <trkpt lat="47.25319" lon="-1.63635">
        <ele>68.39</ele>
        <time>2013-10-27T10:26:58Z</time>
      </trkpt>
      <trkpt lat="47.25328" lon="-1.63642">
        <ele>69.83</ele>
        <time>2013-10-27T10:27:01Z</time>
      </trkpt>
      <trkpt lat="47.25338" lon="-1.63649">
        <ele>71.76</ele>
        <time>2013-10-27T10:27:04Z</time>
      </trkpt>
      <trkpt lat="47.25349" lon="-1.63658">
        <ele>74.16</ele>
        <time>2013-10-27T10:27:07Z</time>
      </trkpt>
      <trkpt lat="47.25361" lon="-1.63665">
        <ele>76.56</ele>
        <time>2013-10-27T10:27:10Z</time>
      </trkpt>
      <trkpt lat="47.25374" lon="-1.63673">
        <ele>78</ele>
        <time>2013-10-27T10:27:13Z</time>
      </trkpt>
      <trkpt lat="47.25386" lon="-1.63681">
        <ele>78</ele>
        <time>2013-10-27T10:27:16Z</time>
      </trkpt>
      <trkpt lat="47.25399" lon="-1.63687">
        <ele>78</ele>
        <time>2013-10-27T10:27:19Z</time>
      </trkpt>
      <trkpt lat="47.25413" lon="-1.63686">
        <ele>78</ele>
        <time>2013-10-27T10:27:22Z</time>
      </trkpt>
      <trkpt lat="47.25427" lon="-1.6368">
        <ele>78</ele>
        <time>2013-10-27T10:27:25Z</time>
      </trkpt>
      <trkpt lat="47.2544" lon="-1.63674">
        <ele>76.56</ele>
        <time>2013-10-27T10:27:28Z</time>
      </trkpt>
      <trkpt lat="47.25451" lon="-1.6367">
        <ele>75.12</ele>
        <time>2013-10-27T10:27:31Z</time>
      </trkpt>
      <trkpt lat="47.25461" lon="-1.63665">
        <ele>74.64</ele>
        <time>2013-10-27T10:27:34Z</time>
      </trkpt>
      <trkpt lat="47.25472" lon="-1.63659">
        <ele>73.68</ele>
        <time>2013-10-27T10:27:37Z</time>
      </trkpt>
      <trkpt lat="47.25484" lon="-1.63652">
        <ele>73.2</ele>
        <time>2013-10-27T10:27:40Z</time>
      </trkpt>
      <trkpt lat="47.25496" lon="-1.63645">
        <ele>72.24</ele>
        <time>2013-10-27T10:27:43Z</time>
      </trkpt>
      <trkpt lat="47.25508" lon="-1.63638">
        <ele>71.76</ele>
        <time>2013-10-27T10:27:46Z</time>
      </trkpt>
      <trkpt lat="47.2552" lon="-1.63631">
        <ele>70.79</ele>
        <time>2013-10-27T10:27:49Z</time>
      </trkpt>
      <trkpt lat="47.2553" lon="-1.63625">
        <ele>70.79</ele>
        <time>2013-10-27T10:27:52Z</time>
      </trkpt>
      <trkpt lat="47.2554" lon="-1.63613">
        <ele>70.79</ele>
        <time>2013-10-27T10:27:56Z</time>
      </trkpt>
      <trkpt lat="47.25543" lon="-1.63596">
        <ele>70.31</ele>
        <time>2013-10-27T10:28:00Z</time>
      </trkpt>
      <trkpt lat="47.25539" lon="-1.63582">
        <ele>69.83</ele>
        <time>2013-10-27T10:28:03Z</time>
      </trkpt>
      <trkpt lat="47.25535" lon="-1.63568">
        <ele>69.83</ele>
        <time>2013-10-27T10:28:06Z</time>
      </trkpt>
      <trkpt lat="47.25532" lon="-1.63548">
        <ele>70.31</ele>
        <time>2013-10-27T10:28:10Z</time>
      </trkpt>
      <trkpt lat="47.25531" lon="-1.63527">
        <ele>70.31</ele>
        <time>2013-10-27T10:28:14Z</time>
      </trkpt>
      <trkpt lat="47.25529" lon="-1.63511">
        <ele>70.31</ele>
        <time>2013-10-27T10:28:17Z</time>
      </trkpt>
      <trkpt lat="47.25529" lon="-1.63491">
        <ele>70.31</ele>
        <time>2013-10-27T10:28:20Z</time>
      </trkpt>
      <trkpt lat="47.2553" lon="-1.63472">
        <ele>70.31</ele>
        <time>2013-10-27T10:28:23Z</time>
      </trkpt>
      <trkpt lat="47.25528" lon="-1.63454">
        <ele>69.83</ele>
        <time>2013-10-27T10:28:26Z</time>
      </trkpt>
      <trkpt lat="47.25527" lon="-1.63437">
        <ele>69.83</ele>
        <time>2013-10-27T10:28:29Z</time>
      </trkpt>
      <trkpt lat="47.25525" lon="-1.63415">
        <ele>70.79</ele>
        <time>2013-10-27T10:28:33Z</time>
      </trkpt>
      <trkpt lat="47.25519" lon="-1.63396">
        <ele>70.31</ele>
        <time>2013-10-27T10:28:37Z</time>
      </trkpt>
      <trkpt lat="47.25512" lon="-1.63381">
        <ele>70.31</ele>
        <time>2013-10-27T10:28:40Z</time>
      </trkpt>
      <trkpt lat="47.25503" lon="-1.63371">
        <ele>70.31</ele>
        <time>2013-10-27T10:28:43Z</time>
      </trkpt>
      <trkpt lat="47.25494" lon="-1.63356">
        <ele>71.27</ele>
        <time>2013-10-27T10:28:47Z</time>
      </trkpt>
      <trkpt lat="47.25485" lon="-1.63339">
        <ele>71.27</ele>
        <time>2013-10-27T10:28:51Z</time>
      </trkpt>
      <trkpt lat="47.25481" lon="-1.63325">
        <ele>71.76</ele>
        <time>2013-10-27T10:28:54Z</time>
      </trkpt>
      <trkpt lat="47.25475" lon="-1.63309">
        <ele>71.76</ele>
        <time>2013-10-27T10:28:57Z</time>
      </trkpt>
      <trkpt lat="47.25471" lon="-1.63294">
        <ele>71.27</ele>
        <time>2013-10-27T10:29:00Z</time>
      </trkpt>
      <trkpt lat="47.25467" lon="-1.63278">
        <ele>71.76</ele>
        <time>2013-10-27T10:29:03Z</time>
      </trkpt>
      <trkpt lat="47.25461" lon="-1.63265">
        <ele>71.27</ele>
        <time>2013-10-27T10:29:06Z</time>
      </trkpt>
      <trkpt lat="47.25458" lon="-1.63245">
        <ele>71.27</ele>
        <time>2013-10-27T10:29:09Z</time>
      </trkpt>
      <trkpt lat="47.25454" lon="-1.63224">
        <ele>71.27</ele>
        <time>2013-10-27T10:29:12Z</time>
      </trkpt>
      <trkpt lat="47.25448" lon="-1.63205">
        <ele>70.79</ele>
        <time>2013-10-27T10:29:15Z</time>
      </trkpt>
      <trkpt lat="47.25444" lon="-1.63182">
        <ele>71.27</ele>
        <time>2013-10-27T10:29:18Z</time>
      </trkpt>
      <trkpt lat="47.25438" lon="-1.6316">
        <ele>70.79</ele>
        <time>2013-10-27T10:29:21Z</time>
      </trkpt>
      <trkpt lat="47.25433" lon="-1.63139">
        <ele>70.79</ele>
        <time>2013-10-27T10:29:24Z</time>
      </trkpt>
      <trkpt lat="47.25427" lon="-1.63122">
        <ele>70.79</ele>
        <time>2013-10-27T10:29:27Z</time>
      </trkpt>
      <trkpt lat="47.25419" lon="-1.63105">
        <ele>70.31</ele>
        <time>2013-10-27T10:29:30Z</time>
      </trkpt>
      <trkpt lat="47.25408" lon="-1.631">
        <ele>71.27</ele>
        <time>2013-10-27T10:29:33Z</time>
      </trkpt>
      <trkpt lat="47.25398" lon="-1.63099">
        <ele>71.76</ele>
        <time>2013-10-27T10:29:36Z</time>
      </trkpt>
      <trkpt lat="47.25386" lon="-1.63103">
        <ele>72.24</ele>
        <time>2013-10-27T10:29:39Z</time>
      </trkpt>
      <trkpt lat="47.25373" lon="-1.6311">
        <ele>73.2</ele>
        <time>2013-10-27T10:29:42Z</time>
      </trkpt>
      <trkpt lat="47.25362" lon="-1.63115">
        <ele>74.64</ele>
        <time>2013-10-27T10:29:45Z</time>
      </trkpt>
      <trkpt lat="47.25352" lon="-1.63105">
        <ele>75.12</ele>
        <time>2013-10-27T10:29:49Z</time>
      </trkpt>
      <trkpt lat="47.25343" lon="-1.63094">
        <ele>73.68</ele>
        <time>2013-10-27T10:29:55Z</time>
      </trkpt>
      <trkpt lat="47.25332" lon="-1.63089">
        <ele>70.79</ele>
        <time>2013-10-27T10:30:02Z</time>
      </trkpt>
      <trkpt lat="47.25336" lon="-1.63081">
        <ele>65.03</ele>
        <time>2013-10-27T10:30:28Z</time>
      </trkpt>
      <trkpt lat="47.25343" lon="-1.63073">
        <ele>65.03</ele>
        <time>2013-10-27T10:30:32Z</time>
      </trkpt>
      <trkpt lat="47.25351" lon="-1.63065">
        <ele>65.51</ele>
        <time>2013-10-27T10:30:36Z</time>
      </trkpt>
      <trkpt lat="47.25361" lon="-1.63057">
        <ele>65.51</ele>
        <time>2013-10-27T10:30:40Z</time>
      </trkpt>
      <trkpt lat="47.25371" lon="-1.63047">
        <ele>65.51</ele>
        <time>2013-10-27T10:30:44Z</time>
      </trkpt>
      <trkpt lat="47.2538" lon="-1.63038">
        <ele>65.03</ele>
        <time>2013-10-27T10:30:47Z</time>
      </trkpt>
      <trkpt lat="47.2539" lon="-1.63028">
        <ele>64.55</ele>
        <time>2013-10-27T10:30:50Z</time>
      </trkpt>
      <trkpt lat="47.25399" lon="-1.63019">
        <ele>64.55</ele>
        <time>2013-10-27T10:30:53Z</time>
      </trkpt>
      <trkpt lat="47.25408" lon="-1.6301">
        <ele>64.55</ele>
        <time>2013-10-27T10:30:56Z</time>
      </trkpt>
      <trkpt lat="47.25418" lon="-1.63001">
        <ele>64.55</ele>
        <time>2013-10-27T10:30:59Z</time>
      </trkpt>
      <trkpt lat="47.25428" lon="-1.62992">
        <ele>64.07</ele>
        <time>2013-10-27T10:31:02Z</time>
      </trkpt>
      <trkpt lat="47.25437" lon="-1.62983">
        <ele>64.55</ele>
        <time>2013-10-27T10:31:05Z</time>
      </trkpt>
      <trkpt lat="47.25446" lon="-1.62977">
        <ele>64.55</ele>
        <time>2013-10-27T10:31:08Z</time>
      </trkpt>
      <trkpt lat="47.25444" lon="-1.62966">
        <ele>65.03</ele>
        <time>2013-10-27T10:31:13Z</time>
      </trkpt>
      <trkpt lat="47.25433" lon="-1.62955">
        <ele>64.55</ele>
        <time>2013-10-27T10:31:16Z</time>
      </trkpt>
      <trkpt lat="47.25427" lon="-1.62944">
        <ele>64.55</ele>
        <time>2013-10-27T10:31:18Z</time>
      </trkpt>
      <trkpt lat="47.25424" lon="-1.62929">
        <ele>64.07</ele>
        <time>2013-10-27T10:31:20Z</time>
      </trkpt>
      <trkpt lat="47.25425" lon="-1.62913">
        <ele>64.07</ele>
        <time>2013-10-27T10:31:22Z</time>
      </trkpt>
      <trkpt lat="47.2543" lon="-1.62897">
        <ele>64.07</ele>
        <time>2013-10-27T10:31:24Z</time>
      </trkpt>
      <trkpt lat="47.2544" lon="-1.62887">
        <ele>64.07</ele>
        <time>2013-10-27T10:31:26Z</time>
      </trkpt>
      <trkpt lat="47.25452" lon="-1.62885">
        <ele>64.55</ele>
        <time>2013-10-27T10:31:28Z</time>
      </trkpt>
      <trkpt lat="47.25464" lon="-1.62889">
        <ele>64.55</ele>
        <time>2013-10-27T10:31:30Z</time>
      </trkpt>
      <trkpt lat="47.25475" lon="-1.6289">
        <ele>64.55</ele>
        <time>2013-10-27T10:31:32Z</time>
      </trkpt>
      <trkpt lat="47.25487" lon="-1.62885">
        <ele>64.55</ele>
        <time>2013-10-27T10:31:34Z</time>
      </trkpt>
      <trkpt lat="47.25497" lon="-1.62879">
        <ele>64.55</ele>
        <time>2013-10-27T10:31:36Z</time>
      </trkpt>
      <trkpt lat="47.25506" lon="-1.62873">
        <ele>64.55</ele>
        <time>2013-10-27T10:31:38Z</time>
      </trkpt>
      <trkpt lat="47.25515" lon="-1.62868">
        <ele>65.51</ele>
        <time>2013-10-27T10:31:40Z</time>
      </trkpt>
      <trkpt lat="47.25528" lon="-1.62861">
        <ele>65.51</ele>
        <time>2013-10-27T10:31:43Z</time>
      </trkpt>
      <trkpt lat="47.25537" lon="-1.62855">
        <ele>65.51</ele>
        <time>2013-10-27T10:31:45Z</time>
      </trkpt>
      <trkpt lat="47.25546" lon="-1.62848">
        <ele>65.99</ele>
        <time>2013-10-27T10:31:47Z</time>
      </trkpt>
      <trkpt lat="47.25555" lon="-1.62842">
        <ele>66.47</ele>
        <time>2013-10-27T10:31:49Z</time>
      </trkpt>
      <trkpt lat="47.25564" lon="-1.62834">
        <ele>66.47</ele>
        <time>2013-10-27T10:31:51Z</time>
      </trkpt>
      <trkpt lat="47.25573" lon="-1.62827">
        <ele>65.99</ele>
        <time>2013-10-27T10:31:53Z</time>
      </trkpt>
      <trkpt lat="47.25583" lon="-1.62818">
        <ele>65.99</ele>
        <time>2013-10-27T10:31:55Z</time>
      </trkpt>
      <trkpt lat="47.25592" lon="-1.6281">
        <ele>65.51</ele>
        <time>2013-10-27T10:31:57Z</time>
      </trkpt>
      <trkpt lat="47.25602" lon="-1.62801">
        <ele>65.51</ele>
        <time>2013-10-27T10:31:59Z</time>
      </trkpt>
      <trkpt lat="47.2561" lon="-1.62793">
        <ele>65.51</ele>
        <time>2013-10-27T10:32:01Z</time>
      </trkpt>
      <trkpt lat="47.25619" lon="-1.62784">
        <ele>65.03</ele>
        <time>2013-10-27T10:32:03Z</time>
      </trkpt>
      <trkpt lat="47.25627" lon="-1.62774">
        <ele>64.55</ele>
        <time>2013-10-27T10:32:05Z</time>
      </trkpt>
      <trkpt lat="47.25636" lon="-1.62763">
        <ele>64.55</ele>
        <time>2013-10-27T10:32:07Z</time>
      </trkpt>
      <trkpt lat="47.25645" lon="-1.62751">
        <ele>64.55</ele>
        <time>2013-10-27T10:32:09Z</time>
      </trkpt>
      <trkpt lat="47.25653" lon="-1.62738">
        <ele>64.07</ele>
        <time>2013-10-27T10:32:11Z</time>
      </trkpt>
      <trkpt lat="47.25661" lon="-1.62724">
        <ele>64.07</ele>
        <time>2013-10-27T10:32:13Z</time>
      </trkpt>
      <trkpt lat="47.25668" lon="-1.62711">
        <ele>64.07</ele>
        <time>2013-10-27T10:32:15Z</time>
      </trkpt>
      <trkpt lat="47.25676" lon="-1.62697">
        <ele>64.07</ele>
        <time>2013-10-27T10:32:17Z</time>
      </trkpt>
      <trkpt lat="47.25683" lon="-1.62683">
        <ele>63.58</ele>
        <time>2013-10-27T10:32:19Z</time>
      </trkpt>
      <trkpt lat="47.25691" lon="-1.62668">
        <ele>63.58</ele>
        <time>2013-10-27T10:32:21Z</time>
      </trkpt>
      <trkpt lat="47.257" lon="-1.62653">
        <ele>63.58</ele>
        <time>2013-10-27T10:32:23Z</time>
      </trkpt>
      <trkpt lat="47.25708" lon="-1.62637">
        <ele>63.1</ele>
        <time>2013-10-27T10:32:25Z</time>
      </trkpt>
      <trkpt lat="47.25717" lon="-1.62621">
        <ele>63.1</ele>
        <time>2013-10-27T10:32:27Z</time>
      </trkpt>
      <trkpt lat="47.25726" lon="-1.62605">
        <ele>63.1</ele>
        <time>2013-10-27T10:32:29Z</time>
      </trkpt>
      <trkpt lat="47.25735" lon="-1.62588">
        <ele>63.1</ele>
        <time>2013-10-27T10:32:31Z</time>
      </trkpt>
      <trkpt lat="47.25744" lon="-1.62571">
        <ele>62.62</ele>
        <time>2013-10-27T10:32:33Z</time>
      </trkpt>
      <trkpt lat="47.25753" lon="-1.62553">
        <ele>62.62</ele>
        <time>2013-10-27T10:32:35Z</time>
      </trkpt>
      <trkpt lat="47.25763" lon="-1.62536">
        <ele>62.62</ele>
        <time>2013-10-27T10:32:37Z</time>
      </trkpt>
      <trkpt lat="47.25772" lon="-1.62519">
        <ele>62.62</ele>
        <time>2013-10-27T10:32:39Z</time>
      </trkpt>
      <trkpt lat="47.25781" lon="-1.62503">
        <ele>62.62</ele>
        <time>2013-10-27T10:32:41Z</time>
      </trkpt>
      <trkpt lat="47.2579" lon="-1.62487">
        <ele>62.62</ele>
        <time>2013-10-27T10:32:43Z</time>
      </trkpt>
      <trkpt lat="47.25797" lon="-1.6247">
        <ele>63.1</ele>
        <time>2013-10-27T10:32:45Z</time>
      </trkpt>
      <trkpt lat="47.25799" lon="-1.62453">
        <ele>63.1</ele>
        <time>2013-10-27T10:32:47Z</time>
      </trkpt>
      <trkpt lat="47.25801" lon="-1.62437">
        <ele>63.1</ele>
        <time>2013-10-27T10:32:49Z</time>
      </trkpt>
      <trkpt lat="47.25802" lon="-1.62423">
        <ele>63.1</ele>
        <time>2013-10-27T10:32:51Z</time>
      </trkpt>
      <trkpt lat="47.25803" lon="-1.62407">
        <ele>63.1</ele>
        <time>2013-10-27T10:32:54Z</time>
      </trkpt>
      <trkpt lat="47.25802" lon="-1.62392">
        <ele>63.1</ele>
        <time>2013-10-27T10:32:57Z</time>
      </trkpt>
      <trkpt lat="47.25797" lon="-1.62376">
        <ele>62.62</ele>
        <time>2013-10-27T10:33:00Z</time>
      </trkpt>
      <trkpt lat="47.25791" lon="-1.62359">
        <ele>62.14</ele>
        <time>2013-10-27T10:33:03Z</time>
      </trkpt>
      <trkpt lat="47.25785" lon="-1.62343">
        <ele>61.66</ele>
        <time>2013-10-27T10:33:06Z</time>
      </trkpt>
      <trkpt lat="47.2578" lon="-1.62327">
        <ele>61.18</ele>
        <time>2013-10-27T10:33:09Z</time>
      </trkpt>
      <trkpt lat="47.25787" lon="-1.62319">
        <ele>61.18</ele>
        <time>2013-10-27T10:33:21Z</time>
      </trkpt>
      <trkpt lat="47.25795" lon="-1.62326">
        <ele>61.18</ele>
        <time>2013-10-27T10:33:24Z</time>
      </trkpt>
      <trkpt lat="47.25802" lon="-1.62343">
        <ele>61.66</ele>
        <time>2013-10-27T10:33:27Z</time>
      </trkpt>
      <trkpt lat="47.2581" lon="-1.62358">
        <ele>62.14</ele>
        <time>2013-10-27T10:33:30Z</time>
      </trkpt>
      <trkpt lat="47.25819" lon="-1.62369">
        <ele>63.1</ele>
        <time>2013-10-27T10:33:33Z</time>
      </trkpt>
      <trkpt lat="47.25831" lon="-1.62373">
        <ele>63.58</ele>
        <time>2013-10-27T10:33:37Z</time>
      </trkpt>
      <trkpt lat="47.25843" lon="-1.6238">
        <ele>64.07</ele>
        <time>2013-10-27T10:33:40Z</time>
      </trkpt>
      <trkpt lat="47.25854" lon="-1.62391">
        <ele>64.07</ele>
        <time>2013-10-27T10:33:43Z</time>
      </trkpt>
      <trkpt lat="47.25866" lon="-1.624">
        <ele>64.07</ele>
        <time>2013-10-27T10:33:46Z</time>
      </trkpt>
      <trkpt lat="47.25878" lon="-1.62401">
        <ele>63.58</ele>
        <time>2013-10-27T10:33:49Z</time>
      </trkpt>
      <trkpt lat="47.25891" lon="-1.62399">
        <ele>63.1</ele>
        <time>2013-10-27T10:33:52Z</time>
      </trkpt>
      <trkpt lat="47.25904" lon="-1.62396">
        <ele>63.1</ele>
        <time>2013-10-27T10:33:55Z</time>
      </trkpt>
      <trkpt lat="47.25917" lon="-1.62393">
        <ele>62.62</ele>
        <time>2013-10-27T10:33:58Z</time>
      </trkpt>
      <trkpt lat="47.25927" lon="-1.62392">
        <ele>63.1</ele>
        <time>2013-10-27T10:34:00Z</time>
      </trkpt>
      <trkpt lat="47.25936" lon="-1.6239">
        <ele>62.62</ele>
        <time>2013-10-27T10:34:02Z</time>
      </trkpt>
      <trkpt lat="47.25946" lon="-1.62388">
        <ele>63.1</ele>
        <time>2013-10-27T10:34:04Z</time>
      </trkpt>
      <trkpt lat="47.25955" lon="-1.62386">
        <ele>63.1</ele>
        <time>2013-10-27T10:34:06Z</time>
      </trkpt>
      <trkpt lat="47.25965" lon="-1.62384">
        <ele>62.62</ele>
        <time>2013-10-27T10:34:08Z</time>
      </trkpt>
      <trkpt lat="47.25976" lon="-1.62381">
        <ele>62.62</ele>
        <time>2013-10-27T10:34:10Z</time>
      </trkpt>
      <trkpt lat="47.25987" lon="-1.62379">
        <ele>62.62</ele>
        <time>2013-10-27T10:34:12Z</time>
      </trkpt>
      <trkpt lat="47.25998" lon="-1.62377">
        <ele>62.62</ele>
        <time>2013-10-27T10:34:14Z</time>
      </trkpt>
      <trkpt lat="47.26008" lon="-1.62374">
        <ele>62.14</ele>
        <time>2013-10-27T10:34:16Z</time>
      </trkpt>
      <trkpt lat="47.26018" lon="-1.62371">
        <ele>62.62</ele>
        <time>2013-10-27T10:34:18Z</time>
      </trkpt>
      <trkpt lat="47.26028" lon="-1.62368">
        <ele>62.62</ele>
        <time>2013-10-27T10:34:20Z</time>
      </trkpt>
      <trkpt lat="47.26038" lon="-1.62366">
        <ele>63.1</ele>
        <time>2013-10-27T10:34:22Z</time>
      </trkpt>
      <trkpt lat="47.26047" lon="-1.62366">
        <ele>63.1</ele>
        <time>2013-10-27T10:34:24Z</time>
      </trkpt>
      <trkpt lat="47.26059" lon="-1.62364">
        <ele>63.58</ele>
        <time>2013-10-27T10:34:27Z</time>
      </trkpt>
      <trkpt lat="47.26069" lon="-1.62359">
        <ele>63.1</ele>
        <time>2013-10-27T10:34:30Z</time>
      </trkpt>
      <trkpt lat="47.26076" lon="-1.62348">
        <ele>63.1</ele>
        <time>2013-10-27T10:34:33Z</time>
      </trkpt>
      <trkpt lat="47.26086" lon="-1.6234">
        <ele>63.1</ele>
        <time>2013-10-27T10:34:38Z</time>
      </trkpt>
      <trkpt lat="47.26095" lon="-1.62342">
        <ele>63.1</ele>
        <time>2013-10-27T10:34:42Z</time>
      </trkpt>
      <trkpt lat="47.26105" lon="-1.62348">
        <ele>63.58</ele>
        <time>2013-10-27T10:34:46Z</time>
      </trkpt>
      <trkpt lat="47.2611" lon="-1.62361">
        <ele>64.07</ele>
        <time>2013-10-27T10:34:49Z</time>
      </trkpt>
      <trkpt lat="47.26114" lon="-1.62378">
        <ele>64.07</ele>
        <time>2013-10-27T10:34:52Z</time>
      </trkpt>
      <trkpt lat="47.26115" lon="-1.62396">
        <ele>63.58</ele>
        <time>2013-10-27T10:34:55Z</time>
      </trkpt>
      <trkpt lat="47.26115" lon="-1.62414">
        <ele>63.58</ele>
        <time>2013-10-27T10:34:58Z</time>
      </trkpt>
      <trkpt lat="47.26115" lon="-1.62434">
        <ele>63.58</ele>
        <time>2013-10-27T10:35:01Z</time>
      </trkpt>
      <trkpt lat="47.26119" lon="-1.6245">
        <ele>63.58</ele>
        <time>2013-10-27T10:35:04Z</time>
      </trkpt>
      <trkpt lat="47.26128" lon="-1.62459">
        <ele>64.07</ele>
        <time>2013-10-27T10:35:07Z</time>
      </trkpt>
      <trkpt lat="47.26139" lon="-1.62469">
        <ele>64.07</ele>
        <time>2013-10-27T10:35:10Z</time>
      </trkpt>
      <trkpt lat="47.26148" lon="-1.62476">
        <ele>64.55</ele>
        <time>2013-10-27T10:35:12Z</time>
      </trkpt>
      <trkpt lat="47.26158" lon="-1.62482">
        <ele>64.55</ele>
        <time>2013-10-27T10:35:14Z</time>
      </trkpt>
      <trkpt lat="47.26171" lon="-1.62487">
        <ele>65.51</ele>
        <time>2013-10-27T10:35:17Z</time>
      </trkpt>
      <trkpt lat="47.26181" lon="-1.62491">
        <ele>66.47</ele>
        <time>2013-10-27T10:35:20Z</time>
      </trkpt>
      <trkpt lat="47.26191" lon="-1.62497">
        <ele>67.91</ele>
        <time>2013-10-27T10:35:23Z</time>
      </trkpt>
      <trkpt lat="47.26203" lon="-1.62502">
        <ele>68.87</ele>
        <time>2013-10-27T10:35:26Z</time>
      </trkpt>
      <trkpt lat="47.26214" lon="-1.62506">
        <ele>71.27</ele>
        <time>2013-10-27T10:35:29Z</time>
      </trkpt>
      <trkpt lat="47.26227" lon="-1.62508">
        <ele>72.72</ele>
        <time>2013-10-27T10:35:32Z</time>
      </trkpt>
      <trkpt lat="47.26238" lon="-1.62511">
        <ele>75.12</ele>
        <time>2013-10-27T10:35:35Z</time>
      </trkpt>
      <trkpt lat="47.2625" lon="-1.62514">
        <ele>77.52</ele>
        <time>2013-10-27T10:35:38Z</time>
      </trkpt>
      <trkpt lat="47.26261" lon="-1.62517">
        <ele>79.93</ele>
        <time>2013-10-27T10:35:41Z</time>
      </trkpt>
      <trkpt lat="47.26272" lon="-1.62522">
        <ele>82.33</ele>
        <time>2013-10-27T10:35:44Z</time>
      </trkpt>
      <trkpt lat="47.26283" lon="-1.62524">
        <ele>84.25</ele>
        <time>2013-10-27T10:35:47Z</time>
      </trkpt>
      <trkpt lat="47.26296" lon="-1.62526">
        <ele>85.69</ele>
        <time>2013-10-27T10:35:50Z</time>
      </trkpt>
      <trkpt lat="47.26309" lon="-1.6253">
        <ele>86.66</ele>
        <time>2013-10-27T10:35:53Z</time>
      </trkpt>
      <trkpt lat="47.26324" lon="-1.62532">
        <ele>87.14</ele>
        <time>2013-10-27T10:35:56Z</time>
      </trkpt>
      <trkpt lat="47.26335" lon="-1.62537">
        <ele>87.14</ele>
        <time>2013-10-27T10:35:58Z</time>
      </trkpt>
      <trkpt lat="47.26345" lon="-1.62542">
        <ele>87.14</ele>
        <time>2013-10-27T10:36:00Z</time>
      </trkpt>
      <trkpt lat="47.26357" lon="-1.62548">
        <ele>86.66</ele>
        <time>2013-10-27T10:36:02Z</time>
      </trkpt>
      <trkpt lat="47.26369" lon="-1.62551">
        <ele>86.18</ele>
        <time>2013-10-27T10:36:04Z</time>
      </trkpt>
      <trkpt lat="47.26381" lon="-1.62554">
        <ele>86.18</ele>
        <time>2013-10-27T10:36:06Z</time>
      </trkpt>
      <trkpt lat="47.26393" lon="-1.6255">
        <ele>85.69</ele>
        <time>2013-10-27T10:36:08Z</time>
      </trkpt>
      <trkpt lat="47.26404" lon="-1.62544">
        <ele>84.25</ele>
        <time>2013-10-27T10:36:10Z</time>
      </trkpt>
      <trkpt lat="47.26414" lon="-1.62533">
        <ele>83.29</ele>
        <time>2013-10-27T10:36:12Z</time>
      </trkpt>
      <trkpt lat="47.26425" lon="-1.62523">
        <ele>82.33</ele>
        <time>2013-10-27T10:36:14Z</time>
      </trkpt>
      <trkpt lat="47.26434" lon="-1.62515">
        <ele>80.89</ele>
        <time>2013-10-27T10:36:16Z</time>
      </trkpt>
      <trkpt lat="47.26445" lon="-1.62507">
        <ele>79.45</ele>
        <time>2013-10-27T10:36:19Z</time>
      </trkpt>
      <trkpt lat="47.26456" lon="-1.62495">
        <ele>78</ele>
        <time>2013-10-27T10:36:22Z</time>
      </trkpt>
      <trkpt lat="47.26466" lon="-1.62487">
        <ele>77.52</ele>
        <time>2013-10-27T10:36:24Z</time>
      </trkpt>
      <trkpt lat="47.26477" lon="-1.62481">
        <ele>77.04</ele>
        <time>2013-10-27T10:36:26Z</time>
      </trkpt>
      <trkpt lat="47.26487" lon="-1.62479">
        <ele>75.6</ele>
        <time>2013-10-27T10:36:30Z</time>
      </trkpt>
      <trkpt lat="47.26495" lon="-1.62473">
        <ele>63.1</ele>
        <time>2013-10-27T10:36:52Z</time>
      </trkpt>
      <trkpt lat="47.26497" lon="-1.62458">
        <ele>61.66</ele>
        <time>2013-10-27T10:36:56Z</time>
      </trkpt>
      <trkpt lat="47.265" lon="-1.62439">
        <ele>59.74</ele>
        <time>2013-10-27T10:37:00Z</time>
      </trkpt>
      <trkpt lat="47.26509" lon="-1.6243">
        <ele>59.26</ele>
        <time>2013-10-27T10:37:02Z</time>
      </trkpt>
      <trkpt lat="47.26519" lon="-1.62425">
        <ele>58.3</ele>
        <time>2013-10-27T10:37:04Z</time>
      </trkpt>
      <trkpt lat="47.2653" lon="-1.62419">
        <ele>57.82</ele>
        <time>2013-10-27T10:37:07Z</time>
      </trkpt>
      <trkpt lat="47.26543" lon="-1.62412">
        <ele>55.89</ele>
        <time>2013-10-27T10:37:13Z</time>
      </trkpt>
      <trkpt lat="47.26554" lon="-1.62409">
        <ele>56.37</ele>
        <time>2013-10-27T10:37:16Z</time>
      </trkpt>
      <trkpt lat="47.26566" lon="-1.62402">
        <ele>55.89</ele>
        <time>2013-10-27T10:37:19Z</time>
      </trkpt>
      <trkpt lat="47.26577" lon="-1.62396">
        <ele>55.41</ele>
        <time>2013-10-27T10:37:22Z</time>
      </trkpt>
      <trkpt lat="47.2659" lon="-1.62388">
        <ele>54.93</ele>
        <time>2013-10-27T10:37:26Z</time>
      </trkpt>
      <trkpt lat="47.26601" lon="-1.62384">
        <ele>54.93</ele>
        <time>2013-10-27T10:37:29Z</time>
      </trkpt>
      <trkpt lat="47.26616" lon="-1.62379">
        <ele>54.45</ele>
        <time>2013-10-27T10:37:33Z</time>
      </trkpt>
      <trkpt lat="47.26639" lon="-1.62381">
        <ele>53.97</ele>
        <time>2013-10-27T10:38:10Z</time>
      </trkpt>
      <trkpt lat="47.2665" lon="-1.6239">
        <ele>52.53</ele>
        <time>2013-10-27T10:38:13Z</time>
      </trkpt>
      <trkpt lat="47.26659" lon="-1.62398">
        <ele>51.09</ele>
        <time>2013-10-27T10:38:16Z</time>
      </trkpt>
      <trkpt lat="47.26669" lon="-1.62402">
        <ele>49.65</ele>
        <time>2013-10-27T10:38:19Z</time>
      </trkpt>
      <trkpt lat="47.26679" lon="-1.62404">
        <ele>48.2</ele>
        <time>2013-10-27T10:38:24Z</time>
      </trkpt>
      <trkpt lat="47.2669" lon="-1.62408">
        <ele>48.2</ele>
        <time>2013-10-27T10:38:27Z</time>
      </trkpt>
      <trkpt lat="47.26701" lon="-1.62411">
        <ele>47.24</ele>
        <time>2013-10-27T10:38:30Z</time>
      </trkpt>
      <trkpt lat="47.26714" lon="-1.6241">
        <ele>44.36</ele>
        <time>2013-10-27T10:38:34Z</time>
      </trkpt>
      <trkpt lat="47.26729" lon="-1.62404">
        <ele>41.47</ele>
        <time>2013-10-27T10:38:38Z</time>
      </trkpt>
      <trkpt lat="47.26742" lon="-1.62408">
        <ele>34.74</ele>
        <time>2013-10-27T10:38:44Z</time>
      </trkpt>
      <trkpt lat="47.2675" lon="-1.62387">
        <ele>28.02</ele>
        <time>2013-10-27T10:39:09Z</time>
      </trkpt>
      <trkpt lat="47.26748" lon="-1.6237">
        <ele>25.13</ele>
        <time>2013-10-27T10:39:15Z</time>
      </trkpt>
      <trkpt lat="47.26747" lon="-1.62355">
        <ele>23.21</ele>
        <time>2013-10-27T10:39:21Z</time>
      </trkpt>
      <trkpt lat="47.26748" lon="-1.62338">
        <ele>20.32</ele>
        <time>2013-10-27T10:39:26Z</time>
      </trkpt>
      <trkpt lat="47.26752" lon="-1.62322">
        <ele>17.44</ele>
        <time>2013-10-27T10:39:34Z</time>
      </trkpt>
      <trkpt lat="47.26749" lon="-1.62322">
        <ele>17.92</ele>
        <time>2013-10-27T10:40:09Z</time>
      </trkpt>
      <trkpt lat="47.26745" lon="-1.62338">
        <ele>20.81</ele>
        <time>2013-10-27T10:40:28Z</time>
      </trkpt>
      <trkpt lat="47.26744" lon="-1.62355">
        <ele>22.25</ele>
        <time>2013-10-27T10:40:36Z</time>
      </trkpt>
      <trkpt lat="47.26746" lon="-1.6237">
        <ele>22.25</ele>
        <time>2013-10-27T10:40:41Z</time>
      </trkpt>
      <trkpt lat="47.26749" lon="-1.62385">
        <ele>24.17</ele>
        <time>2013-10-27T10:40:46Z</time>
      </trkpt>
      <trkpt lat="47.26748" lon="-1.62402">
        <ele>24.65</ele>
        <time>2013-10-27T10:40:51Z</time>
      </trkpt>
      <trkpt lat="47.26748" lon="-1.62418">
        <ele>26.09</ele>
        <time>2013-10-27T10:40:56Z</time>
      </trkpt>
      <trkpt lat="47.26744" lon="-1.62439">
        <ele>26.09</ele>
        <time>2013-10-27T10:41:01Z</time>
      </trkpt>
      <trkpt lat="47.26742" lon="-1.62462">
        <ele>26.57</ele>
        <time>2013-10-27T10:41:11Z</time>
      </trkpt>
      <trkpt lat="47.26742" lon="-1.62482">
        <ele>28.98</ele>
        <time>2013-10-27T10:41:17Z</time>
      </trkpt>
      <trkpt lat="47.2674" lon="-1.62498">
        <ele>30.42</ele>
        <time>2013-10-27T10:41:20Z</time>
      </trkpt>
      <trkpt lat="47.26739" lon="-1.62516">
        <ele>31.86</ele>
        <time>2013-10-27T10:41:23Z</time>
      </trkpt>
      <trkpt lat="47.26741" lon="-1.62537">
        <ele>33.3</ele>
        <time>2013-10-27T10:41:26Z</time>
      </trkpt>
      <trkpt lat="47.26744" lon="-1.62556">
        <ele>34.74</ele>
        <time>2013-10-27T10:41:29Z</time>
      </trkpt>
      <trkpt lat="47.26744" lon="-1.62578">
        <ele>36.67</ele>
        <time>2013-10-27T10:41:34Z</time>
      </trkpt>
      <trkpt lat="47.26743" lon="-1.62599">
        <ele>38.11</ele>
        <time>2013-10-27T10:41:38Z</time>
      </trkpt>
      <trkpt lat="47.26744" lon="-1.62619">
        <ele>38.59</ele>
        <time>2013-10-27T10:41:42Z</time>
      </trkpt>
      <trkpt lat="47.26746" lon="-1.62637">
        <ele>38.59</ele>
        <time>2013-10-27T10:41:46Z</time>
      </trkpt>
      <trkpt lat="47.26747" lon="-1.62657">
        <ele>37.15</ele>
        <time>2013-10-27T10:41:50Z</time>
      </trkpt>
      <trkpt lat="47.26748" lon="-1.62675">
        <ele>36.67</ele>
        <time>2013-10-27T10:41:54Z</time>
      </trkpt>
      <trkpt lat="47.26747" lon="-1.62695">
        <ele>33.78</ele>
        <time>2013-10-27T10:41:59Z</time>
      </trkpt>
      <trkpt lat="47.26751" lon="-1.62715">
        <ele>32.82</ele>
        <time>2013-10-27T10:42:04Z</time>
      </trkpt>
      <trkpt lat="47.26753" lon="-1.6273">
        <ele>32.34</ele>
        <time>2013-10-27T10:42:07Z</time>
      </trkpt>
      <trkpt lat="47.26753" lon="-1.62747">
        <ele>31.38</ele>
        <time>2013-10-27T10:42:10Z</time>
      </trkpt>
      <trkpt lat="47.26756" lon="-1.62768">
        <ele>28.5</ele>
        <time>2013-10-27T10:42:14Z</time>
      </trkpt>
      <trkpt lat="47.26755" lon="-1.62785">
        <ele>27.53</ele>
        <time>2013-10-27T10:42:17Z</time>
      </trkpt>
      <trkpt lat="47.26754" lon="-1.62804">
        <ele>25.13</ele>
        <time>2013-10-27T10:42:20Z</time>
      </trkpt>
      <trkpt lat="47.26755" lon="-1.62823">
        <ele>23.69</ele>
        <time>2013-10-27T10:42:23Z</time>
      </trkpt>
      <trkpt lat="47.2676" lon="-1.62842">
        <ele>23.21</ele>
        <time>2013-10-27T10:42:26Z</time>
      </trkpt>
      <trkpt lat="47.2676" lon="-1.62859">
        <ele>22.25</ele>
        <time>2013-10-27T10:42:29Z</time>
      </trkpt>
      <trkpt lat="47.26759" lon="-1.62878">
        <ele>21.29</ele>
        <time>2013-10-27T10:42:33Z</time>
      </trkpt>
      <trkpt lat="47.26757" lon="-1.62896">
        <ele>20.81</ele>
        <time>2013-10-27T10:42:37Z</time>
      </trkpt>
      <trkpt lat="47.26752" lon="-1.62912">
        <ele>19.84</ele>
        <time>2013-10-27T10:42:41Z</time>
      </trkpt>
      <trkpt lat="47.26746" lon="-1.62927">
        <ele>19.84</ele>
        <time>2013-10-27T10:42:44Z</time>
      </trkpt>
      <trkpt lat="47.26745" lon="-1.62946">
        <ele>20.81</ele>
        <time>2013-10-27T10:42:48Z</time>
      </trkpt>
      <trkpt lat="47.26744" lon="-1.62965">
        <ele>20.81</ele>
        <time>2013-10-27T10:42:53Z</time>
      </trkpt>
      <trkpt lat="47.26741" lon="-1.62993">
        <ele>18.88</ele>
        <time>2013-10-27T10:43:51Z</time>
      </trkpt>
      <trkpt lat="47.26735" lon="-1.63008">
        <ele>22.73</ele>
        <time>2013-10-27T10:43:56Z</time>
      </trkpt>
      <trkpt lat="47.26736" lon="-1.63024">
        <ele>24.65</ele>
        <time>2013-10-27T10:44:00Z</time>
      </trkpt>
      <trkpt lat="47.26741" lon="-1.6304">
        <ele>25.13</ele>
        <time>2013-10-27T10:44:06Z</time>
      </trkpt>
      <trkpt lat="47.26752" lon="-1.63052">
        <ele>25.61</ele>
        <time>2013-10-27T10:44:09Z</time>
      </trkpt>
      <trkpt lat="47.26762" lon="-1.63061">
        <ele>26.57</ele>
        <time>2013-10-27T10:44:12Z</time>
      </trkpt>
      <trkpt lat="47.26771" lon="-1.63067">
        <ele>26.57</ele>
        <time>2013-10-27T10:44:15Z</time>
      </trkpt>
      <trkpt lat="47.26782" lon="-1.63064">
        <ele>27.05</ele>
        <time>2013-10-27T10:44:19Z</time>
      </trkpt>
      <trkpt lat="47.26791" lon="-1.63056">
        <ele>28.5</ele>
        <time>2013-10-27T10:44:23Z</time>
      </trkpt>
      <trkpt lat="47.26803" lon="-1.63058">
        <ele>31.38</ele>
        <time>2013-10-27T10:44:28Z</time>
      </trkpt>
      <trkpt lat="47.26814" lon="-1.63057">
        <ele>32.82</ele>
        <time>2013-10-27T10:44:32Z</time>
      </trkpt>
      <trkpt lat="47.26824" lon="-1.63064">
        <ele>34.26</ele>
        <time>2013-10-27T10:44:41Z</time>
      </trkpt>
      <trkpt lat="47.26824" lon="-1.63052">
        <ele>33.78</ele>
        <time>2013-10-27T10:44:48Z</time>
      </trkpt>
      <trkpt lat="47.26819" lon="-1.6304">
        <ele>33.3</ele>
        <time>2013-10-27T10:44:53Z</time>
      </trkpt>
      <trkpt lat="47.26812" lon="-1.63034">
        <ele>31.86</ele>
        <time>2013-10-27T10:45:01Z</time>
      </trkpt>
      <trkpt lat="47.26804" lon="-1.63031">
        <ele>28.5</ele>
        <time>2013-10-27T10:45:07Z</time>
      </trkpt>
      <trkpt lat="47.26795" lon="-1.63027">
        <ele>26.57</ele>
        <time>2013-10-27T10:45:12Z</time>
      </trkpt>
      <trkpt lat="47.26786" lon="-1.63024">
        <ele>26.09</ele>
        <time>2013-10-27T10:45:17Z</time>
      </trkpt>
      <trkpt lat="47.26776" lon="-1.63021">
        <ele>26.09</ele>
        <time>2013-10-27T10:45:22Z</time>
      </trkpt>
      <trkpt lat="47.26769" lon="-1.63009">
        <ele>24.17</ele>
        <time>2013-10-27T10:45:26Z</time>
      </trkpt>
      <trkpt lat="47.26764" lon="-1.62997">
        <ele>23.21</ele>
        <time>2013-10-27T10:45:29Z</time>
      </trkpt>
      <trkpt lat="47.26761" lon="-1.62984">
        <ele>22.73</ele>
        <time>2013-10-27T10:45:37Z</time>
      </trkpt>
      <trkpt lat="47.26762" lon="-1.6297">
        <ele>19.84</ele>
        <time>2013-10-27T10:45:44Z</time>
      </trkpt>
      <trkpt lat="47.26766" lon="-1.62956">
        <ele>18.88</ele>
        <time>2013-10-27T10:45:50Z</time>
      </trkpt>
      <trkpt lat="47.26769" lon="-1.62941">
        <ele>18.88</ele>
        <time>2013-10-27T10:45:54Z</time>
      </trkpt>
      <trkpt lat="47.26772" lon="-1.62926">
        <ele>18.88</ele>
        <time>2013-10-27T10:45:58Z</time>
      </trkpt>
      <trkpt lat="47.26776" lon="-1.62912">
        <ele>18.88</ele>
        <time>2013-10-27T10:46:02Z</time>
      </trkpt>
      <trkpt lat="47.26781" lon="-1.62896">
        <ele>18.4</ele>
        <time>2013-10-27T10:46:06Z</time>
      </trkpt>
      <trkpt lat="47.26786" lon="-1.62884">
        <ele>18.88</ele>
        <time>2013-10-27T10:46:09Z</time>
      </trkpt>
      <trkpt lat="47.26788" lon="-1.62869">
        <ele>18.4</ele>
        <time>2013-10-27T10:46:12Z</time>
      </trkpt>
      <trkpt lat="47.26785" lon="-1.62855">
        <ele>18.4</ele>
        <time>2013-10-27T10:46:15Z</time>
      </trkpt>
      <trkpt lat="47.26782" lon="-1.62842">
        <ele>17.92</ele>
        <time>2013-10-27T10:46:18Z</time>
      </trkpt>
      <trkpt lat="47.2678" lon="-1.62828">
        <ele>17.92</ele>
        <time>2013-10-27T10:46:21Z</time>
      </trkpt>
      <trkpt lat="47.26777" lon="-1.62811">
        <ele>18.4</ele>
        <time>2013-10-27T10:46:25Z</time>
      </trkpt>
      <trkpt lat="47.26776" lon="-1.62794">
        <ele>17.92</ele>
        <time>2013-10-27T10:46:28Z</time>
      </trkpt>
      <trkpt lat="47.26776" lon="-1.62777">
        <ele>17.44</ele>
        <time>2013-10-27T10:46:31Z</time>
      </trkpt>
      <trkpt lat="47.26774" lon="-1.62761">
        <ele>16.96</ele>
        <time>2013-10-27T10:46:34Z</time>
      </trkpt>
      <trkpt lat="47.26773" lon="-1.62744">
        <ele>16.48</ele>
        <time>2013-10-27T10:46:37Z</time>
      </trkpt>
      <trkpt lat="47.26773" lon="-1.62725">
        <ele>15.04</ele>
        <time>2013-10-27T10:46:40Z</time>
      </trkpt>
      <trkpt lat="47.26772" lon="-1.62707">
        <ele>13.6</ele>
        <time>2013-10-27T10:46:43Z</time>
      </trkpt>
      <trkpt lat="47.2677" lon="-1.62688">
        <ele>12.63</ele>
        <time>2013-10-27T10:46:46Z</time>
      </trkpt>
      <trkpt lat="47.2677" lon="-1.62667">
        <ele>11.67</ele>
        <time>2013-10-27T10:46:49Z</time>
      </trkpt>
      <trkpt lat="47.26769" lon="-1.62647">
        <ele>10.23</ele>
        <time>2013-10-27T10:46:52Z</time>
      </trkpt>
      <trkpt lat="47.26768" lon="-1.62627">
        <ele>8.31</ele>
        <time>2013-10-27T10:46:55Z</time>
      </trkpt>
      <trkpt lat="47.26769" lon="-1.62613">
        <ele>7.35</ele>
        <time>2013-10-27T10:46:57Z</time>
      </trkpt>
      <trkpt lat="47.26769" lon="-1.62597">
        <ele>6.39</ele>
        <time>2013-10-27T10:46:59Z</time>
      </trkpt>
      <trkpt lat="47.2677" lon="-1.62582">
        <ele>5.91</ele>
        <time>2013-10-27T10:47:01Z</time>
      </trkpt>
      <trkpt lat="47.26772" lon="-1.62566">
        <ele>4.94</ele>
        <time>2013-10-27T10:47:03Z</time>
      </trkpt>
      <trkpt lat="47.26775" lon="-1.62547">
        <ele>1.58</ele>
        <time>2013-10-27T10:47:06Z</time>
      </trkpt>
      <trkpt lat="47.26777" lon="-1.62526">
        <ele>-0.34</ele>
        <time>2013-10-27T10:47:09Z</time>
      </trkpt>
      <trkpt lat="47.26778" lon="-1.62506">
        <ele>-2.27</ele>
        <time>2013-10-27T10:47:12Z</time>
      </trkpt>
      <trkpt lat="47.2678" lon="-1.62486">
        <ele>-3.71</ele>
        <time>2013-10-27T10:47:15Z</time>
      </trkpt>
      <trkpt lat="47.26782" lon="-1.62472">
        <ele>-4.19</ele>
        <time>2013-10-27T10:47:17Z</time>
      </trkpt>
      <trkpt lat="47.26785" lon="-1.62451">
        <ele>-4.67</ele>
        <time>2013-10-27T10:47:20Z</time>
      </trkpt>
      <trkpt lat="47.26788" lon="-1.62429">
        <ele>-3.71</ele>
        <time>2013-10-27T10:47:23Z</time>
      </trkpt>
      <trkpt lat="47.2679" lon="-1.62414">
        <ele>-2.75</ele>
        <time>2013-10-27T10:47:25Z</time>
      </trkpt>
      <trkpt lat="47.26791" lon="-1.624">
        <ele>-1.79</ele>
        <time>2013-10-27T10:47:27Z</time>
      </trkpt>
      <trkpt lat="47.26795" lon="-1.62382">
        <ele>0.62</ele>
        <time>2013-10-27T10:47:30Z</time>
      </trkpt>
      <trkpt lat="47.26804" lon="-1.62378">
        <ele>3.5</ele>
        <time>2013-10-27T10:47:33Z</time>
      </trkpt>
      <trkpt lat="47.26813" lon="-1.62384">
        <ele>7.35</ele>
        <time>2013-10-27T10:47:37Z</time>
      </trkpt>
      <trkpt lat="47.26821" lon="-1.62391">
        <ele>11.67</ele>
        <time>2013-10-27T10:47:42Z</time>
      </trkpt>
      <trkpt lat="47.26831" lon="-1.62398">
        <ele>15.04</ele>
        <time>2013-10-27T10:47:47Z</time>
      </trkpt>
      <trkpt lat="47.26838" lon="-1.62403">
        <ele>19.36</ele>
        <time>2013-10-27T10:47:52Z</time>
      </trkpt>
      <trkpt lat="47.26847" lon="-1.62409">
        <ele>21.77</ele>
        <time>2013-10-27T10:47:58Z</time>
      </trkpt>
      <trkpt lat="47.26856" lon="-1.62417">
        <ele>24.65</ele>
        <time>2013-10-27T10:48:03Z</time>
      </trkpt>
      <trkpt lat="47.26866" lon="-1.62423">
        <ele>27.05</ele>
        <time>2013-10-27T10:48:08Z</time>
      </trkpt>
      <trkpt lat="47.26875" lon="-1.62429">
        <ele>29.46</ele>
        <time>2013-10-27T10:48:13Z</time>
      </trkpt>
      <trkpt lat="47.2688" lon="-1.62432">
        <ele>33.78</ele>
        <time>2013-10-27T10:49:02Z</time>
      </trkpt>
      <trkpt lat="47.2689" lon="-1.62432">
        <ele>34.74</ele>
        <time>2013-10-27T10:50:16Z</time>
      </trkpt>
      <trkpt lat="47.26902" lon="-1.62431">
        <ele>36.19</ele>
        <time>2013-10-27T10:50:21Z</time>
      </trkpt>
      <trkpt lat="47.26914" lon="-1.62432">
        <ele>37.63</ele>
        <time>2013-10-27T10:50:25Z</time>
      </trkpt>
      <trkpt lat="47.26924" lon="-1.62439">
        <ele>40.03</ele>
        <time>2013-10-27T10:50:29Z</time>
      </trkpt>
      <trkpt lat="47.26934" lon="-1.62445">
        <ele>42.92</ele>
        <time>2013-10-27T10:50:34Z</time>
      </trkpt>
      <trkpt lat="47.26941" lon="-1.62453">
        <ele>43.88</ele>
        <time>2013-10-27T10:50:38Z</time>
      </trkpt>
      <trkpt lat="47.26947" lon="-1.6244">
        <ele>44.36</ele>
        <time>2013-10-27T10:50:44Z</time>
      </trkpt>
      <trkpt lat="47.2695" lon="-1.62424">
        <ele>42.92</ele>
        <time>2013-10-27T10:50:49Z</time>
      </trkpt>
      <trkpt lat="47.26961" lon="-1.62425">
        <ele>44.36</ele>
        <time>2013-10-27T10:50:53Z</time>
      </trkpt>
      <trkpt lat="47.26973" lon="-1.62427">
        <ele>46.28</ele>
        <time>2013-10-27T10:50:57Z</time>
      </trkpt>
      <trkpt lat="47.26984" lon="-1.62427">
        <ele>49.16</ele>
        <time>2013-10-27T10:51:01Z</time>
      </trkpt>
      <trkpt lat="47.26994" lon="-1.62427">
        <ele>52.05</ele>
        <time>2013-10-27T10:51:05Z</time>
      </trkpt>
      <trkpt lat="47.27003" lon="-1.62418">
        <ele>55.41</ele>
        <time>2013-10-27T10:51:11Z</time>
      </trkpt>
      <trkpt lat="47.27013" lon="-1.6241">
        <ele>55.41</ele>
        <time>2013-10-27T10:51:16Z</time>
      </trkpt>
      <trkpt lat="47.27021" lon="-1.62401">
        <ele>52.53</ele>
        <time>2013-10-27T10:51:21Z</time>
      </trkpt>
    </trkseg>
  </trk>
</gpx>